GFSMW_sfc_temp_000.txt.gz
Temp
52 54 54 53 55 55 55 55 58 56 57 58 57 57 58 59 59 60 61 61 61 61 59 59 59 59 58 60 61 59 58 58 58 56 58 59 60 60 60 61 60 61 61
52 53 53 52 52 53 55 57 57 57 56 57 58 58 58 59 59 59 60 60 60 60 61 59 58 58 58 58 58 58 59 60 61 56 57 54 57 57 60 60 60 60 61
52 51 51 50 51 51 52 55 55 57 57 57 58 58 58 57 56 56 57 57 58 59 58 57 57 57 57 57 57 57 58 58 61 61 57 54 54 58 61 57 58 59 59
50 53 53 52 51 51 52 53 55 55 56 54 56 53 52 51 51 52 53 55 55 56 56 56 55 54 54 54 55 58 56 57 56 59 62 60 58 54 54 61 58 57 59
50 51 51 52 52 52 51 51 54 54 53 54 52 53 51 50 50 51 51 51 54 54 55 55 54 53 54 52 51 52 53 52 53 53 55 55 56 56 54 51 56 61 63
49 50 51 51 50 50 50 50 53 51 52 52 51 50 49 49 50 49 50 50 51 52 53 54 53 52 52 52 52 51 50 50 51 51 52 51 50 51 51 50 51 52 57
49 49 49 49 49 49 49 52 51 49 50 50 50 49 48 47 47 47 47 48 49 50 50 51 51 51 52 52 52 50 49 50 49 49 50 51 51 52 52 50 50 51 55
48 49 49 48 48 48 48 48 49 48 48 48 47 47 47 47 47 46 46 46 47 47 49 49 49 50 50 51 51 50 48 50 48 47 48 49 51 51 51 50 48 46 49
48 48 47 47 47 47 47 47 47 47 47 46 46 44 45 45 44 44 44 45 45 50 48 46 46 47 48 49 48 48 48 49 48 46 46 47 49 49 50 50 50 47 43
48 47 46 46 46 46 46 46 46 45 45 45 44 44 43 43 43 43 42 42 43 44 44 44 45 45 45 46 46 46 47 47 48 49 46 47 48 48 49 49 49 48 46
48 46 45 45 45 45 45 44 44 44 44 44 43 42 43 42 42 41 41 41 41 42 42 43 43 43 43 44 43 44 46 45 45 45 45 45 47 46 46 46 46 45 45
48 45 45 44 44 43 43 43 43 43 43 43 42 41 41 40 39 39 39 40 39 41 41 41 41 42 42 42 42 42 43 43 42 43 43 44 48 43 44 44 43 43 42
45 43 43 43 43 42 42 42 42 41 42 41 40 39 38 37 36 37 38 39 39 39 40 40 40 40 40 41 41 42 42 42 42 42 42 42 42 41 41 41 41 43 43
45 43 42 42 42 42 41 40 40 40 40 40 38 37 37 36 36 37 37 37 38 37 38 39 39 39 39 40 42 42 41 42 42 41 41 41 41 40 40 40 40 42 39
44 44 43 40 40 39 39 39 39 39 39 38 37 37 37 36 36 36 36 36 36 37 37 37 38 38 39 43 41 41 41 40 40 40 40 41 42 44 43 41 39 39 38
44 43 42 40 39 37 38 39 38 38 38 37 36 36 36 35 35 35 35 35 35 35 35 35 35 35 39 42 44 43 40 40 39 37 38 39 41 41 44 44 44 43 38
43 41 40 39 38 37 38 36 36 37 38 36 35 35 35 34 34 34 34 33 33 33 33 34 34 34 35 41 42 43 40 38 37 37 37 38 41 40 38 41 43 42 43
42 40 39 38 37 37 37 37 39 39 36 34 34 34 33 33 33 32 31 31 32 31 32 32 33 33 36 40 41 42 38 37 37 37 37 37 36 37 39 38 36 35 38
40 39 39 37 36 36 38 38 38 34 33 33 32 33 32 31 31 30 30 30 31 31 32 33 32 31 32 39 40 40 37 36 36 37 37 37 36 40 42 36 34 35 35
40 38 37 37 37 36 36 34 33 32 31 32 32 32 31 30 29 29 29 30 30 31 32 32 32 34 32 36 39 39 36 34 35 36 36 38 39 41 41 37 35 31 31
38 38 37 36 35 35 38 33 32 30 31 31 31 31 30 29 29 29 29 30 29 30 29 29 31 31 32 34 39 40 37 35 35 32 34 36 39 38 39 40 33 32 37
37 37 35 34 36 40 34 32 31 30 30 30 29 29 28 30 33 28 28 28 28 27 28 28 29 31 32 37 37 39 39 39 35 33 35 35 36 37 38 36 37 37 36
36 36 35 34 34 33 32 29 30 29 29 28 27 27 28 29 29 28 28 28 28 27 27 27 27 30 32 33 37 38 38 39 36 35 36 34 36 36 34 35 35 34 29
35 35 34 34 36 34 31 29 29 29 27 26 25 27 26 29 28 27 29 27 27 27 27 28 29 29 30 31 32 34 34 37 35 35 31 34 34 33 32 31 29 28 28
35 36 36 35 32 29 28 28 29 28 27 26 27 27 27 26 27 28 27 28 29 30 30 30 31 29 28 31 37 36 35 35 35 36 32 29 27 26 26 27 27 27 27
35 35 34 30 28 27 27 28 28 27 25 26 28 27 28 26 27 27 27 34 35 36 36 36 35 34 36 37 37 38 37 37 37 31 28 25 24 24 25 24 24 25 26

GFSMW_sfc_temp_003.txt.gz
Temp
58 59 59 60 62 61 63 62 63 62 66 66 66 67 65 66 66 66 67 67 67 67 66 66 66 66 66 65 66 65 65 65 67 59 60 64 67 69 70 70 69 68 69
58 57 58 59 59 60 61 62 62 62 63 65 65 66 66 64 64 64 64 64 64 64 64 62 62 63 63 63 63 63 62 64 66 60 59 57 64 71 67 69 67 70 69
56 57 57 57 58 58 58 60 61 61 61 63 65 65 64 63 62 61 61 61 62 62 61 61 61 60 61 59 60 60 59 57 61 62 58 54 54 55 66 67 69 68 67
56 56 56 57 57 56 57 58 59 60 60 61 60 59 58 57 57 58 59 60 60 60 59 59 59 59 59 58 58 60 58 57 55 58 63 60 58 52 52 64 65 68 67
56 55 55 55 56 56 55 57 58 57 57 58 58 58 56 56 56 57 57 57 58 58 57 57 57 57 57 57 56 56 56 56 54 54 55 55 56 58 53 49 56 62 64
54 54 54 55 55 55 55 56 56 55 55 56 56 55 54 54 54 53 53 54 55 55 55 55 55 55 55 54 55 55 54 54 54 54 54 53 51 51 51 50 52 53 58
54 54 54 54 54 54 54 55 55 52 54 54 53 53 52 52 51 51 51 51 52 52 52 52 52 52 52 53 53 52 52 53 51 52 52 54 52 53 53 51 49 50 56
53 54 53 53 53 52 53 53 53 52 52 52 51 51 51 51 51 50 50 50 50 50 51 50 51 51 51 51 51 51 51 51 50 50 50 51 51 53 53 50 46 44 49
52 52 52 52 52 52 51 52 51 50 50 50 50 49 50 49 48 48 49 48 48 50 49 49 48 49 49 49 49 49 50 50 50 49 49 49 50 51 52 51 50 46 41
51 51 51 51 50 50 50 50 50 49 49 49 49 48 48 48 47 48 46 46 47 47 47 47 47 47 48 48 47 47 48 48 48 49 48 48 49 49 51 50 50 49 44
51 50 50 50 49 49 49 49 49 48 48 47 47 46 46 46 46 46 45 45 45 45 45 45 45 46 46 46 46 46 47 45 46 47 46 46 48 47 48 48 48 46 45
51 49 48 48 48 47 47 47 47 46 46 46 45 45 45 44 44 44 44 44 44 44 44 44 44 44 44 45 44 44 45 44 44 45 45 44 46 44 45 46 44 43 44
48 47 46 47 46 46 46 46 45 45 45 45 44 43 43 43 43 42 43 43 43 43 43 43 42 42 43 43 44 44 44 44 44 44 44 43 43 42 43 43 42 43 44
47 46 46 46 45 45 45 44 43 44 44 43 43 42 42 41 41 42 42 41 42 41 41 42 42 41 41 42 43 43 43 44 44 43 43 43 42 41 42 42 42 42 41
45 46 45 44 44 43 43 43 42 43 43 42 41 41 41 41 41 40 40 40 40 40 40 40 40 40 40 43 42 43 42 42 41 42 42 42 42 42 43 43 41 40 39
46 46 45 43 42 42 42 41 41 41 42 40 40 40 40 40 39 39 39 38 38 39 38 38 38 37 40 41 42 42 42 41 40 39 40 42 41 42 43 42 43 42 38
46 45 44 43 42 42 42 41 41 41 41 40 39 39 38 38 38 38 37 37 37 37 37 38 38 37 38 39 41 41 41 40 39 39 40 40 42 41 39 41 42 39 41
45 44 43 41 41 41 40 40 41 41 39 38 38 38 37 36 37 36 36 36 36 36 36 36 37 36 37 38 40 40 40 40 39 39 39 39 39 40 40 40 35 39 40
44 43 43 41 40 40 41 41 39 38 37 37 36 36 36 35 35 35 35 36 36 36 36 36 35 35 35 38 38 39 39 39 38 40 40 39 39 40 41 35 36 36 37
41 40 40 39 40 39 40 38 38 37 36 35 35 35 35 35 34 34 35 35 35 34 36 35 35 35 35 36 38 39 39 37 37 38 38 39 40 40 37 37 35 31 33
40 39 39 39 39 38 39 38 36 35 35 35 35 35 35 33 34 35 34 34 34 33 33 33 34 34 35 36 38 39 38 37 35 34 37 39 39 36 38 38 35 33 36
38 38 37 37 38 40 39 35 34 35 34 34 33 33 33 33 35 33 33 33 32 31 31 32 32 34 35 37 37 38 39 39 36 36 38 37 35 38 37 35 36 36 35
37 37 37 36 36 36 36 34 34 33 33 32 32 32 33 33 33 32 32 32 32 30 30 31 30 32 35 36 37 37 38 39 37 38 35 38 38 37 34 34 35 34 30
36 36 36 35 35 36 36 33 33 32 31 31 31 32 32 34 33 32 32 31 30 30 30 30 31 31 33 34 35 36 37 38 36 34 36 36 35 34 33 32 32 31 30
36 36 35 35 36 34 32 32 33 31 31 30 31 31 31 30 30 31 31 31 33 33 32 32 32 31 30 34 37 37 36 36 35 35 33 32 31 29 29 29 29 29 29
35 34 34 36 33 31 31 31 31 30 29 30 31 30 31 30 30 29 30 33 34 35 36 36 35 35 36 37 37 37 37 37 36 32 28 27 27 26 26 26 26 27 27

GFSMW_sfc_temp_006.txt.gz
Temp
69 70 71 74 74 75 75 75 75 76 79 78 76 74 72 73 72 72 73 73 73 72 71 72 72 71 70 70 70 69 68 69 71 67 68 70 74 76 77 72 75 77 78
69 68 70 71 72 72 73 73 72 74 75 75 74 73 72 71 71 70 70 70 70 70 69 68 68 68 67 67 67 66 64 66 67 63 62 60 66 73 71 71 74 74 76
68 68 68 69 70 69 69 69 70 70 72 73 73 72 71 71 69 68 68 67 68 67 67 66 67 66 66 64 64 64 62 60 64 65 61 56 54 60 65 67 70 71 71
68 67 68 68 67 66 68 68 69 69 70 72 71 70 68 65 65 66 67 67 66 65 65 65 64 64 64 62 62 63 61 60 58 61 64 62 60 54 53 63 64 67 67
67 65 65 64 65 65 65 67 67 67 68 68 69 68 66 65 66 66 65 65 65 63 62 62 62 61 62 61 60 60 60 60 58 58 57 58 59 59 54 50 55 61 64
66 65 65 65 64 64 65 65 65 64 65 66 66 65 63 63 63 62 62 63 63 62 60 60 60 60 59 58 58 58 58 58 58 58 57 56 53 53 52 52 53 54 58
65 63 63 64 64 63 63 64 63 62 63 63 63 62 61 61 60 60 60 60 60 59 58 58 58 58 57 57 57 57 56 57 55 55 55 56 55 55 53 52 52 51 55
66 65 64 64 63 62 62 63 62 61 61 61 60 61 61 60 60 58 59 59 58 58 57 57 57 57 57 57 56 56 56 56 55 53 54 54 54 55 54 51 49 44 48
64 64 64 64 63 62 62 61 60 59 59 59 60 59 59 58 57 57 57 57 57 56 56 56 56 56 56 55 55 55 54 54 54 53 53 53 53 54 54 52 51 46 40
63 63 63 63 62 61 60 60 60 59 58 58 58 57 57 57 56 56 55 54 55 55 54 54 54 54 54 54 54 53 53 53 52 53 52 52 52 52 52 50 50 49 46
63 62 63 62 60 60 59 59 58 57 57 57 57 56 55 55 55 55 54 53 54 53 53 53 52 53 53 53 52 52 51 50 50 51 50 49 50 49 49 49 48 47 47
63 63 62 59 58 58 57 57 57 56 55 55 55 54 53 54 54 53 53 53 52 53 51 51 51 52 51 51 50 49 50 49 48 49 48 48 49 46 47 47 45 46 46
61 61 60 58 58 57 57 56 56 55 54 54 53 53 52 52 52 51 51 52 51 51 51 51 50 49 49 48 49 50 49 49 48 48 47 46 46 44 45 45 45 46 45
60 60 58 58 58 57 56 55 54 54 52 52 52 51 50 49 50 50 50 49 49 49 49 49 49 48 48 48 49 47 47 47 48 47 46 45 44 43 43 43 43 43 41
58 57 57 57 57 55 54 53 52 52 51 51 50 48 47 49 49 48 48 48 48 48 48 47 47 47 47 48 44 44 44 45 45 45 45 45 44 42 43 43 42 41 40
58 57 57 57 55 54 52 51 50 50 50 49 47 46 47 47 47 47 47 47 47 47 47 46 46 45 46 44 42 42 42 43 43 42 43 44 43 44 43 43 43 42 39
57 56 56 55 54 53 52 51 50 49 49 47 46 46 46 46 46 46 46 45 45 46 45 46 45 45 45 43 41 41 41 42 43 42 42 43 44 43 42 43 43 41 40
56 56 56 53 52 52 51 50 49 48 47 46 46 45 45 44 45 45 45 45 46 45 45 44 44 43 43 41 40 39 41 42 43 43 43 42 41 41 42 42 36 39 40
56 56 55 52 50 50 50 49 47 46 46 45 45 44 44 43 44 44 44 45 44 43 43 44 42 42 41 40 39 39 41 41 41 42 43 41 40 42 42 35 34 36 38
51 50 50 50 50 49 49 48 47 45 42 44 43 44 43 43 43 43 43 43 43 43 43 42 43 41 40 40 39 40 40 39 39 40 40 41 42 41 39 38 37 33 35
48 48 49 49 49 49 48 46 42 41 43 43 43 43 43 43 43 43 43 42 42 41 41 41 41 41 40 40 40 39 39 38 38 38 39 42 39 38 40 39 37 34 36
46 48 47 47 47 47 46 42 42 44 43 42 42 42 43 42 42 40 41 41 41 39 39 39 38 40 41 40 39 39 39 39 37 37 40 37 38 38 37 37 37 37 35
46 47 47 45 45 45 44 42 43 42 41 41 41 42 42 42 42 40 39 38 39 38 37 36 36 37 39 40 39 39 39 39 39 40 36 38 37 36 36 36 36 35 33
45 45 45 44 43 42 41 43 42 41 40 40 41 41 41 40 40 40 40 38 37 36 36 35 35 35 36 37 38 38 39 39 39 36 38 37 36 35 35 34 34 33 32
45 45 44 44 42 43 41 41 40 40 39 40 40 40 40 39 39 39 38 37 37 36 34 34 34 33 33 35 37 37 37 37 36 36 36 34 33 31 31 32 32 32 31
44 43 43 43 41 41 40 40 40 39 38 38 39 39 38 38 37 37 36 38 37 36 36 36 35 36 36 37 37 37 37 36 37 33 31 29 29 28 29 29 29 29 29

GFSMW_sfc_temp_009.txt.gz
Temp
74 75 77 78 78 78 78 79 79 80 81 79 76 74 72 72 72 73 73 73 73 73 71 71 71 70 69 68 68 67 65 65 67 64 64 65 70 70 70 69 70 70 73
73 73 74 76 76 76 76 76 76 77 77 76 75 74 72 72 71 71 71 71 70 70 69 67 67 67 66 66 64 63 61 63 64 59 58 55 61 65 65 66 68 67 69
71 72 73 73 73 72 72 71 72 73 73 73 73 72 72 71 70 69 68 68 68 67 66 66 65 65 64 62 62 61 59 57 61 61 58 52 50 55 61 62 65 64 64
73 72 71 71 70 69 71 72 72 72 74 75 73 72 69 65 67 68 68 68 67 65 64 64 63 63 63 61 60 62 59 58 55 58 61 60 58 50 49 59 59 62 63
71 70 69 69 69 68 68 69 70 70 71 72 72 70 67 67 67 68 67 67 66 65 62 63 62 61 60 59 58 58 58 58 57 55 55 56 56 57 50 46 51 56 59
70 69 69 68 66 67 67 67 68 68 69 69 69 67 65 66 64 64 64 64 65 63 61 61 61 60 59 57 57 57 56 56 56 56 55 54 52 51 50 47 48 49 53
68 67 66 66 65 65 65 67 66 65 67 66 66 65 64 63 62 62 62 61 61 60 58 59 58 58 58 57 57 56 55 56 54 53 53 54 53 54 52 49 47 46 50
68 66 67 66 65 65 65 66 65 64 64 64 63 64 63 62 62 61 60 60 59 59 58 57 58 58 58 57 56 55 55 55 53 52 52 52 53 54 52 49 46 42 43
68 67 67 67 65 65 65 65 64 63 63 62 63 62 62 60 59 59 60 58 59 58 57 57 56 56 56 56 55 54 53 54 53 52 51 51 52 52 51 51 48 43 36
67 67 67 67 66 65 64 64 64 62 62 62 61 60 60 59 59 59 57 56 57 57 55 55 55 55 55 55 54 53 53 52 52 52 51 50 51 50 50 49 48 46 42
67 67 67 67 65 64 63 62 61 60 60 60 60 59 58 58 58 57 56 56 56 55 54 54 53 53 53 54 52 52 51 50 50 50 49 49 49 48 48 47 46 44 44
67 67 67 65 63 62 62 61 61 60 59 59 59 57 57 57 56 55 55 55 54 54 53 53 52 52 52 51 50 49 50 49 47 48 48 47 49 45 46 45 43 43 43
67 67 65 63 62 62 61 60 60 59 58 58 57 56 55 55 54 54 53 53 52 52 52 52 50 50 50 49 49 49 48 47 47 47 46 45 45 43 43 43 41 41 43
65 65 64 63 63 62 61 60 58 58 56 55 55 53 53 52 52 52 51 51 51 50 50 50 49 49 49 49 48 47 45 45 45 45 45 45 44 43 41 41 40 41 39
64 64 62 63 62 61 60 59 57 56 55 54 52 50 50 51 51 50 50 50 50 49 49 49 49 49 48 49 46 44 43 42 42 43 45 45 44 44 44 43 40 39 37
64 64 63 63 61 60 58 56 55 54 53 52 50 49 50 49 49 49 48 48 48 48 49 48 47 46 48 47 46 44 41 41 41 41 43 44 44 44 44 44 43 42 37
64 62 62 62 61 59 57 54 53 53 51 50 49 49 48 48 48 48 48 47 47 48 47 47 47 46 46 46 44 43 40 39 41 41 42 42 45 43 41 42 43 41 41
62 61 61 60 59 58 56 55 52 51 50 48 48 48 48 47 47 47 46 47 47 46 46 46 46 45 45 45 43 42 40 40 41 42 42 41 40 40 40 40 35 35 36
62 62 61 59 56 54 53 51 50 49 48 47 47 47 47 46 46 45 45 46 45 45 44 45 44 43 43 43 42 41 40 39 40 41 41 40 40 42 41 36 33 35 36
57 56 56 54 53 53 52 50 49 48 46 45 45 46 46 45 44 44 44 45 45 44 44 43 44 44 42 43 42 41 39 37 38 39 39 41 41 41 40 36 34 30 32
53 53 53 52 52 52 51 50 47 45 44 44 45 46 46 45 45 44 44 43 43 42 42 42 43 42 42 42 42 41 39 38 36 35 37 39 40 39 39 39 35 33 35
49 51 51 50 50 51 50 46 44 44 44 45 44 45 45 45 44 42 42 42 41 40 40 40 40 41 42 41 41 41 41 40 36 36 37 37 37 39 38 37 37 37 36
48 50 50 48 48 48 48 44 44 44 44 44 43 44 44 44 44 41 40 40 40 39 38 37 36 37 39 39 40 40 40 39 37 37 37 37 38 37 36 36 36 35 30
48 49 48 46 45 45 44 45 44 44 43 42 43 43 42 42 42 43 41 39 38 37 36 34 33 34 34 36 37 37 36 38 36 35 35 36 36 36 34 33 32 31 30
48 48 47 47 45 44 44 44 43 43 41 42 42 42 42 41 40 41 40 39 39 38 34 34 33 31 31 34 37 37 36 35 35 35 33 32 30 28 29 29 29 29 29
47 46 46 45 44 44 44 43 43 41 40 39 40 40 39 40 40 38 38 41 40 40 39 38 36 36 37 37 37 37 37 36 37 33 29 27 27 26 26 26 26 27 27

GFSMW_sfc_temp_012.txt.gz
Temp
65 66 66 66 68 68 68 68 69 70 69 67 66 64 61 61 61 62 63 62 62 62 59 58 58 57 56 55 57 54 52 52 52 50 53 52 55 57 59 61 60 61 62
62 64 65 64 65 65 65 66 67 67 67 66 64 63 61 60 60 59 60 60 60 59 60 56 55 55 54 53 52 51 49 50 51 47 47 43 49 52 56 57 58 56 58
61 62 61 61 61 60 61 63 63 64 65 65 65 63 61 59 57 57 56 58 58 58 56 55 54 53 52 50 50 49 49 46 48 50 46 40 40 47 50 53 52 56 56
63 63 62 60 58 59 60 62 63 63 64 63 61 59 56 54 55 56 56 56 57 55 56 55 53 52 51 49 49 53 48 47 45 47 53 47 45 42 41 47 52 50 54
62 61 60 60 60 59 57 59 60 61 61 61 60 57 55 55 55 55 55 55 55 54 54 53 52 50 49 48 48 47 46 47 45 45 44 45 44 45 42 39 43 48 50
61 60 60 60 57 57 57 57 58 58 59 58 57 56 54 54 53 52 51 52 52 51 52 53 50 50 49 48 47 47 46 46 45 45 44 44 42 43 42 41 42 42 46
60 58 56 55 56 55 56 57 57 56 57 56 55 54 53 52 51 50 50 50 49 48 48 49 48 48 48 48 48 46 45 45 43 43 44 45 45 46 45 43 41 40 44
59 58 57 55 55 56 56 56 55 55 55 54 53 53 53 51 50 50 49 48 48 48 49 48 48 48 49 48 47 45 44 46 42 42 42 44 45 46 45 43 40 36 39
59 58 57 56 55 55 55 55 54 54 54 53 52 51 51 50 49 49 49 48 48 53 48 47 47 47 47 47 46 44 44 43 42 41 41 43 45 45 44 43 43 38 32
59 59 58 57 56 56 55 55 54 53 53 52 51 51 49 50 49 48 47 47 48 48 47 46 46 46 46 46 44 43 44 44 43 45 43 44 44 44 44 42 41 40 36
60 59 58 57 56 54 54 53 52 52 51 51 50 49 48 49 48 47 47 47 47 46 46 46 45 45 44 45 43 42 44 43 42 42 43 42 43 43 42 42 40 39 38
60 59 57 56 53 53 52 52 52 51 50 51 49 48 48 48 46 46 46 47 45 45 45 45 44 44 44 44 42 41 42 41 40 40 40 40 44 40 41 39 38 37 38
58 58 56 54 52 52 52 51 51 49 50 50 48 47 46 45 44 45 45 45 45 44 43 44 43 43 43 42 41 43 40 39 39 39 39 39 39 38 39 38 37 38 39
59 57 55 53 52 52 52 51 49 49 49 48 47 45 43 43 43 44 44 45 43 42 42 42 42 42 43 43 43 41 39 38 39 39 38 38 39 38 38 38 38 39 37
58 57 54 53 52 51 50 50 49 48 48 46 44 43 44 44 44 44 43 43 42 42 42 41 41 41 43 46 42 41 39 37 36 37 38 39 41 44 43 41 39 37 35
58 56 55 54 52 50 49 49 47 46 47 45 43 44 44 44 43 42 41 41 40 40 40 40 40 38 44 47 47 45 39 37 36 35 37 39 41 41 43 43 43 42 36
56 55 54 53 51 49 49 46 45 46 45 44 44 44 44 43 42 41 40 39 38 38 38 38 38 37 37 45 46 45 39 36 35 36 36 38 41 39 38 40 41 37 38
56 55 53 51 50 49 47 46 45 44 44 43 44 44 43 41 40 39 38 37 37 36 36 37 37 36 39 45 45 44 37 36 36 36 36 36 36 37 38 37 35 33 35
53 52 51 49 47 46 46 45 44 43 43 43 42 43 42 39 38 37 36 36 35 35 35 36 36 35 37 43 44 42 37 36 35 37 37 37 37 40 41 36 31 33 32
50 48 48 47 46 45 45 43 42 41 40 40 40 41 40 38 36 35 34 35 35 36 37 37 36 38 36 41 43 42 38 35 35 35 35 38 39 40 39 35 34 28 30
46 46 45 44 43 45 44 42 40 38 39 40 40 40 39 37 36 35 34 34 33 33 33 34 35 34 35 36 42 41 38 36 35 32 33 35 39 38 39 39 33 32 35
45 45 43 43 44 45 42 39 37 38 39 39 39 38 37 38 39 33 32 33 32 30 31 32 33 34 34 38 38 40 40 39 34 33 34 34 37 38 38 35 36 37 35
44 45 43 42 42 42 40 36 36 38 38 37 36 36 36 36 36 33 32 31 31 30 30 31 30 30 33 33 37 38 39 38 36 34 35 36 37 36 34 34 35 34 27
43 43 41 39 38 37 38 37 37 38 37 35 34 34 33 35 34 34 33 31 29 30 30 30 29 29 30 31 32 35 35 37 34 34 31 34 34 34 32 31 30 28 28
42 42 40 38 36 37 37 37 38 37 34 33 32 33 33 32 31 32 32 31 32 33 33 31 30 29 29 32 38 37 35 34 34 34 30 28 27 26 26 26 27 27 27
41 40 38 36 36 37 37 37 37 35 33 31 31 31 30 30 30 29 31 38 39 40 39 39 37 35 38 39 39 38 37 37 36 30 26 24 24 24 24 25 25 25 25

GFSMW_sfc_temp_015.txt.gz
Temp
61 63 63 62 63 63 64 64 65 65 67 65 62 61 56 60 59 60 59 58 57 57 54 53 53 52 51 50 51 49 48 48 48 46 49 47 51 50 54 55 54 55 55
58 60 61 59 60 59 59 61 62 63 64 63 60 58 58 56 56 55 56 56 55 55 55 52 51 50 49 48 47 47 46 46 46 43 42 40 44 48 53 50 55 49 54
58 57 56 56 57 57 58 60 60 62 63 63 63 60 57 55 53 52 52 53 54 54 53 51 50 48 47 46 45 45 45 42 44 45 43 38 36 43 45 50 47 52 49
59 58 56 54 55 55 57 59 60 61 61 61 60 56 54 51 52 52 51 52 53 52 52 51 49 48 47 45 45 48 44 43 41 43 49 43 41 36 36 43 48 47 50
60 57 56 56 55 55 54 55 57 57 57 57 56 54 52 51 51 51 50 50 50 51 51 50 48 47 46 45 45 44 43 43 42 41 41 40 40 39 37 35 38 45 47
58 56 56 56 53 53 54 54 55 54 54 54 54 53 51 50 49 48 48 48 47 47 48 50 47 46 45 45 44 44 43 42 41 41 40 40 39 40 39 37 39 39 43
56 55 54 53 52 52 52 54 53 52 52 52 51 51 49 49 48 47 46 46 46 45 45 46 45 44 45 45 44 43 42 42 40 39 39 41 41 41 42 40 38 37 41
55 54 53 52 51 52 52 52 51 51 51 50 49 49 49 47 47 47 46 45 45 45 45 45 45 45 45 45 44 42 41 42 39 39 39 41 39 42 42 40 37 34 36
54 53 53 53 51 51 51 51 50 50 50 49 48 47 47 47 46 45 45 44 45 50 45 44 44 44 44 44 42 40 40 40 39 38 37 37 41 42 41 40 39 35 29
54 54 54 53 52 51 50 50 51 50 49 48 47 47 46 46 45 45 44 44 44 45 44 44 43 43 42 42 41 39 40 39 38 42 37 38 40 40 41 39 37 37 34
55 54 54 54 52 50 51 49 49 49 48 47 46 45 45 45 45 44 44 44 44 43 43 43 43 42 41 41 39 39 40 39 37 36 38 38 39 38 39 39 38 37 35
55 55 54 53 51 51 49 49 48 48 47 46 46 45 45 44 43 43 43 43 42 43 43 42 42 42 41 40 38 38 38 36 35 36 35 36 40 36 37 37 36 35 36
54 54 52 52 51 49 49 48 47 46 46 46 45 43 43 42 41 41 42 43 42 41 42 41 40 40 40 39 39 38 37 36 35 35 35 35 35 34 35 36 35 36 38
55 53 52 51 50 49 49 47 45 46 46 45 43 41 41 41 41 42 42 42 42 41 40 40 40 40 39 40 39 38 36 35 35 35 35 35 35 34 35 37 36 38 36
54 53 51 50 49 48 47 46 45 45 45 43 42 41 41 42 42 41 41 41 40 40 40 39 38 38 39 44 41 41 37 34 33 33 36 36 38 41 41 39 36 36 34
55 53 52 51 49 48 46 47 44 43 43 41 41 42 42 42 41 41 40 39 39 38 37 36 36 35 42 45 45 44 39 35 33 33 35 36 38 38 41 41 41 40 36
53 52 52 51 49 48 47 44 43 42 42 41 42 42 42 42 41 40 39 37 36 34 34 34 34 34 34 44 45 45 39 34 32 33 34 35 38 37 35 38 40 38 39
53 53 52 48 48 46 45 43 43 41 41 41 41 42 42 40 40 38 36 34 34 33 33 33 33 32 37 43 44 44 37 34 32 33 33 33 34 35 37 37 34 33 33
49 47 47 46 46 44 44 43 41 41 40 40 40 41 40 39 37 35 33 33 32 32 32 32 32 31 31 41 42 41 36 35 34 35 35 35 34 38 40 35 31 30 30
48 46 45 44 43 42 43 42 39 39 39 39 40 40 39 37 35 33 32 33 32 32 32 33 31 35 32 37 40 39 35 33 33 33 33 37 37 39 39 34 32 26 29
44 44 44 42 42 41 43 40 38 37 38 39 39 39 38 36 34 32 32 32 30 30 28 29 29 30 31 32 39 39 36 34 32 30 32 33 37 37 38 38 31 31 34
42 43 42 41 40 41 41 37 35 36 37 38 38 37 35 36 38 32 31 31 29 27 27 27 28 29 29 36 37 39 39 38 34 32 32 33 36 37 36 34 35 36 34
41 42 42 40 38 38 38 34 34 37 37 36 34 33 34 34 34 32 31 29 28 27 28 28 28 29 31 29 37 38 38 39 36 33 34 35 35 34 32 33 34 33 27
42 41 40 37 35 36 36 35 35 36 35 33 32 33 31 33 32 31 31 29 27 26 28 28 29 29 30 31 32 35 35 37 34 33 31 32 32 32 31 30 29 28 27
40 39 38 36 34 34 34 34 35 35 32 32 31 30 30 30 28 29 29 29 29 31 32 30 30 29 29 32 38 37 35 34 34 33 28 27 26 25 26 26 27 27 26
39 37 36 34 33 33 33 34 34 33 31 30 29 29 28 27 27 26 27 35 37 38 38 38 36 34 37 38 37 37 37 36 35 29 25 23 23 23 24 24 24 25 25

GFSMW_sfc_temp_018.txt.gz
Temp
59 61 61 60 60 60 61 60 62 63 64 62 59 56 58 60 59 57 56 55 54 54 52 50 50 50 48 46 48 46 45 45 44 43 44 45 46 46 51 48 47 48 51
55 58 58 57 59 58 58 58 60 60 61 61 57 57 55 57 53 53 53 53 53 53 53 49 48 48 47 46 45 44 43 43 43 41 39 38 41 45 50 45 49 45 49
56 55 54 54 54 55 56 58 59 60 60 61 60 58 57 53 50 50 50 51 52 51 50 49 47 46 45 43 43 43 42 40 42 42 41 35 33 40 42 46 43 48 44
56 55 53 53 54 54 55 57 59 60 60 61 59 58 55 51 49 49 48 49 50 50 50 49 47 46 45 43 43 46 42 41 39 40 46 41 39 34 33 39 45 42 46
57 55 55 55 54 54 54 55 56 57 56 56 56 54 50 49 48 48 47 47 47 48 49 48 46 45 44 43 42 42 41 40 39 39 38 37 37 37 33 33 35 43 45
56 53 53 54 52 52 52 53 55 53 53 54 52 51 49 48 47 45 45 45 45 45 46 47 45 44 43 42 42 41 41 40 39 38 38 37 36 37 34 35 36 36 40
53 52 52 52 51 51 50 51 52 50 51 51 50 49 48 48 47 45 44 44 44 44 44 44 43 42 42 43 42 40 39 39 37 37 37 38 37 37 37 36 35 34 38
54 53 53 52 52 51 50 50 51 48 50 49 47 47 47 45 45 45 44 44 43 43 43 43 43 42 42 42 41 39 39 40 37 36 36 36 36 37 37 36 33 30 33
53 52 52 52 51 50 49 50 49 48 48 47 47 45 45 45 44 44 43 43 43 48 43 42 42 41 41 41 40 38 38 37 37 35 35 34 36 36 37 37 35 32 26
52 51 52 52 51 50 48 48 49 48 46 46 46 45 44 44 43 43 43 43 42 43 42 42 41 40 40 40 38 37 38 37 36 38 35 34 35 36 36 35 35 35 31
51 51 52 51 49 49 48 47 47 47 45 45 44 43 43 43 43 42 42 42 42 41 41 41 40 40 39 39 37 37 37 36 35 35 34 34 35 35 35 35 34 33 33
52 51 51 50 49 48 47 47 46 46 45 44 43 43 42 42 41 41 41 41 41 41 40 40 39 39 39 38 36 35 36 35 34 34 33 33 38 33 33 33 33 33 34
50 50 50 49 49 47 46 46 45 44 44 44 42 42 41 41 40 40 41 41 40 40 40 39 38 38 38 37 36 36 35 35 34 33 32 32 33 32 32 32 32 34 37
51 50 49 48 48 47 46 45 43 45 43 43 41 40 40 39 39 40 40 40 40 39 38 38 37 37 37 37 37 36 35 34 34 34 33 32 32 32 32 34 35 36 33
50 50 49 48 47 46 45 45 44 43 43 41 40 39 39 40 40 40 40 39 38 38 37 36 37 36 37 42 39 38 35 33 32 32 33 34 37 40 40 38 36 35 32
51 50 50 48 46 46 45 45 43 42 42 40 39 40 40 40 39 39 38 38 37 36 35 35 34 33 39 43 44 43 37 34 32 31 33 34 37 36 40 40 40 39 35
51 50 49 49 48 45 45 43 42 41 40 39 40 40 40 40 39 39 37 36 34 34 33 33 32 31 31 42 43 43 38 32 31 30 32 33 37 36 33 36 39 38 38
51 50 50 47 46 44 44 42 42 40 40 39 39 40 40 39 38 36 35 33 33 33 32 31 31 30 34 41 41 41 33 31 31 31 31 31 32 33 36 35 32 32 31
51 50 49 45 43 43 43 42 40 39 39 38 39 40 39 37 36 34 33 33 32 31 30 30 29 28 29 39 40 39 33 32 31 32 31 33 32 37 39 33 30 30 30
45 44 44 43 42 42 42 41 38 37 37 38 38 38 37 36 34 32 32 32 30 30 30 29 29 33 29 36 39 38 34 31 31 32 31 36 36 39 38 34 31 25 28
42 43 43 41 40 41 41 38 36 36 38 37 37 37 36 34 33 31 30 30 29 28 27 27 27 27 29 29 38 39 35 33 32 30 31 32 37 38 38 37 29 30 33
41 42 40 38 38 39 40 37 35 35 36 36 36 34 33 35 35 31 30 30 27 26 25 25 25 28 28 35 37 39 39 39 34 32 31 32 36 36 35 33 34 35 33
40 41 39 37 36 37 38 34 32 34 35 34 32 32 33 32 31 30 29 28 26 25 25 25 25 28 31 28 36 38 39 38 35 32 35 35 34 33 31 32 33 33 26
39 39 38 36 33 34 35 34 34 35 33 31 30 30 29 30 28 28 29 27 25 24 25 27 27 27 29 30 32 34 33 35 33 34 30 32 31 31 30 29 29 27 27
37 37 36 34 32 33 33 33 33 33 31 29 29 28 29 27 27 27 27 27 27 29 29 27 28 27 28 31 36 35 34 34 34 32 28 26 25 24 25 25 26 27 26
37 35 34 33 31 32 31 32 33 31 30 29 29 27 27 26 26 25 25 33 36 37 37 37 34 32 35 37 36 37 36 35 34 27 23 22 22 22 23 23 23 24 25

GFSMW_sfc_temp_021.txt.gz
Temp
57 59 59 59 58 58 59 59 60 61 63 61 60 62 59 59 58 58 58 56 53 52 50 48 48 47 46 44 45 44 43 43 42 41 42 43 44 44 45 44 44 45 47
55 57 57 55 57 57 57 57 58 59 61 61 56 55 55 56 56 55 53 52 51 51 50 47 46 46 45 44 43 42 41 41 41 39 37 36 39 42 49 43 44 43 44
55 54 54 54 54 55 55 56 57 57 58 58 58 57 58 56 54 53 48 49 50 49 48 47 46 44 43 42 41 41 40 38 40 40 39 34 32 36 39 42 41 45 41
57 55 53 52 53 54 54 55 57 57 58 59 58 58 56 52 50 47 46 47 48 48 48 47 45 44 43 42 42 43 40 39 37 39 44 39 37 33 31 37 43 39 44
57 54 54 55 53 52 53 54 56 56 55 56 57 55 51 50 46 46 45 45 46 47 47 46 44 43 42 41 41 40 39 38 37 36 36 35 36 35 31 32 33 41 42
56 54 52 52 51 51 51 53 55 52 53 53 52 53 50 48 46 43 43 43 43 44 45 45 43 42 42 41 40 39 39 38 37 36 35 35 34 33 31 31 33 33 38
52 50 51 51 50 50 50 52 54 50 50 50 49 49 48 48 46 44 43 43 43 42 42 43 42 41 41 41 40 39 38 37 36 35 35 35 34 35 34 33 32 31 35
53 53 53 52 51 51 50 51 51 49 49 48 46 46 46 45 44 44 43 43 42 42 42 42 41 41 41 40 39 37 37 37 35 34 34 34 34 35 34 33 30 27 30
52 53 52 51 51 49 48 50 49 47 47 46 45 44 44 44 43 42 42 42 42 45 41 41 40 40 40 39 38 36 36 35 35 34 33 33 34 34 33 33 32 29 24
52 52 51 50 50 48 46 47 49 47 45 45 45 44 43 43 42 42 41 41 41 41 41 40 39 39 38 38 37 35 36 35 35 36 33 32 33 33 32 31 32 32 28
51 50 51 50 48 47 47 45 46 46 45 45 43 42 41 42 41 41 41 41 40 40 40 39 39 38 37 37 35 35 36 35 34 33 33 32 33 31 33 32 32 31 30
50 51 49 47 47 47 45 45 44 45 44 43 42 41 41 41 40 40 40 40 39 39 39 38 38 37 37 36 35 34 34 33 32 33 32 31 37 31 31 31 30 31 32
48 48 47 47 46 45 44 44 44 43 43 43 42 40 40 39 39 39 39 39 39 38 38 37 36 36 36 35 35 34 34 33 33 32 31 31 31 30 31 31 31 31 35
48 48 47 46 45 45 45 43 42 43 42 42 40 39 39 38 38 38 38 39 38 37 36 35 35 35 35 35 35 35 33 32 33 33 32 31 31 30 30 33 33 34 32
47 47 46 45 44 43 43 43 42 42 42 41 39 38 38 38 38 38 38 37 36 35 35 34 34 33 35 40 37 36 34 32 31 31 31 33 35 39 39 37 34 33 32
48 48 47 45 44 43 43 43 41 41 42 40 38 38 38 38 38 37 36 36 34 34 33 32 32 31 37 41 43 41 34 31 30 30 31 31 35 35 39 39 39 39 34
48 48 47 46 45 44 44 42 41 40 39 39 38 38 38 38 37 36 35 34 32 31 31 31 30 30 29 41 42 42 34 30 29 29 31 31 35 35 32 35 38 37 36
49 48 47 45 44 44 43 41 41 40 39 37 38 38 38 37 36 34 33 31 31 31 30 30 29 28 32 40 41 41 31 29 29 30 30 29 30 31 35 34 31 30 31
49 48 47 44 43 42 42 41 39 38 38 37 37 38 38 35 34 32 31 31 30 30 29 28 28 27 27 38 39 38 31 30 29 30 31 31 32 36 39 33 30 30 30
46 43 43 42 41 40 42 40 37 37 36 36 37 36 35 34 32 31 30 30 29 29 28 29 27 31 27 35 39 38 33 31 32 31 32 36 36 38 38 34 30 25 27
41 42 42 41 39 41 41 37 36 35 36 36 35 34 34 32 31 30 29 29 27 26 25 26 25 26 28 28 38 39 35 33 33 31 31 32 36 38 37 36 29 29 33
39 40 39 37 38 40 40 36 35 34 35 35 33 32 31 34 33 30 29 29 26 24 24 24 25 27 26 34 36 38 39 39 32 31 31 31 36 36 35 32 34 35 33
38 39 38 36 35 36 39 35 32 33 33 32 30 30 30 30 30 29 28 27 24 23 23 23 24 27 30 28 36 37 38 38 35 32 34 35 34 33 30 31 33 32 26
37 38 38 35 32 33 34 33 32 33 32 29 28 28 29 27 27 28 29 26 24 23 24 25 26 25 28 28 30 32 31 35 33 33 28 31 31 30 29 28 28 26 26
36 37 36 34 31 31 31 31 32 31 29 28 29 27 27 26 26 26 25 26 26 27 27 26 27 26 26 30 35 35 33 33 33 32 27 25 24 23 24 25 25 26 26
35 34 32 31 29 30 30 30 31 30 29 28 28 27 26 24 25 24 24 33 35 36 36 36 34 32 35 36 36 36 36 35 33 27 22 21 21 21 22 22 22 23 23

GFSMW_sfc_temp_024.txt.gz
Temp
61 59 59 58 58 57 57 57 58 60 62 60 59 59 58 58 58 58 58 57 55 51 48 47 46 46 45 43 44 42 41 41 40 40 41 41 42 42 43 43 42 43 44
54 57 56 55 56 57 56 56 57 59 61 62 55 55 57 57 56 55 55 54 52 49 49 46 45 45 44 42 41 41 40 39 39 37 35 35 39 41 47 41 43 40 42
56 55 54 54 54 55 54 55 55 56 57 57 57 54 56 55 53 53 52 51 48 48 47 46 44 43 42 41 40 40 39 38 38 38 37 33 31 33 38 40 39 40 40
54 56 54 52 53 54 54 53 55 55 56 58 57 57 55 55 54 52 50 46 46 46 46 45 44 43 42 41 41 42 38 38 36 37 42 37 35 31 30 36 40 37 42
57 55 54 57 53 53 52 52 53 54 54 56 58 56 53 52 51 49 47 43 44 45 45 44 43 42 41 40 40 38 37 37 36 35 35 33 34 32 29 30 32 39 40
54 56 54 52 51 51 50 51 53 51 52 54 52 56 54 51 49 46 43 42 42 42 43 44 42 41 40 40 39 38 37 36 36 35 34 33 32 31 29 28 32 32 35
51 50 50 51 50 50 50 52 53 49 50 53 55 55 53 51 47 44 43 42 41 41 41 41 41 40 40 39 39 37 36 36 34 33 33 34 33 33 32 30 30 29 33
49 51 52 53 51 51 51 53 52 49 50 51 48 47 48 46 45 43 42 41 41 40 40 40 40 40 40 39 37 36 36 36 34 33 33 33 33 33 32 30 29 26 27
48 50 52 53 51 50 51 51 50 47 47 46 46 45 45 45 43 41 41 40 40 43 40 40 39 39 39 38 37 35 35 34 33 33 32 32 33 32 32 31 30 28 23
48 49 51 50 50 50 48 49 50 48 45 44 45 44 43 43 41 41 40 40 40 40 39 39 38 38 37 37 35 34 34 33 33 35 32 31 31 31 31 30 30 29 27
49 49 49 48 47 47 48 46 48 45 44 44 43 43 41 41 40 40 39 39 39 39 38 38 38 37 36 35 34 33 34 33 33 32 32 32 32 30 30 30 30 29 29
49 48 47 46 47 45 46 46 47 44 43 43 42 41 41 40 39 38 38 39 38 38 37 37 36 36 35 34 33 32 33 32 31 31 31 30 36 30 30 30 29 29 30
45 44 45 46 45 45 44 46 45 42 42 42 41 40 38 38 37 37 38 38 37 36 36 36 35 34 34 33 33 33 32 32 31 30 30 29 29 28 29 29 29 30 33
45 45 45 45 44 44 43 43 41 42 41 41 40 38 37 37 37 37 37 37 36 35 35 34 34 33 33 34 34 34 32 31 31 31 30 30 29 29 29 30 31 34 31
45 45 44 43 42 42 41 42 41 41 41 40 39 37 36 36 36 36 36 36 36 35 34 33 33 32 33 38 35 35 32 30 29 29 30 31 33 38 38 36 33 33 31
47 46 45 43 42 42 41 42 40 40 41 39 37 37 37 36 36 35 35 35 34 33 32 31 31 30 36 40 42 41 32 31 30 28 30 30 34 33 39 38 39 38 33
47 46 44 44 43 42 42 41 40 39 39 38 37 37 37 36 35 35 35 34 32 31 30 29 29 28 28 40 41 42 33 30 28 28 29 31 35 34 30 34 37 36 37
47 47 45 43 42 42 41 39 40 39 38 37 37 37 36 35 35 34 33 32 30 29 28 28 28 27 30 39 40 40 31 29 28 29 28 28 29 30 34 34 31 30 31
49 47 46 43 42 41 41 40 38 37 37 36 36 36 35 34 34 32 31 29 28 28 27 27 27 25 26 37 39 38 30 29 29 30 29 28 31 36 39 33 29 30 29
46 44 42 42 40 40 41 39 37 37 35 35 35 35 35 34 32 30 29 28 27 27 27 28 26 30 25 34 38 38 32 27 31 30 31 36 35 38 37 34 30 25 27
41 42 42 40 39 41 41 37 36 35 35 35 34 34 33 31 29 28 27 27 26 25 24 25 24 25 27 27 37 38 34 31 32 31 31 31 36 38 37 36 29 28 33
39 40 39 38 39 40 40 36 34 33 35 34 33 31 30 34 32 29 28 27 24 23 23 23 24 27 25 33 35 38 38 38 32 31 31 31 36 35 35 32 33 35 33
37 38 37 36 35 37 40 34 31 34 33 31 29 29 29 29 29 29 27 25 23 22 22 23 23 26 30 27 35 37 37 37 34 33 34 35 34 33 30 31 32 32 25
36 38 37 35 32 34 35 34 33 33 31 28 27 27 27 26 26 27 28 25 23 22 23 24 25 24 27 27 29 30 30 35 33 33 29 31 30 30 29 27 27 26 25
37 38 36 33 31 33 32 32 31 31 29 27 27 26 26 25 25 25 24 25 24 25 25 25 26 25 25 29 35 34 33 32 33 32 26 24 23 22 23 24 24 25 25
35 33 32 31 30 31 29 29 30 30 28 27 27 26 25 23 24 23 23 32 34 36 36 35 33 31 34 35 35 36 36 35 33 26 21 20 21 20 21 21 21 22 23

GFSMW_sfc_temp_027.txt.gz
Temp
65 67 67 68 67 66 66 66 66 66 67 65 64 62 61 60 57 59 59 58 57 55 55 57 56 56 55 55 56 55 53 52 53 54 55 56 55 56 57 57 56 55 54
62 64 64 65 65 66 65 64 65 65 67 67 64 60 59 60 58 56 56 56 56 54 56 56 55 54 54 53 53 53 52 51 50 50 49 48 54 56 57 55 54 54 54
61 63 63 63 63 63 62 62 62 63 64 60 59 56 57 56 55 54 52 53 54 53 55 54 54 53 53 51 50 51 50 49 49 49 51 47 45 45 52 53 53 53 52
61 63 63 62 61 62 61 61 61 61 61 61 61 58 58 57 56 53 51 52 53 53 54 53 53 52 51 51 50 50 49 50 47 49 49 50 48 43 42 49 51 50 49
59 61 62 62 63 60 59 59 60 60 60 62 62 59 57 56 53 52 50 49 52 53 52 53 51 51 50 49 49 48 48 48 48 47 46 46 46 45 41 39 43 47 48
58 61 62 62 59 58 57 57 58 58 59 60 61 59 54 52 50 49 48 50 50 50 51 50 50 50 49 49 48 47 47 47 46 46 45 45 43 43 41 39 40 40 44
58 57 55 56 56 55 55 56 57 55 57 58 60 59 55 55 52 50 49 49 49 49 49 49 49 49 48 47 47 47 46 46 46 44 45 45 43 43 42 40 38 37 41
56 55 56 56 57 56 55 57 56 54 57 58 58 56 55 53 51 51 50 51 50 49 49 48 48 48 48 47 47 46 46 45 45 43 43 43 43 43 42 40 37 34 38
54 54 55 56 56 55 55 56 55 54 56 55 52 51 50 51 50 50 50 49 49 48 48 48 47 47 46 46 45 46 45 44 44 43 42 42 43 43 42 41 40 35 30
53 53 54 55 55 56 55 55 55 53 53 51 51 50 50 50 49 49 48 48 48 47 47 46 46 46 45 45 44 44 43 43 44 44 42 42 42 41 41 40 40 38 34
53 53 54 54 53 52 53 53 52 50 50 50 48 49 48 48 49 48 47 47 47 47 46 46 45 45 44 43 44 43 42 41 41 42 41 39 40 40 40 40 39 37 37
50 51 49 48 50 50 50 51 51 50 49 49 48 47 47 47 46 46 46 47 45 46 45 44 44 43 42 42 42 41 41 40 39 39 38 38 40 38 39 38 37 36 37
45 45 47 48 48 49 49 50 50 47 46 48 47 46 45 45 45 45 45 45 44 43 43 43 42 41 41 41 41 41 41 40 39 38 37 37 37 36 37 37 36 36 37
44 45 46 46 47 48 48 48 46 46 46 47 46 44 44 44 44 43 43 43 43 42 42 41 40 40 40 40 41 41 41 39 39 38 38 37 37 36 36 36 36 36 36
45 45 44 44 45 45 47 47 45 45 46 45 44 42 42 42 42 42 41 41 42 41 40 40 39 39 40 42 42 42 40 39 38 38 38 38 38 39 39 38 37 37 35
46 45 44 44 44 44 45 45 43 44 45 43 41 41 41 41 40 40 40 40 39 39 39 38 37 37 39 40 42 42 41 39 37 36 38 38 37 37 38 39 39 38 35
47 45 44 45 44 45 45 44 44 44 43 41 41 41 41 40 39 39 39 38 38 38 37 37 36 35 36 39 41 42 40 38 37 37 36 36 37 37 36 37 38 38 37
47 46 46 44 44 45 44 43 43 42 41 41 40 40 40 39 38 39 38 37 37 37 36 35 35 34 36 38 40 40 39 37 37 37 36 35 35 36 36 37 33 34 36
48 47 46 45 44 44 43 42 41 41 41 40 40 40 39 38 38 37 36 36 36 35 34 34 33 33 34 36 38 39 38 37 36 37 37 36 36 37 39 35 32 34 34
46 44 44 44 43 43 44 42 40 40 39 39 39 39 39 38 37 36 35 34 34 34 34 34 33 33 33 35 38 39 37 35 35 37 37 37 37 38 38 36 34 29 31
43 44 44 44 42 43 43 40 40 38 38 38 38 38 37 36 35 34 34 33 33 33 32 32 33 33 33 34 37 38 37 36 35 34 35 36 37 37 37 36 33 31 34
40 41 41 40 42 44 43 40 36 37 38 37 36 35 35 37 35 34 33 32 31 31 30 30 32 33 33 34 36 37 38 38 35 34 35 35 37 35 35 33 33 35 34
38 40 39 38 39 42 41 36 34 37 36 35 33 33 34 34 34 34 32 32 30 30 30 30 30 31 34 33 35 36 37 37 36 36 36 35 34 33 31 31 32 31 28
37 39 38 36 35 37 37 36 36 36 35 32 32 32 32 31 31 32 33 31 30 29 30 30 30 30 31 32 34 35 36 36 35 35 33 32 31 30 30 29 29 29 28
37 38 36 34 33 35 35 35 35 35 32 31 31 31 31 30 30 31 31 31 31 31 32 31 31 30 30 32 36 35 35 35 35 34 30 27 26 25 26 26 27 27 27
35 34 34 33 33 33 32 32 33 34 32 31 31 30 30 29 30 29 30 33 35 35 35 35 34 34 34 35 35 35 36 35 33 29 25 23 24 23 23 23 24 25 25

GFSMW_sfc_temp_030.txt.gz
Temp
75 77 79 81 81 82 81 82 81 80 80 78 77 74 70 68 69 65 67 64 67 63 60 67 67 67 65 64 65 63 61 60 61 62 65 65 64 64 64 65 65 62 61
74 76 77 79 79 80 81 81 80 79 79 78 76 75 71 65 63 60 65 64 58 58 60 66 65 64 63 62 62 62 60 59 59 58 58 58 62 64 63 63 63 63 62
70 73 76 77 78 78 79 78 78 77 77 76 74 68 63 58 56 56 55 57 57 60 64 61 64 63 63 60 59 59 59 58 58 57 58 55 54 55 61 60 60 60 59
70 71 73 76 78 78 77 76 76 74 74 72 68 66 65 57 62 61 54 55 56 55 59 62 63 62 61 59 58 59 58 59 55 57 57 57 55 50 50 58 58 59 56
70 71 71 72 76 77 74 73 73 73 71 70 71 69 65 65 62 58 56 54 56 61 61 62 61 60 60 59 58 56 57 57 58 55 54 54 53 53 48 46 52 55 57
70 71 72 73 73 74 71 71 70 70 69 70 70 69 65 59 57 55 50 50 54 60 61 60 60 60 58 57 56 55 54 56 55 55 53 52 50 50 49 47 48 48 52
69 69 70 70 70 71 68 68 69 67 68 69 69 67 61 59 60 58 51 53 55 59 58 59 59 58 56 55 56 55 54 54 54 52 52 52 51 51 49 47 45 45 49
67 68 69 69 69 68 68 68 68 66 67 68 67 62 59 62 59 53 52 56 58 59 59 59 58 57 56 55 55 55 55 54 53 50 50 50 50 50 49 46 43 40 44
64 65 69 69 70 69 68 68 67 66 66 67 64 60 57 55 51 53 57 54 58 57 58 57 56 56 55 54 54 56 54 52 52 50 49 49 49 49 49 47 46 41 36
63 64 66 68 69 69 68 68 68 65 66 66 65 59 55 51 52 53 52 56 57 57 56 56 55 54 54 53 53 53 52 51 51 50 49 48 49 48 48 47 46 44 40
60 61 64 67 67 68 66 65 65 64 63 62 60 57 52 51 53 55 55 57 57 56 55 55 54 53 52 52 52 51 50 48 48 48 47 46 46 46 46 46 45 43 42
57 59 61 63 63 63 63 63 62 62 60 58 57 52 52 53 56 54 57 57 56 56 55 54 53 52 51 51 50 49 49 47 46 46 45 44 45 43 44 44 42 42 42
56 56 56 58 60 61 61 61 61 58 56 55 52 51 52 55 56 55 55 55 54 53 53 52 51 49 48 49 49 48 47 47 46 45 44 43 43 42 42 42 41 41 42
55 54 54 56 58 60 59 59 54 52 52 51 51 51 55 55 54 53 53 53 53 51 50 50 49 47 48 47 47 47 47 47 46 45 44 43 42 41 41 41 41 41 39
53 50 53 55 56 55 54 52 49 49 51 50 50 53 53 53 52 51 51 51 50 50 49 48 47 47 47 47 46 47 46 45 45 45 44 44 42 40 40 40 40 39 38
55 50 52 53 52 51 49 48 47 47 49 49 48 50 50 49 49 49 49 48 47 47 47 46 44 44 45 40 42 43 45 45 43 42 43 43 42 41 41 40 40 39 35
54 52 52 52 50 49 48 46 46 48 48 48 49 48 48 47 47 48 48 46 46 46 45 44 44 44 44 40 41 42 44 43 43 42 42 41 42 41 40 40 40 39 39
55 52 53 49 48 49 48 47 49 48 49 46 47 47 47 46 47 47 46 46 46 45 45 44 43 43 43 38 40 40 43 43 42 42 42 41 40 40 39 39 35 36 40
55 54 53 48 49 49 49 50 49 49 47 47 46 47 47 46 46 45 45 45 45 44 44 43 42 41 43 38 38 40 42 42 42 42 42 41 40 40 40 36 34 37 38
53 52 52 52 52 51 52 50 49 47 46 46 46 47 47 47 46 45 44 43 44 43 43 42 42 39 41 39 38 39 41 40 40 41 42 40 40 39 39 37 36 33 35
48 49 51 50 49 50 51 48 47 45 46 46 46 46 46 46 45 43 43 42 42 42 42 41 42 41 40 40 38 38 39 39 38 38 39 40 39 39 38 37 35 34 35
45 47 46 44 47 49 49 47 43 44 45 44 44 43 43 42 42 41 41 41 42 41 41 40 41 42 41 39 38 38 38 39 37 37 39 39 38 37 36 35 35 35 35
46 48 47 46 48 50 48 42 42 44 43 43 42 42 42 42 42 41 40 41 41 40 39 39 38 39 40 40 38 38 38 39 38 38 38 37 36 35 34 34 33 33 33
43 45 45 44 44 46 43 41 42 43 43 42 41 42 41 41 41 41 41 40 40 39 38 37 36 37 37 38 39 38 39 39 38 37 37 36 34 34 33 33 33 33 32
43 44 43 42 41 43 42 42 43 44 42 42 41 41 41 40 39 39 40 40 40 37 36 37 36 35 34 36 36 36 36 37 36 35 34 33 32 30 31 31 31 32 31
42 41 41 40 41 41 40 42 44 44 42 40 40 40 40 39 39 39 39 35 35 35 35 35 35 36 36 36 35 35 36 35 35 31 30 29 29 28 28 27 28 29 29

GFSMW_sfc_temp_033.txt.gz
Temp
79 81 81 83 85 87 86 87 86 85 85 83 82 82 76 70 70 74 74 73 71 69 68 67 66 70 68 67 67 65 63 60 61 61 62 63 63 63 64 64 64 64 62
76 78 80 81 81 83 84 85 85 85 84 84 83 82 73 68 70 69 69 70 68 66 66 66 62 66 65 64 64 64 60 59 59 56 57 56 60 62 63 64 62 62 62
73 76 78 80 80 81 82 83 84 84 83 83 82 78 67 63 60 59 59 59 62 64 65 65 66 65 65 61 61 60 60 58 58 58 57 53 52 54 61 61 61 60 60
73 74 76 79 81 80 80 81 83 82 81 81 77 72 65 60 60 56 56 57 60 59 62 60 62 63 63 61 59 61 59 59 55 57 58 57 55 49 48 58 58 60 57
74 74 74 75 78 79 78 79 80 81 79 78 76 70 67 66 61 56 53 57 57 59 61 60 61 62 62 61 59 58 58 57 57 55 54 55 54 54 48 45 50 55 57
73 74 76 76 76 76 76 77 77 77 77 76 72 70 70 65 59 54 54 56 57 60 62 61 62 62 60 58 57 57 56 56 55 55 54 52 50 50 49 47 47 47 51
70 71 72 73 74 73 74 75 74 74 75 72 72 72 69 63 60 57 56 54 56 57 59 61 60 59 58 57 57 56 55 55 53 52 52 53 52 52 49 47 45 43 47
69 69 70 73 73 73 74 74 73 73 72 72 72 73 67 63 60 58 58 56 56 57 58 60 60 58 58 57 57 55 55 54 53 51 51 50 51 51 50 46 42 39 42
66 67 69 71 73 74 73 72 72 72 71 71 72 69 64 61 60 61 59 57 58 59 59 59 58 57 57 57 56 55 54 53 53 51 50 49 50 50 49 47 45 40 35
65 65 67 69 73 74 74 73 73 71 70 71 69 65 62 58 57 58 56 54 56 59 57 57 57 56 56 55 54 53 53 51 52 51 49 49 49 48 48 46 46 44 40
63 64 65 69 71 73 73 72 72 69 69 68 64 60 57 56 54 55 52 57 56 55 57 57 56 55 54 54 53 52 52 50 50 50 48 47 47 46 46 45 44 42 41
63 63 62 66 68 70 70 70 69 68 68 66 61 56 54 53 55 53 56 55 54 57 57 56 55 54 53 53 52 51 51 49 48 48 46 45 47 44 44 43 42 41 42
61 62 61 62 64 66 66 67 67 66 65 61 58 54 52 53 53 52 57 54 55 55 55 54 53 52 51 50 50 50 49 49 48 47 45 44 44 42 42 42 41 41 42
61 59 58 60 62 63 64 64 63 62 60 58 55 52 52 53 52 54 53 53 55 53 53 52 51 50 49 49 48 48 48 48 48 47 46 44 43 41 40 39 39 40 38
59 56 57 58 58 60 61 60 58 57 56 55 53 52 53 53 52 53 53 53 52 51 51 50 49 48 48 48 45 46 46 46 46 46 46 45 44 43 42 40 39 38 36
59 56 54 56 57 58 56 54 52 53 53 52 51 51 50 50 50 50 50 48 49 49 49 48 46 44 47 41 42 43 43 44 44 43 44 44 43 43 43 42 42 41 36
56 55 53 54 54 51 50 49 50 49 47 46 47 47 47 46 45 48 48 48 47 48 47 46 46 45 45 41 41 42 42 42 43 42 42 42 43 42 41 41 42 40 40
53 55 54 52 50 49 48 48 47 45 44 43 43 45 47 45 48 48 47 47 47 47 46 45 44 44 44 39 40 41 41 43 43 43 42 41 40 41 40 39 35 35 37
56 55 54 49 48 46 47 46 44 44 43 41 41 45 47 47 46 46 46 47 46 45 44 44 43 43 44 40 39 39 40 41 41 43 42 41 40 42 41 37 34 35 35
55 50 48 47 46 46 45 43 42 42 41 44 48 49 49 48 47 46 45 46 46 44 44 42 43 42 41 42 40 39 39 38 39 40 41 42 41 42 41 37 34 31 33
47 48 47 45 43 43 43 42 44 43 46 49 49 48 47 47 45 44 44 44 44 43 43 42 44 43 42 41 40 39 38 37 37 36 37 39 41 40 40 39 34 33 35
49 50 50 50 53 53 52 49 45 46 46 46 45 44 44 45 44 42 42 42 43 42 42 42 42 43 43 42 41 39 39 39 36 36 38 38 39 39 38 36 36 36 36
45 48 47 47 49 49 47 43 44 45 43 42 42 42 43 43 43 41 40 41 42 41 40 40 39 39 40 40 41 40 40 40 38 38 38 38 38 37 35 36 36 36 32
48 49 49 48 45 44 43 41 42 43 42 42 42 42 41 42 42 42 41 41 41 40 39 38 37 37 37 38 38 37 37 38 37 37 35 36 36 36 35 34 33 33 32
47 48 46 44 42 42 41 42 43 44 43 42 42 42 42 42 40 41 40 40 40 37 35 35 35 33 33 35 36 36 35 35 36 35 32 31 31 30 30 30 30 30 30
45 43 43 42 41 41 41 43 46 45 43 41 41 41 41 41 40 39 39 36 36 36 36 35 34 34 36 36 35 35 36 36 36 31 29 28 28 27 27 27 27 27 27

GFSMW_sfc_temp_036.txt.gz
Temp
70 71 72 72 72 74 74 78 74 73 74 71 75 75 73 69 70 70 71 68 66 63 60 59 60 59 57 56 56 54 52 49 50 49 50 51 52 52 52 53 52 52 53
67 71 71 70 71 70 72 73 74 76 77 76 73 72 64 63 62 65 65 63 61 60 60 58 58 58 59 58 54 53 50 49 48 46 45 44 48 50 53 51 54 51 51
65 68 69 70 70 72 72 72 73 73 76 73 72 64 60 57 56 59 57 58 58 58 58 57 58 58 56 54 53 52 51 47 47 48 46 42 40 42 48 49 49 50 48
66 67 68 67 69 71 74 71 71 72 71 71 71 65 64 58 53 53 55 56 58 58 57 57 57 56 54 52 51 53 50 48 45 46 52 46 44 39 37 44 46 48 49
62 63 63 66 67 66 66 73 71 70 70 74 71 64 58 56 54 54 53 55 55 58 59 58 58 57 54 53 51 50 49 48 46 45 44 44 43 43 38 35 39 43 45
60 62 64 64 63 64 63 64 68 68 68 70 68 62 58 54 51 51 51 51 52 55 57 58 57 56 53 50 49 48 48 46 46 45 44 43 41 39 38 35 36 37 41
58 60 59 60 61 62 62 63 65 65 66 66 64 62 61 55 51 51 51 52 53 53 55 54 54 52 52 50 49 47 47 46 44 43 43 43 43 43 41 38 35 34 37
58 57 59 60 60 61 62 62 64 64 65 64 63 63 58 55 53 53 53 53 53 54 56 54 53 54 50 49 48 47 46 45 43 43 42 42 42 42 41 38 34 33 32
57 57 59 59 60 60 61 62 62 63 63 63 63 61 58 56 54 53 55 54 54 56 55 54 50 52 49 49 48 46 45 45 44 42 41 41 41 41 40 39 37 32 30
56 56 57 58 62 61 61 62 63 62 62 63 62 60 56 55 54 56 53 55 55 57 55 50 50 48 48 48 47 46 46 44 42 43 41 40 40 39 38 37 37 35 31
55 56 56 56 60 60 60 60 61 61 63 60 60 53 52 54 56 55 56 55 55 55 52 53 48 47 47 47 46 45 45 43 42 42 41 40 40 37 36 36 35 34 32
57 56 55 56 56 58 59 59 61 64 59 58 53 50 51 54 53 54 53 54 53 54 52 53 51 49 47 46 45 45 44 43 41 41 40 39 44 36 36 34 33 33 33
55 54 54 54 54 57 60 63 64 62 58 52 50 49 51 51 52 51 53 53 52 52 52 51 48 48 46 45 45 44 44 43 42 40 39 38 37 34 33 33 32 32 37
57 53 52 51 53 59 57 59 57 57 53 50 49 49 49 51 52 52 53 52 51 51 47 48 47 45 46 45 44 44 43 42 42 41 39 38 37 35 33 34 32 34 31
52 51 51 49 52 56 55 55 54 52 50 48 49 50 51 52 51 50 50 50 49 48 48 45 45 45 45 46 41 41 40 39 39 39 39 39 40 44 42 39 32 32 30
54 50 51 49 52 52 51 51 48 48 49 48 48 50 49 49 48 47 46 45 45 45 44 43 42 40 45 43 43 42 38 38 37 35 36 37 41 40 44 43 43 41 35
49 51 52 53 50 49 49 46 46 47 49 48 48 48 47 46 45 45 45 44 43 43 42 40 42 41 40 42 42 42 38 35 34 34 35 36 41 39 35 39 42 40 41
49 51 51 48 47 48 48 47 47 47 45 44 43 43 41 40 42 43 41 41 41 41 40 40 41 41 42 42 41 41 35 34 34 35 35 33 33 34 37 35 27 30 31
53 51 48 46 46 46 46 44 43 42 41 39 38 38 39 38 39 41 41 40 41 40 40 41 39 39 36 40 40 38 33 33 32 35 35 35 33 40 42 35 29 31 31
47 46 45 46 44 44 44 41 41 40 38 38 38 39 39 40 41 40 39 40 40 40 40 39 37 40 34 42 41 38 33 29 30 32 33 39 39 41 42 36 34 29 29
45 46 44 42 42 42 42 39 39 37 39 39 40 41 43 40 41 39 40 40 39 38 36 35 35 35 36 35 42 41 34 31 31 30 30 32 40 40 40 40 33 31 34
41 41 39 39 41 42 41 37 36 38 39 41 41 41 41 43 41 38 37 36 35 34 33 33 33 33 34 41 40 42 40 39 31 30 30 31 39 39 39 37 37 38 37
42 41 40 39 40 41 39 36 38 41 40 40 40 40 40 39 37 34 33 33 34 32 31 30 29 30 32 31 40 40 39 38 34 33 36 38 37 37 34 36 37 36 28
44 45 43 41 39 41 41 40 41 42 41 40 39 36 35 35 35 35 33 32 31 31 30 29 28 27 28 29 29 31 29 34 33 34 29 34 34 35 34 31 30 28 28
43 42 39 37 37 40 40 42 42 42 40 37 35 34 35 33 31 31 31 30 30 31 28 27 27 25 24 29 35 34 32 31 34 35 28 26 26 25 26 27 27 27 27
40 39 37 37 39 40 41 42 43 41 38 34 32 32 31 31 30 29 29 38 37 37 36 36 32 30 34 36 36 35 36 37 36 29 24 22 23 23 24 24 24 25 25

GFSMW_sfc_temp_039.txt.gz
Temp
66 65 66 67 66 67 67 70 68 76 77 73 71 70 65 71 70 71 71 66 65 63 61 59 57 56 56 54 53 50 50 47 47 48 48 48 49 50 50 50 50 51 51
61 63 64 64 65 67 66 66 68 72 75 75 75 68 63 63 66 67 66 67 62 61 61 59 56 56 54 53 53 54 51 47 46 46 44 43 47 48 50 48 51 48 49
61 61 60 62 62 63 65 67 67 68 72 71 63 58 58 57 57 58 60 60 60 58 57 57 56 54 53 52 51 51 50 48 47 46 46 42 41 40 45 46 46 47 45
59 59 60 60 60 61 63 67 67 67 69 68 65 62 63 61 56 53 53 55 56 55 58 54 54 52 52 54 52 51 49 48 46 46 49 44 43 40 39 43 43 44 46
59 61 59 61 64 62 62 63 68 66 67 70 67 66 62 56 53 52 52 52 54 57 58 56 58 56 54 50 52 49 49 48 47 45 43 42 41 40 37 35 38 41 43
55 57 58 58 58 58 58 59 63 64 64 69 64 66 56 52 52 51 50 51 51 55 57 58 57 55 54 52 51 49 47 46 45 44 43 42 40 38 37 34 34 35 38
56 55 55 56 57 56 58 58 59 62 62 63 63 60 57 55 54 52 50 50 51 53 55 55 54 52 52 51 50 47 46 45 44 43 42 42 41 41 39 36 34 33 35
53 55 54 55 56 57 57 57 58 60 61 60 60 59 55 53 53 52 50 51 53 55 55 54 54 53 53 51 47 48 43 43 42 41 41 41 41 41 40 37 34 29 30
51 53 53 54 55 55 55 56 57 59 59 60 60 56 54 52 51 50 51 50 52 54 54 54 52 52 51 50 49 44 43 42 41 41 40 40 40 39 38 37 35 31 26
50 52 53 54 55 54 55 55 56 58 58 59 57 55 52 52 51 51 50 52 54 56 54 52 51 51 50 49 47 43 43 42 40 41 40 39 38 38 37 35 35 33 29
52 53 53 54 54 54 53 55 55 56 55 55 55 52 51 51 51 51 52 54 55 54 53 52 51 50 48 47 45 42 42 42 41 41 40 39 38 36 35 34 34 32 30
53 52 52 53 53 53 55 55 55 55 54 54 53 51 51 51 51 52 53 55 53 53 52 52 50 50 48 47 46 46 42 41 41 40 39 39 42 36 35 33 32 31 30
53 50 51 51 51 53 55 55 53 51 52 51 52 52 51 52 51 51 53 53 52 52 52 51 49 48 47 44 45 45 43 43 41 40 39 39 37 35 32 32 30 30 35
55 49 49 51 52 53 51 52 51 51 50 51 51 50 50 50 52 52 52 52 51 50 49 48 47 46 46 46 45 44 42 40 42 41 40 38 36 34 32 32 31 33 29
52 49 48 48 48 48 49 49 49 49 50 49 48 47 50 50 51 50 49 49 48 46 45 43 42 44 44 45 42 42 40 39 39 39 38 38 39 44 42 38 31 30 28
48 47 47 46 44 43 47 48 47 48 49 48 47 49 48 49 47 46 45 43 42 41 41 40 41 41 45 45 44 41 38 38 37 35 35 35 39 39 43 43 43 41 32
45 47 45 44 45 47 48 46 47 48 47 46 48 46 46 44 43 43 42 39 38 37 36 37 39 40 40 44 43 42 37 35 33 32 32 34 39 37 33 37 42 40 41
45 46 44 43 43 46 46 47 47 45 45 43 43 43 42 40 40 39 37 37 38 37 37 40 40 39 41 43 42 41 33 31 32 32 32 31 31 32 36 33 29 31 30
47 44 44 44 45 44 44 43 41 41 41 40 39 40 39 38 37 37 36 36 35 38 39 39 39 36 36 42 41 37 32 31 30 32 32 33 31 38 41 35 28 29 29
44 44 44 44 43 42 43 41 39 39 37 38 38 39 39 37 36 36 36 39 38 38 40 39 36 39 33 42 42 38 32 28 30 30 31 37 37 40 41 36 32 28 28
43 43 42 41 40 41 41 38 38 35 38 38 38 38 37 36 38 38 39 38 39 38 35 34 32 33 34 33 42 42 32 31 30 29 29 30 38 39 40 40 31 31 35
40 41 40 39 40 41 39 36 34 37 37 37 36 37 37 41 39 37 36 35 33 31 30 30 30 30 30 39 39 42 41 39 30 29 28 29 37 38 38 35 37 38 35
39 40 39 38 37 39 39 35 34 35 36 37 38 39 39 38 36 33 31 31 31 29 28 27 26 27 29 28 37 38 38 37 32 31 34 37 36 35 32 34 35 34 27
40 41 40 37 35 36 37 35 36 40 40 39 38 36 35 33 32 32 31 29 28 27 26 26 25 24 26 27 28 30 28 33 32 33 28 33 32 32 31 29 29 27 26
41 41 39 38 38 40 40 41 41 41 39 38 35 32 33 31 29 29 29 28 28 29 26 25 26 24 23 28 34 34 32 31 34 33 26 25 25 24 25 25 26 26 26
39 38 38 38 38 40 40 40 41 40 38 32 31 30 29 28 27 27 27 37 37 38 37 36 32 30 35 37 36 36 37 36 35 26 23 22 22 22 23 23 23 23 24

GFSMW_sfc_temp_042.txt.gz
Temp
64 62 63 62 62 63 63 63 68 73 71 67 66 65 65 66 68 68 70 68 65 63 61 59 58 56 56 53 53 50 49 46 46 47 48 48 48 48 48 47 47 49 49
59 60 61 62 62 63 63 63 64 71 73 71 71 68 67 64 65 66 68 67 63 62 60 60 58 57 53 52 51 51 47 47 45 46 44 45 49 49 48 47 49 46 47
60 62 57 59 60 60 62 63 63 65 71 73 66 59 59 58 58 60 61 64 62 60 60 59 57 56 55 52 51 50 50 45 45 46 47 43 43 42 46 45 45 45 44
58 59 60 57 58 60 61 62 63 64 66 66 63 65 66 61 61 62 59 55 57 58 57 56 56 54 52 51 50 51 51 47 44 44 49 45 44 42 42 44 44 44 45
53 55 55 57 58 58 57 58 61 61 63 65 66 64 68 66 54 53 54 53 53 56 56 55 53 53 52 53 53 51 51 49 47 44 42 42 41 40 39 38 39 41 42
53 54 55 55 55 54 55 56 57 58 60 61 63 63 64 54 52 51 50 51 51 53 54 55 54 53 52 53 51 50 50 49 47 44 42 42 41 39 38 35 35 35 38
52 53 53 54 53 53 54 56 56 58 59 58 59 63 60 56 55 53 53 50 50 50 51 53 51 50 50 52 50 49 48 48 46 44 43 41 40 40 38 36 34 33 35
50 51 50 53 54 53 54 54 55 55 56 57 57 59 59 58 56 55 54 53 52 51 51 52 52 51 52 51 50 48 47 47 43 44 42 39 39 39 38 37 34 30 30
51 49 52 53 53 53 54 54 54 54 55 56 57 56 55 55 53 50 51 50 51 52 52 52 52 52 52 51 49 48 47 46 44 41 39 38 38 37 37 36 35 31 27
50 51 52 54 54 53 52 52 53 53 54 55 56 53 52 53 52 50 49 51 52 53 52 52 52 49 51 50 48 47 45 45 42 42 38 38 37 36 35 34 34 32 30
51 55 53 52 53 52 52 52 53 53 53 53 51 49 49 49 49 50 50 50 52 54 53 52 51 50 49 48 46 45 45 43 43 40 38 38 37 36 34 33 33 31 29
55 56 55 53 53 52 51 51 52 52 52 50 49 48 47 48 48 48 49 51 50 51 52 52 50 49 48 47 46 44 44 43 42 41 40 38 42 35 34 32 31 30 30
51 54 52 53 53 52 50 50 49 48 48 48 47 46 46 47 47 48 49 49 50 50 51 50 48 47 46 45 46 45 44 43 43 41 41 39 37 37 34 32 30 30 34
49 52 52 51 50 48 47 46 45 46 47 47 46 46 46 47 48 51 51 51 51 49 48 47 45 43 42 41 43 43 41 40 40 41 40 40 38 35 33 33 32 33 29
47 48 49 47 44 43 43 43 44 45 48 46 46 46 47 49 50 49 49 48 46 45 44 42 40 41 40 41 38 38 38 39 39 39 39 38 38 42 41 38 32 30 29
48 49 47 43 41 40 41 43 43 46 48 45 45 47 46 45 46 45 44 43 41 41 41 41 39 39 43 43 42 40 38 38 37 35 35 35 39 38 43 43 43 41 31
45 48 47 43 40 41 42 42 45 46 45 44 45 44 44 42 42 42 41 39 37 37 36 36 36 35 37 40 41 41 37 35 33 32 32 33 37 35 32 37 41 40 41
46 45 41 39 39 41 43 44 42 40 39 39 40 40 41 40 39 38 37 36 37 36 35 35 37 37 40 43 43 40 33 32 31 31 31 29 30 30 35 33 28 30 31
43 40 40 40 40 42 42 42 41 40 39 38 39 40 40 38 38 36 36 36 35 34 32 35 36 37 39 43 42 36 31 31 30 31 30 31 30 37 40 33 28 29 29
43 42 42 42 41 41 42 40 39 39 38 39 39 39 39 38 37 36 35 34 34 35 38 38 38 39 32 42 42 37 31 28 30 28 30 36 35 39 40 35 30 27 28
41 41 41 39 39 41 41 38 37 34 36 39 38 37 38 37 36 35 36 36 37 37 35 33 32 31 32 32 42 42 31 31 30 29 28 30 37 39 39 39 29 30 34
40 40 38 38 39 40 39 35 33 34 36 35 34 35 36 37 36 36 36 36 34 31 29 28 27 28 28 38 39 39 39 37 30 29 28 28 36 37 37 34 35 36 35
39 40 37 37 39 39 38 34 33 36 36 35 37 38 38 37 37 33 30 29 29 28 27 27 26 26 29 27 36 37 37 36 32 30 33 36 35 34 31 33 34 33 25
40 40 38 36 34 36 36 35 36 37 39 37 36 36 33 30 30 30 30 28 27 26 27 26 24 23 25 26 28 30 28 33 33 32 27 31 31 31 30 28 27 27 26
40 38 37 37 36 38 38 38 39 40 37 34 31 31 31 29 28 28 28 28 27 28 25 24 26 24 24 28 34 34 31 30 33 29 25 23 23 22 23 24 25 25 25
38 36 37 37 38 39 39 39 40 40 35 31 30 29 28 27 27 27 26 38 37 38 37 36 32 30 34 37 36 36 36 34 34 25 21 20 20 20 21 21 21 22 23

GFSMW_sfc_temp_045.txt.gz
Temp
62 60 60 61 61 61 60 61 63 70 70 66 66 65 64 65 65 67 68 68 66 62 61 59 57 57 57 56 53 49 49 46 45 46 46 46 46 46 46 47 47 48 48
57 58 59 59 60 62 62 59 61 66 70 69 69 68 66 66 67 66 66 67 65 62 60 58 58 58 53 52 51 50 47 46 44 46 43 43 46 46 46 45 48 46 47
59 61 57 57 59 58 60 62 60 62 68 69 67 60 60 59 59 59 63 65 63 61 62 60 59 58 58 54 53 50 50 45 43 45 47 40 42 41 43 43 44 45 43
54 56 58 56 55 56 58 59 61 61 62 65 66 65 64 62 63 65 64 60 60 59 60 59 59 57 55 53 52 52 49 48 46 47 48 43 43 43 40 41 41 42 44
51 53 53 55 56 56 55 57 58 58 60 60 64 64 65 64 62 62 62 57 55 59 57 57 56 55 54 53 53 51 51 49 46 47 45 44 42 43 39 38 38 40 41
51 53 52 52 52 52 53 54 55 57 57 58 58 62 64 57 55 53 57 54 53 54 55 55 55 55 53 52 52 52 52 50 49 47 46 46 45 39 38 35 34 35 37
50 50 51 53 54 52 54 54 55 56 56 55 55 58 62 57 57 57 57 53 52 50 51 52 51 51 53 51 51 50 50 49 48 48 45 45 44 39 41 36 33 33 34
48 49 50 51 51 53 53 53 54 54 55 54 54 55 58 59 59 57 56 55 56 56 52 52 52 51 51 52 51 50 48 48 46 43 45 43 43 43 41 36 33 30 29
50 51 52 52 52 52 53 53 53 53 54 54 53 53 56 57 56 55 55 55 53 52 51 51 50 50 51 51 50 48 47 46 45 43 43 42 41 40 40 36 35 33 28
49 50 51 52 52 52 52 51 51 52 53 52 51 53 55 56 56 52 50 49 49 51 50 50 50 49 51 50 49 46 46 45 43 43 43 41 40 39 37 34 33 32 31
49 51 49 51 52 54 52 50 51 51 51 52 51 50 49 48 47 48 47 48 50 49 50 50 50 50 49 48 46 46 45 44 43 42 42 41 40 38 35 33 33 33 30
53 51 51 53 53 51 53 52 51 50 50 50 47 46 46 45 45 45 46 48 48 50 50 50 51 49 48 47 46 45 43 41 40 39 39 40 43 38 37 36 35 33 31
50 49 49 50 48 50 50 49 45 44 45 46 44 43 43 44 46 48 50 50 51 51 51 50 47 46 46 45 44 43 42 41 41 40 40 39 38 36 36 35 33 31 34
51 50 47 46 49 48 45 42 43 43 45 44 45 43 44 47 47 47 49 49 49 48 48 47 45 44 43 42 42 41 39 38 38 38 38 37 37 36 35 33 33 34 30
47 48 48 44 44 44 42 42 42 42 43 45 45 45 47 48 48 47 47 46 46 44 44 42 41 40 40 40 38 38 37 36 36 36 37 38 39 41 41 38 33 31 29
44 45 48 46 42 37 39 40 40 42 46 45 44 45 45 45 44 44 42 42 42 41 41 40 40 39 41 42 41 38 35 35 36 35 35 36 38 37 41 41 42 40 30
43 44 47 44 41 38 39 37 40 44 43 42 42 41 41 40 41 41 40 39 37 37 36 37 37 37 39 41 40 38 35 35 34 33 33 34 36 34 31 36 40 38 41
41 41 41 39 37 38 38 41 40 39 39 39 39 39 39 37 39 38 37 37 37 36 36 36 36 36 38 40 41 40 34 33 31 31 30 28 29 30 34 32 27 30 30
42 41 39 38 40 41 42 40 39 38 38 37 37 38 38 38 38 37 36 36 35 35 33 33 33 33 36 41 42 36 33 32 30 30 29 29 29 35 39 33 28 29 29
42 41 41 41 41 41 42 40 39 39 38 38 38 39 39 38 36 36 34 35 35 33 34 33 33 37 35 42 42 37 32 28 30 28 30 35 34 38 39 34 29 25 26
40 41 40 39 39 40 39 36 35 34 37 38 37 37 37 36 36 35 35 34 32 33 34 33 32 32 33 33 42 42 31 31 30 29 28 30 36 38 39 38 27 28 32
39 40 38 37 39 39 37 34 33 34 36 37 35 36 36 37 36 34 34 35 34 32 30 27 26 27 27 38 38 39 38 37 30 29 28 28 36 37 36 34 35 36 34
39 39 38 38 38 38 37 34 34 36 36 35 35 37 37 36 34 31 29 27 27 26 25 26 24 26 28 27 35 36 37 36 32 31 33 35 35 33 30 32 34 33 24
39 39 38 36 35 37 36 35 37 38 38 36 34 33 30 28 28 29 30 27 26 25 26 26 24 23 25 26 27 30 27 33 32 31 26 30 30 30 29 27 27 26 25
39 39 36 36 36 37 36 38 39 37 33 31 30 28 28 28 27 28 27 27 25 27 24 24 26 24 23 29 34 33 31 29 32 28 24 23 22 21 22 23 24 24 24
35 35 37 37 38 38 38 38 37 35 33 30 29 29 27 26 26 25 25 38 37 38 37 35 32 31 34 36 35 35 35 34 34 24 20 19 19 19 20 20 21 21 22

GFSMW_sfc_temp_048.txt.gz
Temp
61 59 59 60 59 59 58 60 62 65 68 68 67 66 65 66 65 65 65 65 65 62 61 60 58 57 57 55 55 49 48 46 46 46 45 45 45 45 45 45 45 46 47
58 57 57 57 57 60 59 58 59 64 66 67 68 67 68 67 66 66 64 66 64 62 61 60 58 57 55 53 53 51 47 47 46 46 44 43 45 44 45 43 46 44 45
54 57 54 55 55 55 57 59 58 60 64 68 67 60 61 60 63 62 63 64 63 62 61 59 58 57 57 55 55 52 51 46 43 44 47 40 42 41 42 42 42 42 42
51 52 53 52 53 55 55 57 59 58 60 63 65 64 64 63 64 64 64 63 62 61 60 59 58 57 55 53 52 52 52 51 47 46 47 43 45 45 40 40 41 41 42
49 50 50 51 53 53 53 54 55 57 58 61 64 63 63 64 60 62 61 60 59 61 60 59 57 55 54 54 53 51 51 51 48 47 46 46 44 43 43 39 41 39 39
48 49 50 52 51 51 51 51 53 55 56 56 57 61 62 62 57 57 60 57 56 58 58 58 56 55 53 52 53 52 51 51 50 49 48 47 45 44 43 42 40 38 37
48 49 50 50 51 51 51 52 53 53 54 53 53 55 60 61 58 59 60 58 55 55 55 56 55 53 53 53 52 51 51 51 49 48 47 47 46 44 42 40 37 35 37
47 49 51 50 51 52 51 51 51 52 53 53 53 52 53 56 58 58 59 58 56 56 57 55 54 53 52 51 50 51 50 50 47 47 46 44 44 44 43 41 39 35 32
48 48 49 50 51 51 52 50 51 51 51 52 51 50 51 52 56 57 58 57 56 55 54 53 52 53 51 50 51 50 47 48 46 45 44 43 42 42 41 40 40 36 30
46 47 48 49 50 52 53 51 51 50 50 50 50 51 50 52 55 54 53 51 50 50 50 50 50 49 50 51 50 48 47 46 44 44 43 42 41 40 39 38 38 37 35
48 48 47 48 49 52 51 50 49 49 49 49 50 49 49 49 49 48 46 46 47 47 48 48 49 49 50 50 48 47 46 44 43 43 42 40 40 39 38 36 35 35 34
49 46 46 46 49 46 45 46 45 47 46 46 46 45 49 49 47 45 45 47 47 49 49 50 49 49 49 48 47 46 44 43 41 40 40 39 41 37 37 37 36 35 34
46 46 47 45 44 44 43 44 44 44 46 45 44 44 46 47 47 48 49 49 50 50 50 50 48 47 47 46 46 44 42 41 40 39 39 38 37 36 35 33 33 33 35
46 48 45 43 42 45 44 42 44 45 44 44 43 45 46 47 47 48 48 49 49 48 47 47 46 45 44 43 42 41 39 39 38 38 37 36 35 34 33 33 33 34 32
43 43 42 45 44 43 42 39 40 41 41 41 43 44 46 47 46 45 45 45 44 44 44 43 42 42 41 41 39 39 38 37 36 35 35 35 36 39 38 37 35 33 31
41 43 41 42 42 39 36 38 38 39 41 42 41 43 43 43 42 42 41 41 41 41 41 41 41 40 42 43 42 38 35 34 34 32 32 32 36 37 39 40 42 39 30
41 40 39 40 40 36 36 35 40 42 41 40 40 41 40 40 40 40 39 38 38 39 38 39 39 39 40 42 41 39 34 32 31 32 34 35 36 34 32 35 39 38 40
40 39 40 39 35 36 40 41 40 40 39 39 39 39 39 38 38 37 37 36 37 37 37 37 37 38 39 41 40 38 35 34 33 33 32 31 29 30 33 31 28 30 30
41 41 41 37 39 41 41 40 39 39 38 37 37 38 38 37 36 34 33 32 35 34 33 34 34 35 36 40 38 33 34 33 32 32 30 29 29 35 39 32 28 29 29
41 40 41 41 40 40 40 39 38 37 37 38 38 39 38 37 35 35 35 35 35 33 34 33 33 37 35 39 38 35 32 27 30 28 30 35 34 38 39 35 30 24 25
40 40 40 38 38 39 38 35 35 35 37 38 38 37 37 35 34 33 33 32 32 31 32 32 32 33 34 36 42 38 31 31 30 29 28 30 36 38 38 38 27 28 31
38 40 38 37 38 39 37 35 33 35 37 36 35 35 35 36 35 32 32 34 33 31 27 26 27 27 27 37 39 39 38 36 30 29 28 28 36 36 35 33 34 35 32
39 39 38 37 37 38 37 34 34 36 35 34 32 33 33 34 33 31 29 27 26 25 25 25 24 25 28 26 36 36 37 36 31 31 33 34 33 32 29 31 33 31 23
39 39 38 36 35 37 37 36 37 38 37 34 32 31 29 27 27 28 29 26 25 24 25 25 24 23 25 26 27 30 27 33 31 30 26 30 29 29 28 26 26 25 24
36 38 38 36 35 37 37 38 39 35 31 30 29 27 27 26 26 27 26 26 24 26 24 24 25 24 23 29 34 33 31 28 31 27 23 21 20 20 21 22 23 23 23
37 36 37 37 37 37 37 35 34 33 30 29 28 28 26 25 25 25 25 38 37 37 36 34 31 31 35 36 35 35 34 33 33 23 19 17 17 18 19 19 20 20 21

GFSMW_sfc_temp_051.txt.gz
Temp
63 64 64 65 66 67 65 66 67 70 72 69 68 67 65 66 66 68 70 70 70 68 68 68 69 67 66 65 64 62 60 58 59 58 57 57 58 58 59 59 60 58 58
60 61 62 62 63 65 65 65 65 68 70 72 73 71 70 68 69 68 68 69 69 68 67 67 67 66 65 64 62 61 58 57 57 58 56 55 57 57 57 57 58 58 58
55 57 57 58 59 60 61 63 64 64 67 71 71 69 67 66 67 66 66 67 68 66 66 67 66 65 65 62 61 59 59 55 54 55 60 51 55 54 54 54 55 56 56
53 55 56 57 57 58 57 59 60 62 64 67 69 68 68 66 68 68 68 67 67 66 65 65 65 63 63 62 59 58 58 57 53 51 50 50 53 50 51 51 51 53 54
53 55 55 56 58 57 56 57 58 59 61 63 67 68 67 69 69 68 67 67 65 66 65 65 64 63 61 62 58 56 58 59 56 52 45 47 48 48 48 46 46 48 48
53 55 55 56 58 58 57 57 58 59 60 60 61 65 66 66 64 64 64 65 64 63 64 64 63 63 61 60 57 58 58 57 57 56 51 53 51 50 47 47 45 47 45
53 54 54 54 56 56 56 58 58 59 60 59 59 60 62 64 64 65 64 65 61 60 61 62 61 61 60 59 59 57 56 56 54 52 51 51 50 49 47 46 45 44 45
52 53 53 54 55 55 56 57 57 58 58 58 59 59 59 59 63 64 65 65 63 62 63 61 62 61 60 59 58 56 55 55 54 50 49 48 47 48 47 44 42 39 39
51 52 53 54 54 55 56 56 56 56 57 57 57 58 58 57 58 61 62 64 64 62 61 60 59 59 57 57 56 55 54 53 51 48 47 46 45 46 43 44 43 45 38
52 52 53 52 53 53 54 54 54 54 55 55 55 55 55 55 56 58 59 61 61 59 58 57 56 54 54 53 54 51 48 46 48 47 45 44 43 42 42 40 41 41 39
51 51 51 52 52 51 50 50 51 51 52 52 52 52 51 52 53 54 55 56 55 55 55 55 54 52 51 51 49 48 49 46 45 45 44 42 42 40 39 38 37 35 35
51 50 50 49 49 48 48 48 48 49 49 49 50 50 52 51 51 50 51 51 51 53 53 52 52 51 50 50 48 47 47 45 43 42 41 40 42 37 38 37 35 34 33
50 48 48 47 46 46 46 46 47 47 48 49 49 49 49 50 49 50 50 51 51 51 51 51 50 49 48 48 47 46 44 43 42 41 40 38 37 36 35 35 34 33 34
47 45 45 44 46 45 45 45 45 46 46 46 46 47 47 47 46 47 49 49 50 49 50 49 48 47 46 45 44 42 41 40 39 39 39 38 37 35 33 34 34 34 33
45 43 42 43 44 43 43 43 42 43 44 44 44 43 44 44 44 43 44 44 45 44 45 43 42 42 42 42 41 40 39 38 36 36 36 35 34 35 35 35 34 33 34
43 43 41 41 41 40 39 40 41 42 44 42 41 42 42 41 41 41 41 41 41 41 41 41 41 41 43 44 43 40 37 36 34 32 32 33 35 36 38 38 41 41 36
41 40 40 40 40 39 39 39 41 43 41 41 41 40 40 40 39 40 39 38 38 40 39 40 41 40 41 43 42 39 35 33 32 32 32 34 36 35 36 37 39 39 40
41 40 39 40 40 40 41 42 41 41 40 39 39 40 39 38 37 37 36 37 38 37 37 38 38 38 39 40 38 36 33 33 35 35 33 33 32 33 37 37 35 36 37
41 41 42 41 41 41 42 41 40 40 39 38 37 37 37 36 35 34 33 33 34 34 33 33 33 35 34 37 36 34 34 34 32 33 34 35 35 36 39 37 33 35 35
41 41 41 41 40 40 40 39 38 37 37 37 38 38 37 37 36 35 34 33 34 32 33 32 34 37 36 37 35 33 35 34 34 35 35 35 37 38 39 37 34 30 32
40 40 40 38 38 39 39 36 36 36 37 38 37 37 36 35 35 33 33 32 32 31 30 30 31 33 35 39 40 38 35 35 34 33 34 35 36 38 37 37 33 32 36
39 40 38 38 39 39 37 35 34 36 37 36 35 35 35 36 34 34 33 34 34 32 31 31 31 32 33 39 39 39 38 37 34 33 34 34 36 35 35 34 34 35 33
39 39 38 37 37 37 37 35 34 36 36 35 34 35 35 35 35 34 32 32 32 31 30 31 30 30 32 33 37 38 37 36 34 35 34 33 32 32 30 31 32 31 29
38 40 38 37 36 37 37 37 37 38 37 34 33 33 32 31 32 33 33 31 31 30 31 31 29 29 31 32 33 34 33 34 33 31 31 31 30 28 29 28 29 29 29
38 39 39 37 36 37 38 39 39 37 33 32 32 31 31 31 31 32 32 32 30 32 30 30 30 29 29 33 36 35 34 33 34 29 28 26 25 25 26 27 27 27 27
38 37 38 38 37 38 39 36 36 35 33 32 31 31 30 30 31 31 32 38 38 37 36 34 33 33 35 36 35 34 34 33 32 27 24 23 23 23 24 24 24 25 24

GFSMW_sfc_temp_054.txt.gz
Temp
75 74 74 76 76 77 78 79 80 81 83 80 70 69 68 69 70 74 79 79 78 78 76 77 77 78 76 74 74 73 70 68 71 67 66 66 67 67 68 69 68 67 67
70 69 70 71 72 74 76 77 77 78 79 81 79 76 75 74 74 72 71 72 77 76 75 74 76 76 75 74 72 71 68 69 68 66 67 61 63 64 66 66 67 67 67
65 67 68 69 70 70 70 72 73 75 76 77 79 78 77 75 73 71 70 71 72 75 75 73 74 73 74 73 72 70 67 65 65 69 69 60 61 61 62 62 62 65 65
66 66 67 68 69 68 68 69 70 71 72 73 74 75 74 72 74 75 74 73 71 68 70 71 72 72 71 70 71 70 68 68 62 63 64 63 65 59 53 55 59 61 60
63 65 65 65 68 67 67 69 70 69 69 70 71 73 73 75 76 76 74 75 73 70 67 68 69 69 69 69 69 67 67 68 68 62 59 59 58 57 58 54 50 51 56
64 65 66 66 67 67 67 67 69 70 70 69 70 70 71 73 72 72 72 73 72 69 67 67 66 68 68 68 68 66 64 65 67 63 61 60 59 57 58 59 54 53 49
62 62 63 63 64 64 65 66 67 68 70 69 69 69 69 70 70 72 72 71 70 67 65 65 65 66 67 67 67 65 63 63 63 62 59 59 58 56 54 58 51 49 49
61 61 62 62 62 63 64 64 65 65 67 68 69 70 69 69 70 71 72 73 72 72 70 66 65 65 66 65 65 64 62 61 57 58 59 57 52 50 50 50 46 45 43
60 60 61 61 61 61 61 61 62 64 65 66 67 68 69 67 67 68 70 71 72 72 73 70 64 64 63 62 62 60 59 59 59 59 58 54 49 47 46 47 47 45 37
60 60 60 60 61 60 60 61 61 61 62 63 64 64 63 64 64 65 66 67 69 71 70 67 65 62 60 59 58 56 56 55 53 48 44 42 42 43 43 44 41 45 41
59 59 59 59 60 60 59 59 59 59 59 60 61 62 61 61 60 58 58 60 62 65 64 63 61 57 56 56 54 52 51 49 46 45 43 44 43 39 39 39 41 38 39
57 57 57 57 58 57 57 57 57 57 57 58 59 59 59 60 60 59 58 58 58 58 58 59 57 55 54 53 52 49 49 46 45 44 45 39 41 39 40 40 38 36 36
55 55 56 55 56 55 55 55 55 55 55 56 56 56 55 55 54 54 55 55 54 54 54 53 53 52 51 50 49 48 46 44 43 42 41 40 39 38 36 36 35 34 34
52 52 53 53 54 53 52 52 53 53 53 53 52 51 51 50 50 48 48 48 49 49 49 50 49 49 48 47 45 43 41 41 40 40 40 40 38 36 35 34 34 35 34
50 49 49 50 51 50 50 50 50 51 51 50 49 47 46 45 44 43 44 44 44 44 45 44 44 44 43 43 41 40 40 39 38 37 37 36 37 38 36 35 34 34 35
48 47 47 48 49 49 48 49 49 48 49 48 46 46 45 43 41 41 41 42 42 42 42 42 42 41 43 44 43 40 37 36 35 33 32 33 35 36 38 39 39 40 38
47 46 46 47 47 47 48 47 47 46 46 46 47 46 44 40 39 40 40 39 40 41 40 41 41 41 42 43 42 40 35 33 32 32 32 34 38 37 37 37 38 39 39
46 46 47 47 47 48 48 47 44 45 44 42 42 42 39 38 37 36 35 35 37 37 36 35 36 35 37 40 40 37 32 32 32 33 36 36 36 36 37 38 37 38 40
48 47 46 45 46 46 45 45 42 42 42 39 39 38 37 37 36 35 34 33 34 33 33 34 33 34 34 37 38 36 36 34 35 36 36 36 35 36 39 39 36 38 39
47 47 46 43 44 43 46 43 40 40 38 39 38 38 38 37 35 35 35 34 35 33 34 33 35 36 36 37 37 39 38 35 35 36 37 36 38 38 39 39 37 34 37
45 46 46 44 43 45 44 40 38 36 37 38 37 37 37 36 36 35 35 35 33 33 34 36 39 41 41 40 40 39 40 39 38 37 38 38 36 38 37 37 38 35 37
44 45 44 43 42 43 41 37 36 37 37 37 36 36 37 37 37 37 37 38 39 38 38 38 38 39 40 40 40 39 39 38 37 36 37 37 35 35 34 35 34 35 35
44 44 43 40 39 39 40 36 36 37 37 37 36 37 41 42 42 41 40 41 42 41 40 40 38 38 38 39 37 37 37 37 37 37 35 34 33 33 33 32 32 33 34
42 45 43 41 38 40 39 38 38 39 39 41 42 42 41 41 42 42 42 42 41 41 40 38 37 37 38 38 39 38 39 36 36 34 35 32 31 30 30 31 33 34 34
41 44 44 42 39 40 40 40 40 43 43 42 41 40 41 41 40 41 41 41 39 40 39 37 37 36 36 36 37 36 37 37 35 33 34 32 32 31 32 32 32 32 32
40 41 43 43 42 43 44 43 43 43 41 40 40 40 41 40 41 40 39 39 38 37 36 35 37 37 36 36 35 34 34 33 33 31 30 30 30 29 30 29 30 31 30

GFSMW_sfc_temp_057.txt.gz
Temp
79 80 78 79 79 81 81 82 82 84 85 84 82 74 69 70 71 78 82 83 83 82 80 79 79 79 78 77 73 74 72 70 73 68 67 67 68 69 69 70 69 67 66
74 75 74 74 75 77 79 80 81 81 82 82 84 81 75 72 71 71 74 78 81 81 79 78 77 78 76 76 73 73 70 70 71 65 64 59 62 64 66 67 66 66 65
69 70 71 72 73 72 71 73 75 76 79 80 81 81 79 78 76 75 74 73 74 76 77 77 76 75 76 74 74 72 70 66 67 68 67 59 58 59 62 63 64 65 63
68 68 69 69 70 69 69 71 72 73 74 76 75 75 76 75 76 77 78 77 75 71 70 72 73 72 72 73 73 73 68 67 63 63 67 68 64 57 51 58 60 62 62
67 67 67 68 69 68 68 70 72 73 73 73 73 73 73 76 77 78 76 77 77 74 71 70 69 69 69 68 71 71 70 66 65 60 60 62 59 60 58 51 51 57 58
66 67 68 69 69 69 68 69 70 72 73 72 72 71 69 71 73 74 74 75 76 75 72 68 67 67 67 68 67 68 67 65 65 65 62 60 58 56 55 54 53 51 53
65 65 65 65 66 65 66 68 69 69 71 72 71 72 70 70 70 72 73 74 74 72 71 67 66 65 66 66 66 65 64 64 63 63 62 63 62 62 59 55 48 49 47
64 64 64 64 64 64 64 65 66 66 69 69 70 71 72 71 71 71 72 73 73 74 75 70 66 65 65 64 64 63 63 63 62 62 63 61 60 56 54 51 45 42 42
63 63 64 64 64 64 63 63 64 65 66 66 68 69 70 69 68 69 70 71 72 73 73 74 70 65 64 63 62 61 60 60 59 59 60 58 54 50 48 47 45 44 37
62 62 63 63 63 63 62 63 64 63 64 64 65 66 65 65 65 65 65 65 67 69 69 70 71 67 61 61 60 58 57 56 55 54 54 45 44 43 43 41 40 40 39
61 61 61 62 62 62 61 62 62 61 61 62 63 63 63 63 64 64 63 62 61 62 62 64 64 61 59 58 57 55 54 53 49 47 45 43 41 41 39 40 39 39 40
59 59 60 60 60 60 60 59 59 59 59 60 60 60 60 59 58 57 59 60 59 60 59 58 58 57 57 55 54 50 50 47 46 44 44 41 42 40 40 38 38 37 37
57 58 58 58 58 58 58 57 57 57 57 57 57 56 55 54 53 53 53 54 54 54 54 53 52 51 50 50 49 47 45 43 42 42 40 40 39 37 38 37 36 35 35
55 55 55 56 57 56 55 55 55 55 55 54 53 51 50 49 49 48 49 48 48 47 48 47 46 46 46 45 44 42 40 40 40 40 40 39 38 37 36 35 34 34 33
54 53 52 54 55 54 54 54 53 53 53 52 50 49 48 48 46 45 44 44 44 45 45 44 44 44 43 43 41 41 39 39 37 38 38 38 39 39 38 35 33 33 33
53 51 51 52 52 52 52 52 51 50 51 50 49 48 47 45 43 43 42 43 43 43 43 42 42 41 43 44 43 40 37 36 35 33 33 34 36 38 39 38 39 40 36
52 51 50 51 51 51 51 50 49 50 48 47 47 46 45 42 40 40 40 39 38 38 37 36 39 40 41 43 41 39 35 33 33 33 33 34 37 38 38 38 39 40 40
51 50 51 50 50 51 51 49 48 47 44 43 43 44 41 38 38 37 36 36 36 35 35 35 35 35 36 38 37 36 32 32 32 33 33 34 34 35 38 38 36 36 38
52 51 51 48 48 49 49 48 45 43 41 39 39 39 38 37 37 35 35 34 34 34 33 33 33 33 34 37 37 36 35 35 35 37 37 37 36 37 39 37 35 36 37
51 50 49 48 48 48 49 46 43 41 39 39 38 38 38 37 36 36 35 35 35 33 34 33 36 38 37 39 41 41 39 36 36 37 37 37 38 39 39 37 36 33 34
49 50 49 48 46 47 47 41 39 36 38 38 38 38 37 36 36 36 36 35 34 35 36 38 40 41 41 40 41 41 39 38 37 36 36 37 37 37 37 37 34 34 35
47 48 47 45 46 45 42 38 36 38 38 38 37 38 39 39 40 38 39 40 41 40 40 40 39 40 41 40 40 39 38 39 36 35 35 36 35 35 35 34 36 35 35
46 47 46 42 42 42 41 37 37 38 39 39 39 40 43 43 43 42 41 42 43 42 41 40 38 37 38 39 38 38 37 37 36 35 34 34 34 34 34 34 33 33 32
45 47 45 41 39 41 40 39 39 41 41 43 44 44 43 43 43 43 42 43 42 41 40 38 37 36 37 37 38 37 37 37 37 35 35 34 33 33 31 32 33 32 31
46 45 46 44 42 42 41 41 42 43 44 44 43 43 42 42 41 41 41 40 39 39 39 36 36 35 35 35 36 35 34 34 34 32 33 32 31 30 31 31 31 31 31
44 42 45 44 43 43 42 42 43 46 44 42 41 41 41 42 41 40 37 38 38 38 37 37 36 36 36 36 35 35 34 34 34 30 30 29 29 28 29 29 29 29 29

GFSMW_sfc_temp_060.txt.gz
Temp
69 69 68 69 68 69 68 69 71 73 72 71 70 68 67 66 67 72 72 74 74 70 69 71 68 69 69 69 67 67 63 60 61 58 56 56 59 59 58 59 58 59 60
62 65 66 65 65 65 65 66 68 70 71 71 69 69 67 67 68 67 71 71 69 71 69 67 67 66 65 64 66 67 62 60 60 55 52 49 53 55 58 57 59 57 57
61 63 62 63 62 60 61 64 65 65 66 66 67 67 67 66 65 65 67 71 71 68 70 70 68 65 66 65 64 66 63 61 57 60 55 49 48 49 53 57 56 57 55
60 62 61 60 60 60 61 63 65 65 66 65 63 62 61 61 65 66 68 68 68 66 67 65 67 68 69 69 67 68 63 61 58 55 63 56 54 49 46 51 54 56 56
59 59 59 60 61 60 59 61 62 64 64 63 63 60 60 61 63 65 66 66 66 66 65 66 65 66 65 66 66 65 64 64 61 58 52 56 52 51 48 44 47 52 53
57 59 60 61 60 59 59 59 61 62 63 63 63 61 59 58 58 60 61 63 64 64 65 65 67 67 66 65 63 65 64 63 63 61 57 56 56 54 50 49 47 48 49
56 56 56 57 57 56 57 59 59 59 61 61 61 61 60 59 58 58 59 61 62 62 63 63 62 63 65 64 64 64 64 64 60 60 58 57 56 54 56 53 48 46 44
55 55 55 55 55 56 55 56 56 57 59 59 59 60 60 58 58 58 58 59 59 61 64 64 61 61 62 62 63 62 62 62 61 60 59 57 57 54 53 52 49 41 40
55 55 54 55 55 55 54 55 55 56 56 56 57 57 57 56 56 56 56 56 57 62 60 60 61 60 62 61 61 61 60 60 60 59 58 57 52 49 49 48 48 48 39
55 55 55 55 55 54 54 54 55 54 54 55 55 56 55 55 55 55 54 54 54 56 56 56 56 56 57 59 59 58 58 56 55 55 54 48 46 45 44 43 43 44 43
53 53 53 54 54 54 53 53 53 53 52 52 53 51 51 52 51 50 51 51 52 53 53 54 53 53 54 56 55 55 55 54 49 47 46 42 43 41 41 41 42 41 40
53 52 52 53 52 51 51 51 51 50 50 50 49 48 49 48 46 46 46 47 47 50 52 52 52 51 52 51 51 49 48 47 45 44 42 40 42 39 40 40 39 38 38
52 52 51 51 51 50 50 49 49 48 49 48 47 46 44 43 42 43 44 45 45 47 49 48 47 46 46 46 45 45 43 42 41 41 40 39 39 37 38 38 37 36 36
52 50 49 50 49 49 48 48 47 47 48 47 45 43 42 41 41 41 42 45 46 45 45 45 44 44 44 43 42 41 40 40 40 40 40 40 39 37 36 35 34 35 34
51 49 47 46 48 47 46 46 46 45 46 45 43 42 42 43 44 43 42 44 43 44 44 43 43 43 43 42 40 40 39 38 37 38 38 38 40 40 39 36 34 34 33
50 49 47 45 46 44 45 46 44 44 45 43 42 42 41 42 42 41 41 40 39 39 41 42 42 41 43 43 42 38 35 35 34 33 33 34 38 40 41 40 39 37 35
49 48 46 45 44 44 45 42 42 43 42 44 44 41 41 39 38 39 38 37 36 37 36 36 37 37 39 42 41 38 34 33 33 32 33 33 35 35 36 39 40 40 40
48 47 45 44 44 44 44 43 42 44 42 41 41 40 39 37 37 37 36 35 35 35 35 35 35 36 38 39 39 37 32 32 32 32 32 32 33 34 37 35 34 33 34
46 45 44 42 42 42 43 41 39 42 40 39 38 38 39 37 36 35 34 34 34 33 32 33 33 33 34 40 40 35 32 31 32 34 34 34 33 38 40 34 31 31 32
46 44 43 43 42 41 42 40 41 40 38 38 38 38 38 37 36 35 34 34 34 33 34 30 30 38 31 42 42 38 33 29 32 31 32 39 36 39 39 32 29 27 28
45 45 43 41 40 41 40 38 37 36 38 39 38 37 37 37 37 35 35 34 29 25 25 30 31 32 34 35 41 41 32 30 30 30 29 30 37 37 37 36 27 29 31
44 45 41 40 40 40 40 37 36 37 38 38 37 37 37 39 36 33 32 32 31 30 30 30 29 30 31 39 39 39 39 37 30 29 27 28 36 36 36 33 35 35 34
43 44 41 39 41 41 40 36 36 38 38 38 37 36 37 37 36 32 32 32 33 32 30 29 28 28 31 29 39 39 38 37 30 30 33 35 35 35 31 35 34 34 26
41 43 41 40 38 40 40 38 38 40 40 39 36 37 36 35 35 35 34 32 31 31 30 29 28 27 28 28 28 30 27 34 31 32 27 33 34 35 32 31 30 28 27
42 44 43 40 39 41 39 40 40 40 36 36 35 35 36 35 32 31 32 30 29 31 28 27 28 27 26 29 34 32 30 28 31 30 26 26 26 25 26 27 27 27 27
41 42 43 42 41 41 40 41 41 38 37 34 33 34 34 34 33 31 29 39 37 38 38 37 33 31 35 36 35 35 35 34 34 26 24 22 21 22 24 25 25 25 26

GFSMW_sfc_temp_063.txt.gz
Temp
65 63 62 61 63 63 62 62 65 66 67 65 65 64 66 65 64 68 70 68 68 68 66 68 65 65 67 66 64 63 61 59 58 57 54 54 54 55 56 57 56 57 59
60 61 63 62 59 58 59 61 61 62 63 64 64 65 65 66 69 67 67 68 67 66 68 64 64 63 63 62 62 63 60 58 57 54 52 50 52 54 56 55 57 56 57
58 57 58 59 59 58 58 60 61 62 62 63 63 62 62 64 63 63 64 66 67 66 65 66 66 63 63 62 61 62 61 60 56 55 54 47 48 48 51 56 56 56 54
56 58 59 58 58 57 58 59 60 61 63 61 60 58 57 57 60 63 64 65 65 65 65 64 64 63 62 63 66 65 63 61 58 55 59 54 52 48 47 49 51 54 54
55 56 58 59 59 59 57 58 59 61 61 61 60 57 56 55 57 58 59 61 64 65 65 64 63 62 61 62 63 62 63 62 63 59 56 56 52 52 48 45 46 50 53
53 55 57 58 56 56 56 57 58 59 60 59 58 58 56 55 55 55 55 57 59 61 62 63 62 63 64 63 62 62 61 61 62 62 60 58 57 55 49 46 45 47 48
53 53 54 54 54 53 54 57 55 56 57 57 57 57 55 55 54 53 54 54 56 57 58 61 61 61 62 62 63 63 62 62 60 61 58 59 58 59 56 52 47 46 46
52 53 54 52 52 52 52 53 53 53 55 54 55 54 54 54 54 53 53 52 53 53 54 55 56 58 60 60 62 61 61 61 61 59 59 57 57 56 54 54 51 42 40
52 53 53 52 52 51 51 52 52 52 52 52 52 52 52 52 51 51 51 51 52 57 53 53 53 54 57 58 59 60 59 59 59 59 58 58 56 53 53 52 52 51 44
51 52 51 51 51 51 51 51 51 50 50 50 50 50 49 49 48 48 47 48 50 51 51 51 51 51 53 53 54 56 57 56 56 54 55 50 47 46 46 45 45 45 45
50 50 50 51 51 50 49 49 49 49 48 48 47 46 46 46 45 45 44 44 46 47 48 48 48 48 48 48 50 50 51 52 50 48 46 43 43 43 42 42 43 42 43
49 49 49 50 48 47 47 47 47 47 46 46 45 44 44 43 41 41 42 43 43 44 45 45 46 46 48 47 47 46 46 46 45 44 43 41 43 40 41 41 40 40 40
49 48 48 48 46 46 46 45 45 45 45 44 43 42 41 40 39 39 41 42 42 43 45 46 45 44 45 44 44 43 42 41 41 41 40 40 40 38 39 38 37 36 37
50 47 47 46 46 46 46 44 43 44 44 43 41 40 39 39 39 39 40 41 43 44 44 44 44 43 43 42 41 41 40 39 39 39 39 39 38 37 36 35 35 36 35
48 47 46 45 44 43 43 43 42 43 43 42 40 38 39 43 43 42 40 40 39 43 43 43 43 41 41 40 37 38 37 36 36 36 38 39 41 42 40 36 34 34 34
49 47 47 45 43 41 42 43 42 42 42 40 39 39 41 41 40 40 39 39 38 38 39 39 40 40 42 43 41 37 36 35 34 33 33 34 36 38 41 40 39 38 35
47 46 45 43 41 41 42 39 40 41 41 43 42 40 40 38 38 38 38 37 36 37 36 37 38 38 40 42 41 38 34 33 33 33 33 33 34 34 33 35 37 38 41
47 46 44 42 42 41 41 40 40 42 41 40 40 40 38 37 37 37 36 35 35 34 34 35 35 37 39 41 40 38 29 26 28 29 29 30 30 33 35 33 32 32 33
45 44 42 41 40 40 40 39 38 41 39 38 38 39 38 37 36 35 34 33 34 33 33 32 28 29 32 42 40 33 28 28 28 31 31 31 30 39 40 31 30 30 30
45 42 41 41 40 39 39 37 39 39 37 38 38 39 38 37 36 35 34 34 34 32 27 25 27 38 30 42 42 34 29 26 29 28 30 39 35 39 38 29 27 25 26
44 43 41 39 38 38 38 37 38 37 38 39 38 38 38 37 36 35 35 28 23 22 23 28 28 29 32 34 41 40 31 29 29 29 27 29 37 37 37 36 26 28 29
43 42 38 37 37 37 37 37 36 38 39 38 37 37 37 38 37 33 30 29 29 28 27 27 27 28 29 38 39 39 38 36 29 28 27 27 36 36 36 33 35 35 33
41 42 38 37 36 37 40 36 36 38 38 37 37 37 36 34 34 31 31 30 29 28 28 27 26 27 29 28 38 39 39 37 30 30 33 36 36 35 31 33 35 34 26
40 41 40 39 36 40 39 38 38 39 39 38 35 33 32 32 32 34 32 31 29 28 28 28 26 25 26 27 27 29 26 33 31 32 27 32 34 35 32 30 29 28 26
41 41 40 39 39 40 39 39 39 40 38 35 32 32 32 31 30 31 31 30 30 31 28 27 28 26 25 29 34 32 30 28 31 30 26 25 25 24 25 26 26 26 26
40 39 42 39 40 40 40 40 41 40 34 32 31 30 30 30 29 29 29 38 37 38 38 37 32 31 35 37 36 36 35 35 35 27 23 21 20 21 23 24 24 24 24

GFSMW_sfc_temp_066.txt.gz
Temp
59 59 58 58 59 57 58 59 62 62 63 64 64 63 64 65 64 65 67 67 67 67 65 64 63 62 64 66 64 62 60 59 56 59 57 54 54 54 55 54 57 57 58
56 58 57 56 57 56 56 57 58 59 61 61 61 63 64 64 65 65 66 66 65 65 65 63 63 63 63 61 61 60 58 58 55 55 54 54 56 53 56 53 56 56 58
56 54 54 55 56 55 56 58 58 59 59 60 60 60 60 62 62 62 63 65 66 65 64 64 63 62 61 62 60 59 59 61 55 54 57 50 51 48 51 53 56 56 53
53 55 56 56 57 56 56 57 58 59 60 59 58 57 57 57 58 60 62 63 64 64 64 64 64 63 61 61 62 61 60 59 58 54 58 54 53 49 49 48 49 51 53
53 54 55 57 57 57 54 54 57 58 58 58 57 55 54 54 55 56 57 58 60 62 63 63 62 61 61 61 61 60 59 60 60 56 55 57 54 52 48 54 48 49 51
51 53 54 55 54 54 54 54 55 56 56 56 55 54 54 52 52 52 52 53 55 57 57 59 60 61 60 61 60 60 59 60 60 60 59 57 54 54 52 48 46 48 50
50 51 51 52 51 51 52 55 54 53 54 54 53 52 52 51 51 50 50 51 51 51 52 54 55 57 59 60 60 59 59 59 59 59 59 59 58 59 56 54 53 46 45
49 51 51 51 51 51 51 51 51 51 52 51 51 50 51 50 50 50 49 49 50 51 51 52 52 53 56 57 57 57 59 61 60 58 56 58 58 58 55 54 51 43 42
50 51 50 50 50 50 50 49 49 49 49 49 48 47 47 47 46 46 47 48 48 53 50 50 50 51 52 55 57 57 56 55 54 54 56 57 56 54 55 54 52 50 45
50 50 49 49 49 49 49 48 49 48 48 47 47 46 45 45 44 44 43 44 45 47 47 47 47 47 47 48 49 49 50 50 51 52 52 49 47 46 46 47 47 47 48
49 48 49 49 49 48 47 47 47 47 46 45 44 43 42 42 42 41 41 42 43 44 45 45 44 44 44 44 44 45 44 48 47 46 45 43 44 43 43 44 44 44 44
49 48 48 48 47 46 45 45 45 45 44 44 42 41 41 40 39 39 40 41 41 42 42 43 43 42 42 42 41 41 41 42 42 42 42 41 43 41 41 41 40 40 40
47 46 46 45 45 44 44 44 43 43 43 42 41 39 39 38 38 38 39 41 41 41 42 42 42 41 41 40 40 40 41 41 40 40 40 40 40 38 38 37 36 36 38
48 46 44 43 42 43 43 42 41 42 42 41 39 37 37 42 42 38 38 39 40 40 40 41 41 40 38 38 37 37 38 39 39 40 39 39 38 37 35 36 35 36 35
47 46 45 42 42 41 41 41 41 41 40 39 37 37 40 42 42 41 40 40 40 41 42 41 42 42 41 40 35 36 37 37 36 36 37 39 41 42 39 36 34 35 34
47 47 45 44 42 40 40 41 40 40 40 38 37 38 41 41 40 39 39 39 38 39 39 40 40 40 42 43 41 36 34 35 34 33 33 34 36 37 42 41 41 39 35
47 46 45 43 41 41 41 39 39 39 39 40 41 40 40 39 38 39 37 36 36 37 36 37 39 39 41 42 41 38 34 32 32 31 29 33 35 34 32 37 38 37 40
47 45 43 42 41 40 40 39 39 39 41 40 40 40 39 37 37 36 35 35 35 35 35 35 36 37 38 41 40 37 22 24 26 22 24 23 27 31 32 30 30 29 30
46 44 42 40 39 39 39 38 37 38 39 38 38 39 38 37 36 34 34 33 34 32 27 26 26 27 29 41 39 32 27 27 27 29 29 30 29 40 38 30 28 27 28
44 42 41 40 39 38 37 37 37 39 38 38 38 39 38 37 35 35 34 34 30 25 24 24 26 37 30 42 40 33 29 25 29 27 29 37 35 38 38 28 26 25 26
43 42 41 39 39 38 37 36 37 37 39 39 39 38 38 37 36 35 32 25 21 21 21 27 27 28 31 32 41 39 30 29 29 29 27 29 37 38 37 37 26 28 29
42 41 39 38 37 37 37 35 36 38 39 38 38 37 37 38 36 32 28 28 27 28 27 27 27 28 27 38 39 40 38 35 29 28 27 27 36 37 36 33 35 36 31
41 41 38 36 36 36 36 35 37 38 38 37 36 37 38 33 32 29 29 28 28 28 28 27 27 27 29 27 37 38 38 37 30 30 33 36 36 36 31 34 35 33 25
40 40 38 37 34 36 37 38 38 39 38 36 37 37 33 31 30 30 30 29 28 28 29 28 28 26 27 27 28 30 27 32 31 32 27 32 33 33 31 29 28 27 26
40 40 39 37 37 37 39 39 39 39 38 37 32 31 30 31 29 29 29 29 29 30 28 29 29 27 26 29 33 33 31 28 32 30 26 24 24 23 24 25 25 25 26
39 39 39 39 38 40 39 39 39 39 38 35 30 29 29 28 28 28 27 38 37 39 38 37 32 31 35 37 37 36 36 36 36 27 23 21 20 20 22 23 23 23 23

GFSMW_sfc_temp_069.txt.gz
Temp
55 56 56 55 56 56 57 57 61 61 63 63 63 63 63 64 63 65 67 66 66 66 64 63 63 62 62 64 61 60 59 58 55 55 55 56 59 59 56 54 54 56 58
55 56 55 53 55 54 55 56 57 58 59 60 61 63 63 63 64 64 65 65 65 65 64 62 63 62 62 61 60 59 57 57 55 55 54 55 57 53 56 54 57 55 55
55 54 54 53 54 54 54 56 56 57 58 58 58 58 59 61 61 62 62 63 64 64 64 64 63 62 60 60 60 59 58 61 56 56 58 52 50 49 52 52 53 56 50
52 53 54 54 54 54 55 55 56 57 58 57 57 56 56 56 56 57 58 58 60 61 62 62 62 62 61 60 60 60 59 58 58 53 56 56 52 51 51 51 50 50 51
51 52 53 55 55 54 53 53 55 55 55 55 55 54 54 54 55 55 56 56 56 57 57 59 60 60 60 60 59 59 58 58 58 56 55 54 55 52 50 52 52 51 51
50 51 52 53 52 51 52 52 53 53 53 53 52 52 52 51 51 51 51 52 53 53 54 55 55 58 59 59 59 59 58 58 58 57 58 57 55 53 52 50 51 49 49
47 48 49 49 50 50 50 52 51 50 51 51 50 50 50 49 49 49 49 49 50 50 50 51 52 53 55 57 57 57 57 57 56 56 57 57 58 58 57 54 53 49 47
47 48 49 49 49 49 49 49 49 49 49 49 48 47 48 48 48 47 47 47 47 49 49 49 50 51 52 57 59 58 56 55 54 53 53 56 56 56 55 54 52 47 43
47 48 49 49 48 48 48 48 47 47 47 46 46 44 44 45 44 44 45 45 45 51 47 48 47 48 48 50 51 52 53 54 52 53 54 53 50 50 50 51 51 51 47
48 48 48 48 47 47 46 46 47 46 45 44 44 43 42 42 42 42 41 42 43 44 45 45 45 45 45 45 46 46 46 49 49 49 48 46 45 45 45 45 46 46 46
48 48 47 47 47 46 45 45 45 45 44 43 42 41 40 41 40 40 40 40 41 42 42 43 42 42 41 41 42 42 42 46 46 45 44 43 44 43 43 43 43 43 43
47 46 46 45 44 44 43 43 43 43 42 42 40 40 40 39 38 38 39 40 40 41 41 41 40 40 40 39 39 39 39 39 39 39 41 39 42 40 41 40 39 39 39
48 46 44 44 43 42 42 42 42 41 41 41 39 38 38 38 37 37 38 39 39 39 40 40 39 38 38 37 37 37 37 38 39 40 39 39 40 38 38 36 37 37 38
47 45 44 44 43 43 42 41 40 41 40 39 38 37 38 42 41 37 37 38 39 39 38 39 39 38 37 36 36 36 37 38 38 39 39 39 38 36 34 34 33 36 36
46 45 45 44 43 42 41 41 40 40 39 38 37 37 41 42 42 41 41 41 41 40 42 42 42 42 41 40 35 37 37 37 35 36 37 39 42 43 41 37 35 35 34
47 46 46 44 42 40 40 41 40 39 39 37 36 38 41 41 40 39 39 39 39 39 39 40 40 40 42 42 40 36 34 34 33 32 33 35 36 36 42 41 41 40 33
48 47 45 44 42 40 40 39 39 39 38 37 38 40 40 39 38 38 38 37 37 37 37 37 39 39 41 42 40 37 33 31 27 25 25 30 32 32 30 35 37 37 40
47 46 45 43 42 41 40 39 39 39 39 38 39 40 39 38 37 37 36 35 36 35 35 34 33 32 37 41 39 35 19 21 21 20 22 23 28 32 31 29 29 28 30
45 45 43 41 40 39 38 38 37 38 38 38 39 39 38 37 36 34 34 33 34 31 25 24 23 26 29 41 39 32 27 27 27 29 28 29 29 39 39 29 27 27 28
44 42 41 40 38 37 38 36 36 36 36 38 38 39 39 37 35 35 34 30 29 24 23 23 25 37 29 41 39 32 29 25 29 27 29 36 35 39 39 28 26 24 26
42 42 41 39 39 37 37 36 35 35 39 39 39 38 38 37 36 35 34 22 27 21 20 25 26 28 31 32 41 39 31 30 30 29 28 29 37 38 38 37 27 28 29
42 41 39 38 38 37 37 35 35 38 39 38 38 37 37 38 37 33 27 27 26 25 25 25 26 28 28 37 38 40 39 35 30 29 28 28 35 38 37 33 36 37 31
41 41 39 37 36 36 36 35 35 38 38 37 37 37 37 36 37 29 28 27 26 25 25 25 25 27 30 28 36 37 38 36 31 31 33 35 36 35 31 34 36 32 25
41 40 39 37 36 35 36 36 37 39 38 37 37 37 36 33 30 29 30 28 26 25 26 26 26 25 27 27 28 30 28 33 32 32 27 32 32 32 31 29 28 27 25
40 40 39 37 37 36 36 37 39 39 37 37 36 36 35 34 28 28 28 28 27 28 26 27 28 26 25 29 32 32 30 28 32 29 26 24 24 23 23 24 24 24 25
39 39 40 38 38 38 38 39 40 39 37 35 35 33 30 28 28 27 27 37 37 39 40 38 31 31 36 37 38 37 37 36 36 28 24 22 20 19 21 22 22 22 23

GFSMW_sfc_temp_072.txt.gz
Temp
54 54 53 54 55 56 57 57 59 60 63 63 62 62 63 63 63 64 66 65 65 64 63 62 61 60 60 61 60 59 59 58 56 58 58 56 56 56 58 61 57 55 56
52 52 53 51 55 54 54 55 56 57 58 59 60 62 62 62 63 63 64 65 65 65 64 62 61 61 60 60 59 58 56 56 56 58 55 55 58 53 55 53 54 54 53
54 52 51 51 52 53 53 55 55 56 56 56 57 57 58 59 60 61 61 62 63 63 63 63 63 62 61 60 59 58 58 58 56 58 59 53 52 53 55 56 52 52 50
52 53 52 51 51 52 54 55 56 55 56 55 55 55 54 55 54 55 56 57 57 57 59 60 62 62 60 59 59 59 58 58 57 53 55 54 55 52 52 55 53 53 51
51 51 51 52 52 52 51 52 54 54 54 54 55 53 53 52 52 53 53 53 53 54 54 55 56 61 61 59 59 58 57 56 56 54 54 55 54 53 51 52 51 50 51
49 49 50 51 49 49 50 51 51 51 52 52 51 51 51 51 51 50 50 50 51 51 51 52 52 53 57 60 60 58 58 57 57 58 58 57 55 53 51 49 51 52 53
47 47 47 48 48 48 48 50 50 49 49 49 48 49 48 48 48 48 48 48 49 49 48 50 50 51 53 58 59 59 58 58 58 58 57 58 58 57 56 53 52 50 48
45 47 47 47 47 48 47 47 47 47 47 47 46 45 46 46 46 45 46 45 46 47 47 48 48 48 50 51 55 58 57 56 55 54 55 55 54 53 53 53 52 49 45
45 46 46 46 46 46 46 46 46 45 45 44 44 43 43 43 43 43 43 44 44 49 46 46 45 45 46 48 49 49 50 53 52 51 52 52 49 49 48 49 49 49 45
45 46 46 46 46 46 45 45 45 44 43 43 42 41 40 41 41 41 40 41 41 43 43 43 43 42 43 43 45 44 46 48 48 48 47 46 46 45 45 45 46 46 45
45 45 45 45 45 44 44 43 44 43 42 42 40 39 39 39 39 39 39 39 40 40 41 41 40 40 39 40 40 41 42 47 45 45 44 43 44 42 42 43 43 42 42
45 45 44 44 43 43 42 42 42 41 41 40 39 38 38 38 37 37 38 39 38 39 39 39 38 38 38 37 37 37 37 37 37 38 38 37 41 37 40 40 39 38 39
45 44 43 42 42 41 41 41 40 40 39 39 38 37 37 37 36 36 37 38 38 38 38 38 37 36 36 36 36 36 37 38 37 38 38 36 39 37 37 37 34 31 35
46 44 43 42 41 41 41 40 39 39 39 38 37 36 37 41 40 37 40 42 40 37 38 39 40 38 35 37 39 39 38 38 38 39 40 39 37 36 35 35 34 35 33
45 44 44 42 42 41 41 40 40 39 38 37 37 37 40 42 42 41 41 41 41 41 42 42 42 42 41 38 37 37 37 36 36 36 37 38 41 43 41 37 35 32 30
45 45 45 44 42 41 41 41 40 39 39 38 37 38 41 41 40 40 39 39 39 39 40 40 40 40 41 41 39 36 34 34 33 32 30 33 34 35 41 41 41 40 30
46 46 45 44 43 42 42 40 39 39 38 37 38 39 40 39 39 39 38 37 37 38 37 37 38 38 39 41 39 37 29 26 22 21 23 29 32 32 29 35 37 37 40
47 46 46 44 42 40 40 39 38 37 37 37 37 40 39 38 38 37 36 36 36 36 35 31 32 32 36 41 39 35 16 16 17 19 21 23 27 32 30 29 28 28 29
46 46 44 42 41 41 39 39 37 38 37 36 38 39 39 37 36 35 34 34 34 31 25 25 25 27 29 40 39 32 26 26 26 29 28 30 29 39 38 29 27 27 28
44 43 41 40 39 38 38 37 36 36 36 37 39 39 39 37 35 35 35 33 30 27 24 25 25 36 28 40 39 32 29 26 30 28 29 36 35 39 39 28 27 25 26
42 41 40 39 39 37 37 36 35 34 37 39 39 39 38 37 36 35 32 26 29 24 21 25 25 26 30 30 41 38 30 30 30 30 28 30 37 38 38 36 27 28 28
41 41 39 39 38 37 37 35 34 37 37 39 38 37 37 38 36 34 29 27 26 26 25 24 25 27 26 36 38 40 38 35 30 29 28 29 37 37 37 33 37 37 31
40 40 39 38 37 37 38 36 35 37 37 38 37 37 37 36 36 31 28 27 26 25 24 25 24 26 29 27 36 37 38 36 30 31 33 35 35 35 31 34 36 32 25
40 40 38 37 36 36 37 37 36 37 38 37 37 37 36 34 34 30 30 27 25 24 25 25 26 25 26 26 27 30 27 33 32 32 27 32 32 32 30 28 27 26 25
42 41 40 39 38 37 37 37 38 38 37 37 36 36 36 36 32 29 27 28 26 28 26 26 27 25 25 29 32 31 30 27 31 29 26 24 23 23 23 23 24 24 24
41 40 40 39 38 37 37 37 39 38 37 36 35 35 35 34 32 27 27 35 37 38 39 38 32 31 36 38 38 38 38 37 37 27 23 21 20 19 21 21 21 21 22

GFSMW_sfc_temp_075.txt.gz
Temp
64 63 64 64 63 64 65 68 68 68 70 69 69 68 69 69 69 70 72 72 72 71 70 70 69 68 68 69 69 68 67 67 67 65 68 69 70 67 67 72 71 69 67
62 62 61 62 62 62 62 63 64 65 66 68 69 69 69 70 71 70 71 71 71 70 69 68 68 68 66 66 67 66 65 64 63 64 63 61 67 68 68 68 66 67 66
61 61 60 60 59 60 60 61 61 62 62 63 64 64 65 66 66 67 67 65 66 66 67 67 67 67 66 66 67 65 64 63 63 64 61 57 57 58 65 66 65 65 64
57 59 58 57 58 58 58 59 60 60 60 61 62 63 62 62 61 61 61 62 61 61 61 62 64 64 64 63 64 65 64 62 61 59 60 61 59 55 55 60 62 60 64
57 58 57 57 57 56 56 57 58 58 58 59 60 60 59 59 59 59 59 59 59 58 58 59 59 61 63 63 63 63 61 62 62 60 59 59 57 58 54 52 57 63 63
57 56 55 55 54 54 55 55 56 55 56 57 57 57 57 57 58 57 57 57 57 57 56 56 57 58 59 60 61 61 60 61 60 61 60 60 58 56 54 52 53 58 62
55 54 53 53 52 52 53 54 55 53 54 54 54 54 54 54 54 53 54 54 55 54 53 54 54 55 56 58 61 61 60 60 59 60 59 60 59 58 58 56 55 56 58
52 53 54 52 52 52 53 53 52 51 52 52 51 51 52 52 51 51 52 51 52 52 52 52 52 52 53 55 57 59 58 58 57 56 56 55 54 54 53 53 52 51 52
50 51 51 52 52 52 52 52 51 50 50 50 50 49 49 49 48 48 49 49 49 52 50 50 50 50 50 52 53 54 54 55 54 53 54 52 51 50 50 51 51 49 46
48 49 50 51 51 51 51 51 51 50 49 49 49 47 46 46 46 47 46 46 47 48 48 48 47 47 48 49 50 50 51 52 51 51 51 50 49 49 49 48 48 48 47
48 49 49 50 50 50 49 49 49 48 47 47 46 45 45 44 45 44 44 45 45 46 45 45 45 45 45 46 47 47 48 49 48 48 48 45 45 44 45 47 47 44 44
48 48 49 48 48 48 48 48 47 47 47 45 45 43 43 43 43 42 43 44 43 44 44 44 43 43 43 44 44 43 43 43 43 43 44 43 44 43 44 43 41 40 43
48 48 47 47 47 47 47 46 46 46 45 44 44 43 42 42 41 41 42 43 43 43 43 43 42 41 41 41 42 42 42 42 42 42 42 42 42 40 40 40 40 41 41
48 47 46 46 47 46 46 45 45 45 43 43 42 42 43 44 42 42 42 43 43 43 43 44 42 39 40 41 41 40 40 40 40 41 41 42 42 41 40 39 39 39 40
47 47 46 46 46 45 45 44 44 43 43 42 41 41 44 44 43 43 42 42 43 43 44 43 43 42 41 40 39 39 39 39 38 39 40 41 43 44 43 41 39 38 38
48 47 47 46 46 45 45 44 43 42 42 41 40 41 43 43 42 41 41 40 40 41 42 42 42 41 41 41 40 38 37 37 37 34 33 36 37 39 42 41 42 42 38
49 48 48 48 47 46 45 44 43 42 41 41 40 42 42 41 40 40 39 39 38 39 39 39 40 40 41 41 40 37 34 32 31 32 33 35 36 36 36 37 37 39 40
49 49 49 48 47 45 44 43 42 41 40 40 40 41 41 39 39 38 38 37 38 37 37 36 37 38 40 41 39 35 30 30 29 31 32 34 36 37 36 35 34 35 36
50 49 49 47 45 44 43 42 40 40 39 39 39 41 41 39 38 36 36 35 35 34 32 32 33 34 37 40 38 35 33 33 33 35 36 37 37 40 37 34 32 33 34
47 46 45 43 43 42 42 41 39 39 38 39 40 41 40 39 37 36 36 35 34 31 32 31 32 37 35 40 39 35 34 34 35 35 35 37 39 39 39 35 33 31 32
43 42 43 42 42 40 41 39 38 38 40 40 40 40 39 38 37 36 35 32 31 30 30 32 32 33 35 37 40 38 36 35 34 34 34 35 38 38 39 35 34 33 34
41 41 41 40 39 40 40 38 37 39 39 40 39 38 38 38 37 35 32 32 31 32 31 32 32 33 34 37 39 41 37 37 35 33 34 35 37 37 37 36 37 37 33
42 42 41 39 39 39 40 38 38 39 39 39 38 38 38 38 37 35 32 31 30 31 31 31 31 33 34 34 37 38 39 38 35 35 35 36 35 34 33 35 36 32 32
41 41 40 40 38 38 39 40 39 40 39 38 38 37 37 36 36 35 34 32 30 30 31 31 31 31 32 32 34 35 35 36 36 35 33 34 34 33 32 31 31 31 31
43 42 41 41 41 40 40 40 39 39 38 38 38 37 37 37 35 34 33 33 33 33 32 32 33 31 31 33 35 34 33 34 34 33 31 30 29 29 29 29 29 29 30
42 41 41 40 40 39 39 39 40 39 38 37 37 36 36 36 35 34 32 36 37 37 38 39 34 34 37 38 39 38 38 38 38 31 29 28 28 27 27 27 27 27 28

GFSMW_sfc_temp_078.txt.gz
Temp
72 73 74 74 74 77 76 77 77 79 80 78 78 78 77 79 79 81 80 80 81 80 79 79 79 78 77 78 78 77 74 74 76 73 74 76 77 77 79 79 81 80 77
71 72 73 72 73 76 76 76 77 77 78 79 79 79 79 79 81 80 79 79 78 78 76 76 75 75 74 75 74 73 71 72 74 70 67 64 73 78 77 77 76 76 77
68 70 73 73 71 72 72 72 72 73 74 74 74 73 74 74 74 75 75 73 73 69 69 70 69 69 69 68 69 70 69 66 70 70 67 62 64 69 73 73 75 73 74
69 66 67 70 70 70 68 70 69 70 70 71 72 72 73 72 73 72 71 71 69 68 67 68 68 69 67 66 67 68 65 65 63 65 65 68 63 58 57 68 72 71 71
71 68 66 66 67 66 66 68 68 68 68 69 71 72 70 70 69 69 68 68 67 65 64 65 65 66 67 65 66 66 64 63 62 63 63 62 62 61 57 55 63 67 69
69 69 69 65 64 63 63 65 66 65 66 67 68 68 67 67 67 66 66 67 66 65 62 62 63 64 65 64 64 65 65 63 64 64 64 62 60 59 58 54 56 58 63
70 71 65 63 62 61 62 63 65 63 64 64 65 65 64 64 63 63 64 64 65 63 61 60 61 61 62 63 64 64 63 63 61 61 61 62 60 60 59 57 57 55 58
71 69 67 64 62 61 62 63 63 61 62 62 61 62 62 63 62 61 62 62 62 61 59 59 59 59 60 61 62 64 63 60 59 59 60 57 55 56 55 55 53 51 54
62 61 65 64 62 62 62 62 61 60 60 60 60 60 60 59 58 57 59 59 59 58 58 57 57 57 57 58 59 60 59 58 58 55 56 54 54 55 56 56 55 51 48
60 59 60 62 62 63 62 62 62 60 60 59 59 58 57 56 56 57 56 55 56 56 55 55 55 55 55 56 57 57 55 55 55 56 56 56 56 55 55 55 54 53 50
58 58 59 59 60 61 60 61 60 59 58 58 57 56 55 54 54 55 54 54 54 53 53 53 53 52 53 54 55 55 54 54 53 52 53 51 51 51 52 52 52 52 50
58 60 60 58 57 58 58 59 59 59 58 56 55 54 53 52 53 52 52 52 52 52 52 51 51 51 50 51 52 51 51 51 50 50 51 49 50 49 50 49 48 47 46
57 58 59 59 60 59 58 58 58 58 56 55 54 53 52 52 51 50 50 50 50 50 50 50 49 48 47 47 48 49 50 50 49 49 48 48 48 46 46 46 47 47 48
57 58 59 60 60 59 59 58 57 57 54 54 53 52 52 52 51 49 48 48 49 49 49 49 47 44 44 44 44 44 45 45 45 45 46 46 46 45 44 44 44 45 46
58 58 58 59 59 58 58 58 57 55 54 52 51 51 51 51 50 49 47 46 46 47 47 47 45 44 43 43 42 42 42 42 42 43 44 43 43 44 44 45 44 44 45
58 59 59 59 59 59 57 55 54 53 52 51 50 50 50 49 48 46 45 43 43 44 44 44 44 43 43 42 42 43 42 42 41 37 38 41 41 41 42 42 42 43 42
60 60 60 60 60 59 58 55 55 53 51 50 50 49 48 47 45 44 43 41 41 41 41 43 43 41 42 42 40 40 40 38 37 37 39 40 41 41 41 40 40 40 40
61 61 62 61 61 60 58 57 54 51 50 49 48 48 47 45 43 41 40 40 40 40 40 41 42 43 42 41 39 37 33 33 34 36 38 40 41 41 41 41 39 40 41
62 63 63 62 60 58 57 54 51 50 49 47 47 47 46 44 41 39 38 36 37 37 38 39 38 40 41 40 39 39 40 39 39 41 42 42 42 40 38 39 37 39 39
60 59 58 56 57 55 54 51 50 49 47 48 47 47 46 44 40 39 38 37 37 35 38 34 38 39 41 40 39 39 42 40 40 40 40 38 41 40 38 40 39 37 38
53 54 54 54 55 53 52 49 49 47 48 47 47 46 45 42 40 38 38 35 34 36 37 38 39 40 42 42 40 39 41 41 40 40 40 41 38 39 39 37 39 38 39
49 52 52 50 50 50 49 48 46 47 46 46 44 43 41 40 39 37 35 35 36 38 38 39 39 40 41 40 42 41 40 39 40 39 40 40 37 37 37 38 37 37 35
49 49 50 48 48 48 49 45 44 46 46 45 43 42 40 39 39 36 35 35 38 39 39 38 39 40 40 41 40 41 41 39 39 39 38 36 36 35 36 35 36 34 37
51 51 50 48 46 47 46 47 44 46 46 44 43 41 39 38 38 39 38 39 38 38 39 38 38 39 39 39 40 40 40 39 38 37 38 37 36 33 34 34 35 36 36
47 48 47 45 45 46 45 44 42 43 42 44 43 40 39 39 38 38 38 39 41 41 40 40 40 39 38 39 41 39 38 39 39 37 36 36 35 35 35 35 34 35 34
48 48 48 45 43 42 41 42 42 42 42 42 42 40 38 39 39 38 36 39 40 39 40 40 39 40 41 40 40 39 39 39 38 36 35 35 35 34 34 33 34 34 32

GFSMW_sfc_temp_081.txt.gz
Temp
76 76 76 78 79 79 80 80 80 81 82 79 78 79 77 80 81 84 84 83 83 83 81 80 80 79 78 78 78 77 75 73 75 70 71 73 76 77 77 78 79 78 78
75 74 76 77 76 77 78 79 80 80 80 80 79 80 80 81 82 81 81 81 81 79 77 76 75 74 72 74 74 73 70 70 71 67 66 62 70 75 77 77 76 76 75
75 73 74 75 76 76 76 77 78 79 78 79 77 74 75 75 75 76 75 74 75 71 70 69 69 68 68 67 67 67 66 64 67 67 64 62 62 67 72 73 74 74 73
76 74 71 72 75 75 73 74 74 74 74 74 74 73 73 73 74 74 73 72 71 70 69 69 70 69 68 67 66 67 67 66 64 66 64 64 63 60 60 69 70 71 71
74 74 70 70 73 72 68 71 72 71 71 72 74 73 72 72 71 71 70 70 68 67 66 66 67 67 67 67 66 66 66 66 64 64 64 62 61 61 56 56 59 66 67
73 75 74 71 69 67 66 67 69 69 70 70 70 70 69 69 68 68 68 68 68 66 64 64 64 65 65 65 64 64 63 65 64 63 62 61 59 58 56 55 56 58 62
72 74 71 67 67 63 63 65 67 66 68 68 69 68 67 68 67 66 66 66 66 64 63 62 62 62 62 63 63 64 65 64 61 61 62 63 60 59 59 57 56 55 56
72 72 73 69 67 64 63 64 65 65 66 66 65 66 65 65 64 63 64 63 63 62 61 61 61 61 60 61 62 62 62 62 59 58 58 56 55 55 55 55 54 52 54
70 66 70 70 68 65 64 64 65 64 64 64 64 63 63 62 60 60 61 61 60 60 59 59 59 59 58 58 59 60 59 59 59 57 55 54 54 54 55 55 56 53 48
67 66 65 68 67 66 65 65 65 63 63 63 63 62 60 60 59 59 58 58 58 58 57 57 57 57 57 57 57 58 56 56 54 56 56 54 54 54 55 54 55 54 52
64 65 64 66 65 65 63 63 63 62 61 61 60 59 58 57 57 57 56 56 56 55 55 55 55 54 54 55 56 56 55 56 53 53 52 51 53 52 52 52 53 52 50
62 63 63 63 63 62 62 62 62 61 60 60 59 58 56 55 55 55 54 54 54 54 53 53 53 53 52 53 53 53 53 53 51 52 52 50 51 50 51 49 48 47 47
61 63 62 60 61 60 61 61 61 61 60 59 58 56 55 55 54 53 52 52 52 52 52 52 51 50 49 49 50 51 51 51 50 50 50 49 49 47 47 47 46 46 48
61 62 61 61 62 63 62 61 60 61 58 57 57 56 55 55 54 52 51 50 51 51 51 50 49 47 46 46 46 47 46 46 46 46 47 46 45 44 44 44 43 44 45
61 61 61 62 63 62 62 62 61 59 57 55 55 55 55 55 54 52 50 49 49 49 48 48 47 45 45 44 43 43 43 43 43 44 43 43 43 43 43 44 42 43 43
63 62 62 63 63 62 62 61 59 58 57 55 54 54 54 53 51 50 48 47 45 45 46 46 45 44 45 43 43 44 43 43 41 37 38 41 41 42 42 43 43 42 39
65 63 63 63 64 64 63 60 59 58 55 54 54 52 52 51 49 48 46 44 43 43 42 43 43 42 43 42 42 43 42 38 37 37 38 39 41 41 40 41 41 40 41
64 65 66 66 66 66 64 63 60 57 54 53 53 52 51 49 47 45 44 42 42 41 41 42 43 43 42 41 41 38 33 33 34 36 37 38 40 39 40 39 37 38 39
65 65 68 68 66 65 63 61 57 55 53 52 51 51 50 47 45 42 41 38 39 38 38 40 39 40 40 41 40 40 38 37 38 40 41 41 41 40 39 37 35 37 36
62 63 66 65 64 63 61 57 55 53 52 51 51 51 49 47 44 42 40 38 38 35 36 36 38 40 40 41 40 39 40 39 38 39 39 39 40 40 39 38 36 34 35
58 61 61 60 61 60 57 54 54 51 53 52 51 50 48 46 45 41 39 35 34 35 37 38 39 41 43 42 41 40 40 39 38 37 37 38 38 39 39 38 36 35 36
53 56 56 55 55 55 54 51 50 51 51 50 48 47 46 43 41 38 36 35 35 36 38 39 39 40 42 41 41 41 40 41 37 36 37 37 38 38 38 37 38 38 36
51 52 52 50 50 52 53 50 48 49 48 47 46 46 44 42 39 36 35 34 36 37 39 39 39 38 39 40 41 42 42 40 37 37 38 37 37 37 35 36 37 36 33
53 53 52 51 49 50 50 51 49 48 46 45 46 45 41 39 38 37 37 36 36 38 39 38 37 38 38 38 39 38 39 41 38 37 35 36 36 36 35 33 34 33 33
51 51 51 51 50 49 48 50 48 46 43 44 45 44 42 40 37 38 38 38 42 41 40 39 38 37 36 38 40 39 37 37 37 37 34 32 32 32 32 32 32 32 32
47 49 50 48 46 43 42 42 42 42 41 40 41 42 41 40 38 37 37 41 42 43 43 43 41 38 42 43 43 42 41 41 41 34 32 32 32 31 32 32 32 31 31

GFSMW_sfc_temp_084.txt.gz
Temp
68 68 69 67 70 72 71 69 70 72 76 73 72 69 71 73 74 75 77 78 78 77 73 71 74 73 72 73 72 71 69 64 65 63 63 64 66 67 68 68 67 68 70
65 67 68 67 69 68 68 68 71 71 70 71 70 69 71 70 73 74 74 75 75 71 71 70 68 68 67 68 68 67 65 66 67 63 62 59 61 65 66 65 67 66 65
66 65 67 67 67 68 69 70 69 70 68 69 68 67 66 67 67 69 69 68 70 66 65 67 66 65 65 65 65 65 64 62 65 65 62 55 54 57 62 64 64 63 61
71 67 66 66 66 67 66 67 68 67 67 66 65 64 63 63 64 65 65 64 64 63 63 63 64 62 63 64 64 65 63 63 59 60 62 61 60 55 55 61 61 61 62
65 67 64 65 66 63 62 64 65 65 65 64 65 63 63 61 62 61 61 62 61 60 60 60 60 60 60 59 59 59 59 59 59 60 61 58 58 59 56 54 57 59 61
64 65 64 64 62 60 61 62 62 62 63 63 63 62 61 59 58 58 58 59 58 58 58 60 58 58 58 57 57 58 60 60 61 61 60 58 57 56 56 55 55 55 58
63 63 59 59 58 58 59 60 61 60 61 61 61 61 60 60 59 59 58 58 58 56 55 56 55 55 55 56 56 56 56 58 59 58 59 60 59 57 56 56 54 53 54
61 62 60 58 57 57 58 59 60 60 61 60 59 58 58 56 55 55 55 55 54 53 54 54 54 54 54 54 54 55 55 57 57 56 56 55 55 55 55 55 53 50 50
59 60 60 60 58 56 57 57 59 59 59 58 57 56 56 56 54 54 54 53 53 56 54 54 53 53 53 53 53 52 51 53 55 52 54 53 53 53 53 54 53 51 46
54 57 58 58 58 60 57 58 58 57 57 58 56 56 55 54 54 53 51 51 51 51 51 51 51 50 51 51 51 50 51 53 52 52 53 52 52 51 51 51 52 51 49
55 56 57 57 57 59 60 58 57 57 55 55 55 53 52 53 52 51 50 49 49 49 49 49 49 48 48 49 48 48 49 51 51 50 50 49 50 49 49 49 49 48 47
54 55 55 55 55 54 57 59 58 57 56 55 54 51 51 51 50 49 49 49 48 48 47 48 47 47 47 46 46 46 47 47 46 46 49 47 50 46 47 46 44 42 41
51 53 53 53 53 53 53 53 54 54 54 53 53 51 49 49 48 47 47 48 47 46 46 47 45 44 44 43 43 44 44 44 43 44 46 44 46 44 42 44 43 43 45
55 53 51 51 51 53 53 53 53 53 53 52 50 49 48 49 48 47 47 47 46 46 45 45 43 43 42 44 44 45 44 44 43 43 43 43 43 42 42 41 38 40 42
54 53 52 51 52 52 52 53 52 51 50 50 49 49 49 49 48 47 45 44 44 44 44 45 45 44 44 44 42 43 42 42 41 41 42 41 43 44 43 38 35 37 36
56 55 55 54 53 52 52 52 50 49 49 48 47 48 49 48 47 45 44 42 41 41 43 44 43 43 45 43 44 43 41 41 39 34 35 36 39 41 44 44 43 40 33
56 56 55 54 54 53 53 51 49 49 48 47 48 47 47 46 44 44 44 43 39 41 41 42 42 41 41 43 44 44 39 34 33 33 33 36 39 38 36 41 42 41 43
56 56 55 55 55 55 54 52 51 48 47 46 47 46 46 44 43 42 42 40 39 40 40 40 41 40 40 42 42 39 32 31 30 30 32 33 35 37 36 34 33 32 32
54 54 54 55 55 55 53 52 49 47 46 45 45 45 45 42 42 41 40 36 38 38 37 38 37 35 35 41 41 35 32 31 32 35 36 37 35 40 40 34 32 31 32
52 53 54 55 54 52 52 49 47 46 45 46 45 45 44 42 43 41 39 36 37 35 35 35 36 39 34 41 41 39 34 33 33 34 34 40 37 41 40 33 31 29 29
49 51 50 50 50 51 50 47 45 44 46 47 46 44 43 42 43 40 38 35 34 34 34 34 33 35 36 37 42 41 36 34 33 32 31 32 39 39 40 38 30 31 31
48 50 47 46 47 48 48 45 43 45 46 45 44 42 41 43 41 38 35 35 35 34 35 35 33 35 36 41 42 42 41 41 34 32 32 32 39 38 38 36 39 39 36
46 48 46 45 46 47 47 44 42 44 44 42 41 40 40 41 39 35 34 34 35 35 35 35 32 32 34 35 43 43 42 41 35 33 36 38 38 37 36 37 37 38 30
46 47 45 43 44 45 46 44 43 43 42 43 43 43 40 39 37 37 36 35 34 35 36 34 32 32 32 33 33 35 36 41 38 38 32 35 35 36 34 33 33 30 29
47 47 45 44 42 43 43 43 44 42 41 43 42 41 40 39 36 36 36 35 37 38 37 34 34 32 31 32 37 35 33 33 35 33 30 29 28 28 28 29 29 29 29
45 46 47 43 42 41 43 43 44 43 42 41 40 40 38 38 37 36 36 41 41 42 43 43 38 36 40 42 43 42 41 41 41 33 30 28 27 28 29 29 29 29 30

GFSMW_sfc_temp_087.txt.gz
Temp
63 66 67 66 67 66 68 70 69 69 70 67 66 66 67 70 72 73 75 76 75 74 72 70 71 71 71 71 70 69 68 66 66 65 64 63 63 63 64 64 64 68 66
60 62 64 65 67 67 67 68 70 68 70 71 68 66 66 67 69 69 70 72 71 70 70 69 68 68 67 67 67 66 65 65 66 64 62 57 59 61 61 61 64 65 66
59 60 61 63 64 64 65 67 68 67 67 68 68 65 65 65 66 66 64 66 67 65 65 65 65 65 65 64 64 64 63 62 64 65 62 56 52 54 59 61 62 63 61
59 61 62 61 63 64 65 66 66 65 66 66 65 64 63 63 63 65 62 62 63 62 61 60 61 61 59 60 61 63 61 62 60 60 60 59 59 57 53 57 59 60 63
59 60 61 64 64 62 62 64 64 62 62 63 63 63 61 61 59 59 60 60 59 59 59 58 57 57 57 57 57 57 57 57 56 57 59 60 59 56 54 51 54 56 59
59 60 62 63 61 59 60 61 62 61 60 61 62 61 60 58 57 57 56 56 56 56 56 57 56 55 55 55 55 56 56 56 56 57 60 58 56 54 54 53 52 55 54
58 58 56 56 55 55 58 59 60 58 59 60 59 60 59 59 58 57 55 55 54 53 53 54 54 53 54 54 53 53 53 54 55 55 57 58 56 56 57 56 54 52 52
55 56 56 55 55 56 56 56 57 58 59 58 57 56 56 55 55 55 54 53 52 52 53 53 52 52 52 52 52 52 53 53 53 55 55 55 54 54 54 55 54 50 51
54 55 54 56 53 53 55 57 57 57 57 57 56 55 54 54 53 53 52 51 51 53 51 51 51 50 51 51 50 49 50 50 51 51 53 53 53 53 53 53 53 51 46
52 53 53 53 53 53 54 55 58 57 57 57 56 54 54 53 53 50 50 50 51 51 49 49 49 48 48 48 48 48 49 49 49 52 50 50 51 51 51 51 51 51 49
51 52 52 52 52 52 53 52 55 56 56 55 54 53 52 51 50 49 49 50 48 48 48 48 47 47 46 46 46 46 47 47 49 49 48 49 50 48 48 48 48 47 47
51 51 51 50 50 51 53 53 56 56 55 53 53 52 51 50 48 48 49 49 48 48 46 46 46 45 44 43 43 44 44 45 44 45 46 47 49 45 46 45 44 44 43
50 50 49 49 49 49 51 52 53 53 52 52 52 50 49 49 48 48 48 48 47 45 45 45 43 42 42 41 41 42 41 41 41 43 45 45 45 43 43 43 43 41 43
51 49 48 48 48 49 50 51 51 52 51 50 48 48 48 48 47 45 45 45 44 43 43 43 42 42 41 42 41 42 42 41 41 41 42 43 42 42 41 40 38 41 42
50 50 48 48 48 48 48 49 49 48 49 48 47 46 46 47 46 45 44 44 43 43 42 42 41 43 44 44 42 43 42 41 40 41 41 41 43 44 43 38 35 36 36
52 51 51 50 49 47 48 49 48 47 47 46 46 46 46 46 44 43 41 40 40 40 41 41 41 42 44 44 44 43 41 40 39 36 36 36 39 42 44 44 44 39 34
52 52 51 51 51 51 52 50 48 47 46 45 45 45 45 44 42 41 40 39 38 39 39 41 42 41 41 44 45 44 39 36 35 31 32 34 38 37 35 42 42 43 43
50 52 51 51 51 52 52 50 49 48 46 44 44 45 44 42 41 40 39 39 37 36 38 40 40 40 41 43 43 40 33 29 27 28 30 32 33 35 35 34 33 32 33
48 49 51 51 51 52 53 51 48 46 45 44 44 44 43 41 39 38 38 38 35 35 36 38 37 37 37 42 41 34 30 30 31 34 35 35 34 41 41 34 31 31 31
46 47 48 51 50 50 52 50 47 45 44 44 43 43 42 41 39 38 39 38 36 33 35 35 36 38 32 42 42 36 31 30 31 32 34 41 37 41 40 32 31 28 29
46 47 45 44 46 47 51 47 45 44 45 45 44 43 42 40 40 38 39 37 34 34 35 35 36 36 34 35 43 42 35 33 32 32 32 34 41 41 40 37 30 31 31
45 45 44 43 44 45 47 43 43 43 45 43 42 41 40 41 40 39 37 36 35 34 34 34 34 34 33 40 42 43 41 40 34 33 32 33 40 40 40 37 39 40 36
44 44 42 42 43 45 45 44 43 44 43 42 40 39 39 39 39 37 35 34 35 35 34 34 34 30 32 33 42 43 43 42 34 34 35 38 40 39 38 39 39 39 30
43 43 42 41 41 44 45 44 43 43 42 40 39 39 37 38 38 37 36 35 34 34 35 34 33 30 30 30 32 35 38 42 38 38 35 37 36 36 33 34 34 30 29
45 45 44 43 42 43 42 42 42 41 40 40 40 39 40 39 36 36 36 35 37 38 36 35 35 31 29 32 36 35 33 33 35 33 30 30 29 29 29 29 29 29 29
44 45 45 44 42 42 42 43 43 43 42 41 41 40 39 38 37 35 35 40 40 41 41 42 38 35 40 41 42 41 41 40 40 34 29 28 29 28 29 29 29 29 30

GFSMW_sfc_temp_090.txt.gz
Temp
60 60 63 64 65 67 66 67 67 68 69 66 67 65 67 69 68 68 72 74 74 71 70 68 68 70 70 70 70 68 67 67 66 65 64 62 64 62 61 61 61 64 64
61 61 61 60 63 65 66 66 68 68 68 68 68 66 66 65 67 68 68 71 71 71 71 70 68 68 68 67 67 66 65 65 65 63 62 56 58 59 60 58 60 60 63
59 60 59 60 60 63 65 67 67 67 68 68 67 64 65 65 64 64 64 65 66 65 65 66 66 65 65 65 65 64 63 62 63 63 60 56 53 54 58 58 59 61 61
56 59 60 58 59 61 63 65 65 66 67 66 66 64 63 63 63 64 61 61 63 62 61 61 60 60 59 59 59 60 59 58 57 58 59 58 60 56 55 56 56 57 57
55 58 58 61 62 60 60 62 63 63 64 64 65 65 62 63 60 60 59 59 59 59 59 59 58 57 56 56 56 56 56 56 55 55 56 58 58 55 56 54 53 53 52
55 56 59 59 58 58 58 58 59 59 60 60 62 62 61 58 57 56 56 56 56 55 56 56 55 55 55 54 53 54 54 54 55 55 55 54 54 55 54 53 52 51 51
54 54 55 54 55 55 56 57 58 57 57 58 58 59 58 58 57 57 56 55 55 54 54 54 53 53 53 53 53 53 53 53 53 53 53 54 54 56 56 54 53 54 50
53 55 55 53 55 55 54 56 56 56 57 56 57 58 58 56 56 56 56 55 54 53 52 52 51 51 51 51 50 50 50 51 51 52 52 52 52 54 54 55 54 51 51
53 53 53 53 52 52 53 54 54 55 56 56 56 56 56 56 54 53 52 51 50 52 50 51 50 50 50 49 49 48 49 49 50 50 50 51 50 51 53 53 52 51 48
50 52 50 51 51 51 51 52 54 53 54 54 56 55 54 54 53 52 51 50 50 50 50 49 48 48 48 47 46 46 47 47 47 48 49 48 48 48 50 51 51 50 48
49 50 49 49 50 50 51 51 52 53 53 55 54 54 53 54 52 52 50 50 50 48 48 47 47 46 46 45 44 45 45 46 46 47 47 47 47 46 48 48 49 48 48
49 49 49 48 49 49 49 50 51 52 54 54 53 51 52 51 50 50 49 48 47 48 47 47 45 45 45 43 42 42 43 43 44 45 44 45 47 45 46 46 45 44 44
47 48 47 47 47 47 48 48 49 50 53 52 51 49 47 48 49 49 48 48 47 46 46 46 44 43 42 42 41 41 40 40 40 42 46 45 45 43 43 44 43 42 44
50 48 47 46 47 47 48 48 48 48 48 50 49 47 47 47 47 45 47 46 45 45 44 43 42 41 40 40 40 40 40 40 40 41 43 43 43 42 41 41 40 42 42
49 49 48 47 46 46 46 47 47 47 47 46 46 45 46 47 47 45 43 43 44 43 43 41 41 40 41 43 43 43 42 41 41 41 41 41 43 44 43 40 35 37 39
50 50 49 48 46 45 46 47 46 46 46 45 44 45 45 44 43 42 41 40 40 39 40 41 40 39 43 45 45 44 41 41 39 37 36 38 39 43 45 44 43 39 34
49 50 50 50 48 47 48 47 46 45 45 45 44 44 43 42 41 40 39 38 37 37 37 38 38 38 41 45 45 45 40 38 36 35 33 34 37 37 34 42 42 43 43
47 48 47 49 50 50 48 48 46 46 45 44 44 44 43 41 40 39 38 37 36 36 36 37 38 40 41 44 44 42 34 33 33 29 30 30 32 34 34 32 31 31 33
45 45 45 46 47 47 50 48 46 46 44 44 43 43 43 40 39 37 36 36 36 34 35 38 38 38 38 43 43 36 33 32 30 32 32 33 33 40 40 33 31 31 33
44 44 45 45 46 46 48 48 46 44 44 44 43 43 42 40 38 37 36 36 38 33 34 34 37 39 36 42 42 35 30 28 30 30 33 40 37 42 41 33 31 30 30
44 44 43 42 42 43 46 47 45 44 46 44 43 42 42 40 39 37 36 35 35 35 35 35 36 37 37 36 43 41 31 30 30 31 32 34 42 42 41 38 31 32 32
43 44 41 41 42 43 46 45 44 44 45 43 43 41 40 41 39 36 35 36 36 35 35 35 34 35 36 40 42 43 41 38 32 31 32 33 41 41 41 38 38 40 36
42 43 42 42 41 42 44 43 43 45 45 44 41 40 40 39 38 36 34 35 35 35 34 34 34 33 34 31 42 43 43 43 33 34 36 37 40 40 39 40 40 40 30
43 42 40 40 40 42 44 45 44 45 44 43 40 39 39 38 37 37 36 36 35 34 35 34 33 33 33 29 30 33 35 42 38 38 34 37 37 37 34 35 35 31 29
43 43 42 43 41 41 41 42 43 43 41 40 39 38 38 38 37 37 37 36 37 38 36 35 35 33 32 31 35 34 32 32 35 33 31 30 30 29 29 29 29 29 29
43 42 42 42 42 43 43 43 43 42 41 39 39 39 38 38 37 36 35 40 40 41 41 41 38 36 39 40 41 41 41 41 41 33 29 28 28 28 29 29 29 29 30

GFSMW_sfc_temp_093.txt.gz
Temp
59 61 63 63 64 64 65 66 67 69 70 68 66 65 67 68 67 69 72 72 69 69 68 67 66 66 65 68 68 68 67 66 66 65 62 61 62 60 59 59 59 61 62
58 59 60 60 63 65 66 65 68 67 69 70 69 67 67 65 67 68 69 70 70 70 70 69 68 68 67 68 68 67 66 66 66 63 61 55 57 57 58 58 58 57 59
57 58 57 59 60 61 63 65 65 67 67 68 66 64 64 64 63 64 64 65 66 66 65 65 65 65 65 65 65 64 64 62 61 61 60 55 51 53 58 58 58 59 56
56 57 58 57 59 62 61 64 65 65 66 64 64 64 62 62 63 63 61 61 62 62 62 62 61 61 60 59 59 59 58 58 56 56 58 57 57 54 52 56 55 57 57
54 57 58 59 60 60 60 61 62 63 64 64 65 64 62 62 61 60 60 58 58 59 59 59 59 58 58 57 58 56 55 55 55 54 54 54 54 56 54 50 51 52 52
53 55 57 59 58 57 57 58 60 61 60 62 62 62 62 60 59 58 58 57 57 56 56 57 56 56 54 53 53 52 53 53 53 53 54 54 52 51 50 50 54 53 50
51 53 53 54 56 56 56 56 57 57 57 58 59 60 60 59 59 58 57 56 55 55 54 55 55 53 53 53 53 53 52 52 51 52 52 53 52 55 53 54 53 51 49
49 51 52 53 53 55 55 56 56 55 55 55 56 56 57 57 57 57 56 55 55 54 53 52 52 52 51 51 51 50 49 50 50 51 51 51 51 51 52 52 53 51 50
50 50 51 51 52 52 53 53 54 55 54 54 54 54 55 54 54 54 54 53 52 52 51 50 49 49 49 48 48 47 47 48 48 49 49 49 49 49 49 51 52 52 49
49 50 49 49 49 49 50 51 52 52 52 53 52 52 52 53 53 54 52 52 51 51 49 49 48 47 47 47 46 46 46 46 47 47 47 47 47 47 47 48 50 50 49
48 48 49 48 48 49 50 50 51 51 50 50 50 49 50 50 52 53 53 52 50 49 49 48 48 48 46 46 45 44 45 45 45 45 45 46 48 44 45 46 48 48 48
49 47 47 47 47 48 48 49 49 50 50 50 50 48 49 50 51 48 51 51 50 49 49 48 47 45 44 44 43 42 43 42 42 44 43 44 47 45 43 46 45 45 45
48 48 47 47 46 46 47 48 48 49 49 49 48 48 48 48 46 46 46 48 47 46 47 46 44 43 42 41 40 40 40 40 40 41 43 46 45 44 43 44 43 43 44
49 47 46 47 46 46 46 47 47 47 47 47 47 47 48 48 45 46 47 45 47 45 45 43 43 41 40 40 40 40 39 39 39 41 43 44 43 43 42 41 40 42 42
48 48 47 46 45 45 45 46 46 46 46 45 45 45 46 48 48 46 45 45 45 44 41 40 40 39 40 41 40 41 41 42 41 41 42 42 43 44 43 41 38 39 40
48 48 48 47 47 45 46 46 45 45 45 44 44 44 43 43 42 41 40 40 39 39 39 39 39 38 42 45 46 44 41 41 40 37 37 38 39 43 45 44 43 38 38
47 47 47 47 46 47 48 46 45 44 43 43 43 43 42 41 40 40 39 38 37 37 37 37 37 37 38 45 46 46 41 38 37 36 35 36 37 36 34 41 41 42 42
47 47 46 45 46 47 46 47 45 44 44 43 42 42 41 40 39 38 37 36 35 35 35 36 37 37 39 44 45 44 34 34 34 34 34 30 31 32 33 32 31 31 32
45 44 44 44 44 45 46 45 43 45 44 44 43 42 42 40 38 37 36 35 35 34 34 35 35 35 38 43 44 38 35 34 34 34 31 31 31 37 40 32 31 32 33
44 43 43 43 42 45 45 44 43 43 44 44 44 43 42 41 39 38 36 35 35 33 35 34 35 38 37 42 44 38 31 30 30 29 31 40 34 41 42 32 31 30 30
44 43 42 41 41 41 42 43 43 43 47 44 43 42 42 41 40 37 35 35 33 35 35 35 37 37 38 38 43 41 30 30 29 30 29 32 41 42 42 38 32 33 32
43 44 41 41 41 41 41 41 41 44 43 45 43 41 40 41 39 37 34 34 34 36 35 35 35 35 37 40 41 43 40 36 30 30 29 32 40 42 42 38 38 39 35
43 43 41 40 41 41 41 41 40 42 43 44 43 42 41 41 39 37 34 35 36 36 35 34 34 33 35 35 41 43 44 43 32 31 34 37 40 41 39 41 40 41 31
45 43 41 40 39 40 42 42 41 42 43 44 43 42 41 39 38 37 36 34 34 35 35 34 33 34 33 33 32 32 35 42 38 37 33 36 37 38 35 35 36 31 30
47 43 41 41 41 41 40 40 43 44 43 42 41 40 40 39 37 38 38 37 38 39 36 35 35 33 32 34 36 34 32 31 34 32 30 30 30 29 29 29 30 30 30
46 44 43 41 42 42 42 42 43 44 42 40 40 39 39 38 37 37 36 41 41 41 41 41 37 36 40 41 41 41 41 40 41 33 29 28 29 29 29 29 29 28 30

GFSMW_sfc_temp_096.txt.gz
Temp
58 60 62 65 66 67 66 67 67 69 69 67 66 67 67 68 68 68 70 70 71 69 66 65 64 64 64 64 64 67 66 66 65 63 60 60 60 59 57 57 57 58 59
56 59 60 61 63 65 66 67 68 69 68 68 68 67 66 65 66 67 68 71 69 69 68 67 66 65 67 67 67 66 66 66 66 62 60 53 56 56 57 56 57 55 57
55 56 58 58 60 61 64 66 67 68 68 69 66 64 64 63 64 64 65 66 67 67 67 66 66 64 64 63 64 65 64 60 59 60 60 56 50 52 55 55 55 55 53
54 56 57 58 58 59 61 63 64 66 67 66 67 65 65 64 64 64 63 62 62 62 63 63 64 63 61 61 61 60 60 59 57 57 57 56 56 55 53 53 52 52 54
54 57 58 59 60 59 59 60 62 62 63 64 65 64 64 65 61 61 61 60 60 60 60 60 59 59 59 59 59 57 56 56 55 54 54 53 53 53 51 48 49 49 49
52 55 57 57 58 57 58 58 60 61 61 62 63 63 62 60 60 59 59 58 57 57 57 56 56 56 56 55 54 53 53 53 52 52 52 52 52 50 49 48 48 49 47
51 52 53 55 56 56 56 56 57 59 59 58 61 62 60 60 59 59 58 56 55 55 54 54 53 53 54 53 54 53 52 52 52 52 51 51 51 54 55 51 50 50 47
48 50 52 52 53 55 55 55 56 56 56 55 56 57 57 57 57 57 57 56 55 53 53 51 52 53 52 52 50 51 51 51 50 50 49 50 50 50 51 51 50 49 49
48 47 47 51 50 51 53 53 54 54 54 55 54 54 54 54 54 55 56 55 54 53 51 51 50 50 50 50 49 48 47 47 47 48 48 48 49 48 49 49 52 50 47
47 47 47 47 48 49 49 50 52 53 53 53 52 52 52 52 52 52 51 52 52 51 50 50 50 49 48 48 46 46 46 46 46 47 46 46 46 46 47 47 47 50 49
46 46 46 46 46 47 48 49 50 51 50 50 49 49 49 49 49 50 50 51 51 51 51 50 49 48 47 46 46 46 44 45 45 44 44 45 45 45 47 46 46 46 47
47 46 46 46 46 46 47 48 48 49 49 49 48 48 48 48 47 46 47 47 47 48 49 48 47 46 46 45 44 44 42 42 42 43 43 44 47 46 46 44 42 43 45
48 47 46 46 45 45 46 47 47 48 48 48 47 46 46 46 45 45 46 46 45 45 45 45 44 44 43 42 41 42 41 40 40 40 42 43 46 44 44 44 43 43 44
48 47 47 46 45 45 45 46 46 47 46 46 46 45 44 45 45 46 47 45 44 44 43 44 43 43 41 40 40 40 39 39 39 40 41 44 44 43 42 42 41 42 42
49 48 47 46 45 45 45 45 45 45 45 45 44 44 44 45 44 44 43 44 45 43 42 42 41 40 40 41 39 40 40 40 40 41 42 42 43 44 43 41 39 40 40
47 47 47 46 46 45 45 45 45 45 44 44 44 44 43 43 42 41 41 43 41 39 41 39 38 38 41 45 46 43 40 42 40 38 38 39 40 42 45 44 43 41 38
46 47 46 45 45 46 46 46 46 44 43 43 43 43 42 41 40 39 39 38 37 37 37 37 37 37 37 45 46 46 41 39 38 36 36 37 38 36 33 39 40 40 43
47 48 47 47 47 47 46 45 44 43 43 42 42 42 41 40 39 38 37 36 35 36 35 35 36 36 38 45 45 46 35 34 34 35 35 35 33 32 33 31 30 30 31
45 45 46 46 45 45 46 44 43 42 42 42 43 42 42 40 38 37 36 35 35 34 34 35 35 34 35 44 45 39 36 35 34 35 35 33 30 37 40 31 30 29 31
45 44 44 43 42 45 43 42 42 41 41 44 44 43 42 41 39 38 36 35 34 33 35 34 33 37 34 42 44 39 34 34 34 33 31 39 33 39 42 30 28 28 29
44 44 42 41 43 42 40 40 41 41 45 44 42 42 42 41 40 38 35 34 32 34 35 35 34 35 36 36 44 42 34 31 30 30 29 31 41 41 42 38 29 31 31
42 44 41 42 43 41 40 40 39 44 43 42 42 41 40 41 39 37 34 34 34 33 33 36 36 36 37 41 42 43 39 36 31 30 29 30 39 42 42 38 38 40 36
43 43 42 42 42 41 40 39 42 41 41 41 43 42 40 39 38 36 34 34 33 34 33 35 34 34 35 35 42 43 44 41 31 31 33 36 39 41 40 41 40 41 29
44 44 41 39 41 41 40 40 41 40 40 41 43 42 41 40 40 39 38 36 35 34 34 35 34 34 33 34 34 36 38 42 39 37 33 36 37 38 35 35 36 31 30
46 45 44 44 42 41 40 40 41 40 39 39 41 41 40 39 38 38 38 38 37 38 36 36 35 33 33 35 37 36 33 31 34 32 30 29 29 29 29 29 30 29 30
44 44 45 45 43 42 41 41 43 43 42 41 40 40 40 39 38 37 37 41 41 42 42 41 38 35 40 41 41 41 40 40 40 32 29 27 27 27 28 29 30 29 31

GFSMW_sfc_temp_099.txt.gz
Temp
63 61 63 64 64 64 65 65 68 68 69 68 66 66 66 68 69 69 72 73 74 73 71 71 71 71 71 71 72 71 70 67 68 70 72 72 71 70 70 70 70 68 67
56 61 63 63 64 64 65 64 66 68 69 69 69 68 66 67 68 69 71 73 71 70 71 71 70 71 70 71 70 69 67 72 71 70 66 64 69 68 67 68 66 65 67
57 57 60 62 63 63 63 65 67 67 69 69 68 66 66 66 66 67 68 68 69 68 68 67 68 69 69 68 68 67 69 68 67 68 68 62 60 63 66 64 65 64 64
58 59 59 59 61 62 65 66 68 68 68 66 67 67 64 64 66 67 65 64 65 63 64 64 65 65 64 63 62 63 64 64 63 64 64 64 63 60 59 63 62 62 61
57 59 60 61 60 61 61 63 63 64 67 66 67 66 65 65 67 66 62 61 60 60 60 60 60 59 59 59 59 59 59 60 62 62 62 62 61 62 60 57 59 59 59
56 58 60 61 61 61 60 60 63 64 64 65 65 64 64 65 62 62 61 59 59 58 58 57 56 56 55 55 56 56 57 57 58 60 60 60 60 59 58 56 58 58 57
56 57 58 59 60 60 58 60 61 62 63 63 64 64 63 63 62 61 60 58 56 55 55 55 53 53 52 54 55 55 56 57 58 57 57 59 60 60 59 56 55 56 55
55 56 56 55 56 58 59 58 60 61 61 61 62 63 63 62 62 62 60 59 58 57 56 54 54 53 53 53 52 51 53 55 56 56 55 57 57 57 57 55 54 53 55
52 53 53 53 54 55 56 57 58 59 59 59 60 60 60 60 60 60 60 59 57 56 55 55 52 52 53 53 53 53 54 53 53 53 54 55 56 56 56 56 54 52 49
50 52 52 52 52 53 53 55 56 58 58 58 59 58 58 58 58 58 57 57 56 56 55 54 52 52 52 53 53 51 51 52 52 52 53 53 53 53 54 54 53 52 51
50 51 51 51 51 52 52 53 54 56 56 56 56 56 55 55 55 56 55 55 55 54 54 54 52 51 50 51 50 50 50 50 49 50 50 50 51 52 53 52 50 49 49
51 51 51 51 51 51 52 53 53 55 55 55 55 54 53 53 53 53 52 53 52 53 53 53 52 51 50 50 49 47 47 47 47 47 47 47 48 49 50 50 48 48 48
51 52 52 52 51 51 51 52 52 53 53 53 52 51 51 52 51 51 52 52 52 51 51 51 50 49 48 47 46 46 47 46 47 46 47 48 49 49 49 48 47 47 47
50 50 50 51 51 50 51 51 51 51 51 51 51 50 50 51 51 51 51 50 51 50 49 49 48 47 46 46 45 45 45 45 46 46 47 48 48 47 46 45 44 45 44
49 49 50 50 50 50 50 50 50 51 50 50 49 49 50 50 50 49 49 48 48 48 47 46 45 45 46 45 45 45 45 45 45 45 45 45 45 45 45 45 43 42 42
47 48 48 49 50 50 50 49 49 49 49 49 49 49 48 48 47 47 46 47 46 46 45 45 44 44 45 46 46 45 45 45 44 42 41 42 42 44 45 44 44 43 40
46 47 48 48 49 49 49 49 49 49 47 48 48 48 48 47 46 46 45 44 44 43 43 43 43 43 44 47 47 46 45 43 41 40 39 39 40 40 40 41 40 40 42
46 47 48 48 49 49 48 48 48 47 46 46 47 47 46 46 44 44 43 42 42 42 42 41 42 42 43 46 46 46 37 37 37 37 38 38 38 37 39 39 37 38 39
46 47 48 47 48 47 48 46 45 46 45 45 45 46 46 44 43 42 41 39 40 39 39 40 39 40 41 45 45 41 40 38 36 37 37 37 36 39 40 37 36 36 37
46 46 48 46 46 48 46 44 45 45 44 46 46 46 45 45 43 43 41 39 40 37 37 37 39 40 40 44 45 42 40 38 36 36 36 39 38 40 42 38 37 35 36
43 45 45 45 46 47 45 43 44 43 47 46 45 45 45 44 44 42 40 38 36 36 37 37 38 40 40 41 44 43 39 38 37 37 36 38 41 42 43 38 37 37 37
43 44 44 44 46 47 44 43 43 46 44 45 44 43 44 43 41 40 38 38 37 36 37 37 37 40 40 41 44 45 41 39 37 36 37 37 39 42 43 41 38 40 37
44 45 44 43 45 45 43 42 44 44 43 43 43 43 42 42 41 40 38 37 38 38 36 38 37 37 38 40 42 44 44 41 36 37 37 37 39 41 42 41 41 41 35
41 43 42 43 44 45 45 43 44 43 42 41 42 43 42 41 41 41 40 39 38 38 38 37 37 37 37 37 38 40 42 43 40 38 38 39 38 39 38 38 39 35 35
41 41 41 42 43 46 46 44 42 42 40 41 41 41 43 41 39 41 40 40 40 40 38 38 38 36 35 36 39 38 37 37 38 35 34 35 34 34 34 34 34 34 34
39 40 40 39 40 44 45 43 42 43 42 40 40 41 42 40 40 38 37 42 41 42 42 41 39 38 41 41 41 41 41 41 41 34 33 33 33 33 34 33 33 33 34

GFSMW_sfc_temp_102.txt.gz
Temp
66 65 60 64 65 68 66 66 66 69 74 75 72 71 71 72 73 74 78 79 80 80 78 79 80 79 78 79 79 78 76 76 78 75 77 78 79 78 78 78 79 75 75
59 59 59 60 62 63 64 65 66 67 69 74 74 73 71 72 74 74 76 77 78 75 77 78 77 79 78 78 78 77 74 76 78 75 75 70 75 76 75 77 75 74 75
57 57 58 61 62 61 62 64 65 65 67 69 72 71 72 71 71 70 73 75 73 72 72 71 71 72 76 75 76 74 73 72 74 76 74 67 67 71 74 72 74 73 73
57 56 61 61 63 63 65 65 66 66 65 67 68 67 66 68 70 70 69 68 70 69 65 65 67 65 66 68 68 66 67 68 66 68 69 72 70 64 65 70 70 71 70
60 58 57 58 61 65 65 66 67 68 67 65 66 64 64 66 68 67 67 64 66 66 64 65 64 61 59 58 58 59 60 59 61 61 65 67 68 68 65 63 67 68 68
60 62 63 63 63 61 62 65 67 68 69 68 66 66 67 66 66 66 65 62 61 61 61 61 61 59 58 56 55 55 56 57 58 60 60 62 66 67 65 64 65 65 67
63 63 64 65 66 64 63 64 65 66 67 67 69 68 68 69 65 66 66 61 59 58 58 58 58 58 58 56 56 55 56 57 58 59 59 60 62 65 65 63 62 60 63
62 61 62 63 64 62 64 66 66 67 69 69 68 67 69 66 68 67 65 62 60 58 58 59 60 57 57 56 56 57 58 58 58 59 59 62 63 64 63 60 58 55 60
60 60 61 60 60 62 62 64 66 67 69 69 70 69 67 65 64 66 65 64 62 60 59 59 59 58 57 58 60 61 58 60 59 58 59 60 61 61 61 60 58 54 52
61 61 61 60 60 61 61 61 64 65 66 68 68 68 68 68 67 64 62 62 63 60 57 57 59 59 59 58 58 58 57 57 57 57 57 57 58 59 59 58 58 56 53
61 62 63 62 61 63 62 62 62 62 63 64 65 66 66 66 66 64 62 61 60 59 57 59 59 58 57 57 57 57 55 55 55 55 56 56 56 56 56 55 55 54 52
61 63 63 64 64 62 62 62 62 63 64 64 63 63 64 63 62 62 60 59 58 59 62 60 59 59 58 58 57 55 53 53 52 52 52 53 53 53 55 54 53 53 52
61 63 63 62 63 63 62 63 62 62 62 62 63 62 61 61 61 61 58 58 57 60 60 59 59 58 58 57 58 57 56 55 56 55 55 55 55 54 55 54 53 53 52
59 60 61 62 62 62 61 62 62 62 61 60 60 61 61 61 60 59 58 59 60 59 58 59 58 57 56 55 54 55 54 53 53 53 54 54 54 54 52 51 51 49 48
56 57 58 60 62 62 62 62 62 61 60 59 59 59 60 60 59 59 59 59 59 58 58 57 56 55 54 53 52 52 52 52 51 51 52 51 49 46 49 50 50 48 46
55 56 57 59 59 60 60 60 60 60 59 58 58 59 58 57 57 57 57 57 56 56 55 55 53 51 52 48 48 51 52 51 51 49 48 48 45 46 46 45 44 46 44
53 55 56 57 58 59 59 59 60 60 58 59 59 58 57 56 56 56 55 54 53 53 52 52 52 51 51 47 47 48 51 49 48 47 45 45 45 44 46 43 43 42 43
52 53 55 56 57 58 59 59 59 58 57 56 57 58 56 55 55 54 53 53 53 51 51 50 51 51 51 47 48 47 43 43 44 44 44 43 42 41 42 45 42 44 45
51 52 53 54 55 55 57 57 56 57 56 54 55 56 56 54 54 51 50 50 50 50 49 50 49 49 49 46 47 46 44 45 44 44 42 42 41 41 42 42 40 42 42
49 49 50 51 53 54 55 54 54 54 54 55 54 55 55 54 54 52 51 50 49 45 46 45 47 47 49 46 46 46 47 46 44 41 40 40 41 42 42 43 43 40 41
48 50 50 50 51 52 52 50 51 51 54 54 54 52 52 51 54 53 52 48 45 44 44 45 47 47 49 48 46 45 46 46 44 42 38 39 41 42 43 42 43 42 43
45 46 46 47 49 50 50 49 49 52 53 53 52 51 50 50 49 50 48 46 44 40 39 41 43 47 48 47 45 45 44 44 43 43 45 44 41 42 43 41 41 40 41
44 44 43 44 45 47 47 46 49 52 52 52 51 51 51 50 49 47 45 44 44 42 40 40 40 43 45 46 45 45 44 43 43 44 43 42 41 42 43 42 41 41 40
42 44 43 41 40 44 45 44 47 52 51 49 50 51 49 48 47 47 46 45 43 41 41 41 42 43 42 43 45 45 44 43 41 40 41 41 41 42 43 42 41 40 40
39 40 40 39 39 41 40 41 43 47 48 48 48 48 47 46 45 46 45 46 46 46 43 43 43 41 40 42 44 43 42 41 40 41 41 40 39 38 38 39 40 39 38
38 39 39 38 37 38 38 41 44 46 45 46 46 45 44 44 43 42 41 44 44 44 43 43 42 40 43 43 42 42 42 42 42 37 38 38 37 37 37 37 36 36 37

GFSMW_sfc_temp_105.txt.gz
Temp
65 65 60 64 65 66 64 66 65 65 71 70 71 72 71 74 75 77 77 78 78 79 78 79 79 78 77 78 79 78 77 76 78 75 73 73 80 79 78 78 78 75 75
61 59 58 58 59 61 63 63 64 64 69 71 71 72 72 73 74 75 76 78 78 78 77 78 76 75 74 76 78 77 75 76 77 72 71 68 74 75 74 75 74 74 74
58 56 56 58 59 60 62 63 64 64 67 68 67 70 70 72 71 72 73 74 77 74 74 75 73 72 68 70 71 74 73 69 71 73 72 67 64 69 72 72 73 73 72
58 57 56 58 61 60 62 63 62 63 64 66 67 67 66 66 70 71 71 71 73 71 70 70 68 65 65 65 62 63 65 69 65 68 67 68 67 64 63 69 70 70 70
57 57 58 59 61 61 61 62 62 63 63 64 65 66 65 67 68 68 70 68 69 68 67 67 64 64 62 60 60 59 59 59 60 61 61 61 60 64 61 58 63 67 68
57 58 58 59 60 62 62 63 63 65 65 65 64 64 64 64 64 65 65 64 64 64 65 65 64 62 61 59 59 59 59 57 57 58 59 59 57 58 62 61 63 65 66
57 56 58 60 61 60 61 64 65 65 65 65 64 65 65 65 64 64 63 63 62 60 60 61 60 60 61 60 59 59 59 58 57 58 60 60 62 64 63 60 61 60 64
61 60 62 64 64 63 63 63 63 66 68 68 67 66 68 66 67 66 65 65 63 61 59 59 59 59 59 59 59 59 60 59 59 60 60 61 62 62 62 60 58 56 58
59 61 62 63 63 63 63 65 65 66 68 69 69 69 67 68 68 69 68 64 62 60 59 60 58 57 58 59 59 60 60 61 59 59 59 60 60 60 61 58 58 55 52
61 61 61 62 64 64 64 64 66 67 68 68 70 70 70 68 67 66 64 64 63 61 59 58 58 57 58 58 59 61 60 59 58 58 57 57 57 57 57 57 57 54 53
62 63 62 64 64 65 64 64 65 65 66 67 69 69 69 68 69 66 64 63 62 60 58 58 57 57 60 60 59 59 58 57 56 57 56 57 57 56 56 55 54 54 54
62 63 63 63 64 63 63 64 64 65 65 66 66 67 67 67 66 66 64 63 61 59 58 58 59 59 60 60 59 57 56 57 55 54 54 55 55 54 55 55 53 52 53
61 63 64 63 63 63 63 64 64 63 64 63 64 65 64 64 65 64 62 61 59 58 58 58 58 59 59 57 58 58 56 55 55 54 53 54 54 51 53 53 52 52 52
59 59 61 62 63 64 64 64 63 64 63 62 61 61 63 63 63 63 61 58 58 57 58 58 59 58 58 58 57 56 55 54 55 54 55 55 55 54 53 52 51 51 49
57 58 59 61 63 63 64 63 63 63 63 61 61 60 62 62 62 61 60 60 57 56 57 57 57 56 55 55 54 55 54 53 52 52 53 53 50 47 49 51 49 48 47
56 57 58 60 60 61 61 61 62 63 62 60 60 61 61 60 59 58 59 59 58 57 57 57 54 52 54 51 51 53 52 52 52 49 49 47 45 46 47 46 46 46 46
54 55 56 57 58 59 59 59 61 62 61 60 61 61 61 59 58 58 57 56 55 55 54 54 54 52 52 49 50 50 53 50 49 48 46 46 47 46 45 45 45 44 44
52 53 54 54 55 57 58 59 59 59 58 58 58 59 59 58 57 57 56 55 55 54 53 53 52 52 51 48 48 48 45 44 46 45 45 44 43 44 44 44 40 41 43
52 52 53 53 54 54 56 56 55 57 57 56 57 58 58 57 57 55 53 53 52 51 51 51 50 50 49 47 47 46 43 43 43 45 45 45 43 44 44 42 38 41 41
51 50 51 52 52 53 54 53 52 53 53 55 56 57 57 56 55 56 54 53 52 49 48 47 49 49 49 47 47 47 46 45 44 44 42 44 43 43 43 42 40 37 38
49 50 49 47 49 50 50 47 48 49 52 54 54 54 55 54 55 54 55 51 49 49 47 46 48 49 50 46 47 47 47 46 43 40 40 40 43 43 43 43 41 39 40
48 49 47 47 48 48 47 44 43 47 49 50 51 52 53 54 53 51 52 51 48 47 46 45 46 47 49 48 46 46 47 48 43 41 42 41 42 43 43 42 44 42 42
46 45 43 42 43 44 43 42 44 46 46 47 46 51 52 53 54 50 49 48 48 46 44 44 43 44 47 47 46 46 46 45 43 44 44 44 42 42 42 43 42 41 36
43 42 41 41 41 43 43 41 41 41 41 41 43 47 49 51 52 51 48 47 46 45 43 42 41 43 43 43 44 44 45 44 42 42 40 41 41 42 41 40 39 36 36
41 41 40 39 39 39 39 40 39 38 38 41 42 45 47 48 48 47 47 46 49 47 45 44 44 42 40 42 44 44 42 41 40 39 37 36 36 36 37 37 36 35 35
41 39 39 38 37 38 38 38 38 36 36 38 42 44 45 45 45 43 43 46 47 47 46 46 46 44 45 44 44 44 44 42 42 38 36 36 35 35 35 35 34 35 35

GFSMW_sfc_temp_108.txt.gz
Temp
61 63 62 60 62 64 64 63 63 63 65 65 67 66 66 67 67 69 72 73 73 73 72 71 72 73 73 71 71 70 68 66 68 67 68 70 70 71 66 67 66 67 67
58 58 57 58 58 60 62 62 63 64 66 66 67 67 67 68 69 70 71 72 72 72 72 70 70 70 69 69 71 70 67 66 67 64 61 58 65 63 66 65 66 64 65
56 56 56 57 58 58 60 62 63 62 63 64 66 65 66 65 66 67 68 69 71 70 70 69 68 66 65 64 63 64 66 63 64 64 61 57 55 58 62 63 63 63 62
56 56 56 56 58 58 60 62 62 62 63 64 62 61 62 61 63 64 65 66 67 67 68 66 65 65 64 63 61 62 62 63 62 62 63 61 61 57 56 62 63 63 62
55 55 56 57 59 59 59 61 62 61 62 62 63 61 61 61 63 63 64 65 65 65 65 65 64 63 62 61 61 60 61 61 60 60 58 58 57 58 56 54 57 60 60
56 57 57 58 58 59 59 59 60 61 61 61 61 61 61 62 61 62 62 62 62 63 63 64 63 62 61 60 60 59 60 60 59 59 58 56 55 54 54 54 57 58 57
53 54 55 56 57 58 59 59 60 60 61 61 61 61 62 62 61 62 62 61 61 61 62 62 63 62 61 59 59 59 59 59 59 57 56 57 57 59 59 57 56 56 57
52 53 56 57 57 58 58 59 60 61 62 61 62 63 63 63 62 63 63 62 61 61 60 62 62 61 60 59 58 58 59 57 57 56 56 56 57 59 59 57 55 51 53
52 56 56 57 57 57 58 58 58 59 61 64 63 62 63 62 62 63 64 64 64 63 59 60 59 59 58 57 57 57 56 57 56 55 55 55 55 57 57 57 55 52 48
55 55 55 56 57 57 57 59 59 60 61 62 62 63 62 63 62 61 61 61 60 60 59 59 59 58 57 57 57 56 56 54 53 53 53 53 55 55 55 53 54 53 51
55 56 56 57 57 57 57 57 58 59 59 60 60 61 61 61 62 62 61 61 60 59 58 57 57 56 56 57 57 56 55 54 52 52 52 52 53 51 51 51 52 50 49
55 55 55 56 55 55 56 56 57 57 57 58 58 58 59 59 59 61 61 60 59 58 58 57 56 56 57 57 56 53 52 51 50 50 50 50 52 50 50 49 48 48 48
54 54 55 54 54 54 55 55 55 55 56 57 56 56 56 56 56 57 57 59 57 56 56 56 56 57 57 56 54 52 51 51 50 49 49 50 49 48 47 47 46 46 49
53 53 52 53 54 54 55 54 55 55 55 55 54 54 54 55 56 56 55 55 56 55 55 56 57 56 55 54 52 51 50 49 49 49 49 49 49 48 47 47 46 47 47
51 50 50 50 52 52 52 53 54 54 55 54 53 53 54 54 54 54 54 53 52 54 55 55 54 53 53 53 52 52 49 49 48 48 50 49 47 48 50 48 46 46 45
50 50 50 49 49 48 51 52 52 52 53 52 52 54 54 53 52 52 52 52 51 51 52 53 52 50 52 52 52 51 49 48 47 45 45 44 45 46 48 48 48 47 44
48 48 47 47 46 47 49 48 49 51 50 50 51 52 53 52 52 51 50 49 49 49 49 50 52 50 50 51 52 51 48 47 45 44 42 42 44 43 41 46 46 45 46
45 45 45 46 47 48 49 50 50 50 49 49 50 51 51 50 50 49 49 48 47 48 48 48 49 49 49 50 50 50 44 43 43 42 41 40 39 40 40 38 36 36 38
45 45 45 45 46 46 47 47 47 47 46 47 48 50 50 49 48 47 47 46 46 45 45 47 47 47 47 48 49 46 42 42 41 42 41 40 38 43 45 38 34 36 36
44 43 43 44 43 43 44 43 43 44 44 45 47 48 49 48 47 47 46 46 46 45 43 43 44 47 45 47 48 45 44 41 41 40 39 44 40 45 45 39 37 32 32
42 43 41 40 40 41 43 42 43 43 46 47 47 47 46 46 47 47 47 47 45 45 44 44 43 44 45 45 48 47 44 43 41 39 37 38 45 45 45 44 36 34 35
41 41 38 38 39 40 41 40 40 43 43 44 42 42 44 46 47 47 47 44 48 44 42 43 43 45 45 46 47 47 46 47 41 38 38 38 44 44 44 43 43 45 40
40 39 37 37 39 39 41 38 39 41 41 40 39 40 43 44 45 46 48 48 48 47 45 44 43 43 45 44 47 47 48 47 42 41 40 41 43 43 43 43 44 44 32
37 37 37 36 38 40 40 39 39 40 38 36 36 38 41 42 44 47 47 47 47 46 45 43 43 43 43 44 45 45 46 46 42 43 41 41 41 41 37 39 38 32 31
37 37 36 38 38 39 39 39 39 39 36 35 35 36 39 42 43 45 46 48 48 48 46 44 44 42 41 43 45 44 43 42 40 37 36 34 34 34 33 32 31 30 31
37 35 35 38 38 38 38 38 39 38 35 33 34 35 36 39 40 43 44 46 46 47 46 46 46 46 47 46 45 45 44 44 42 36 34 33 33 33 33 32 31 30 33

GFSMW_sfc_temp_111.txt.gz
Temp
56 58 59 58 60 62 64 63 62 62 63 64 64 64 66 67 68 70 72 72 72 71 70 69 69 69 69 70 69 68 66 65 66 65 64 68 69 65 68 65 63 64 64
54 55 59 56 57 60 62 62 62 61 61 63 64 65 64 63 65 67 70 73 71 71 71 70 68 68 68 67 68 67 65 66 66 63 62 60 62 65 65 62 63 61 62
53 55 57 56 56 57 60 62 62 61 62 62 64 64 65 65 65 64 64 66 69 70 70 68 67 66 66 64 64 65 65 62 62 62 61 57 55 57 61 60 61 60 59
53 56 55 54 56 57 59 61 62 62 63 63 62 61 62 61 62 62 65 65 65 66 65 65 65 64 63 63 62 63 62 62 61 61 62 61 60 57 55 61 62 62 60
53 55 55 57 58 58 58 59 62 62 61 61 62 60 60 60 61 61 62 62 64 65 65 64 64 63 62 62 62 61 61 61 61 60 58 57 57 57 56 53 57 60 60
55 55 56 57 57 58 58 60 61 61 61 61 61 61 60 60 60 60 60 62 61 62 63 64 63 63 62 61 60 60 61 61 60 59 58 56 56 54 54 52 53 56 58
54 54 55 55 56 57 57 58 59 60 60 60 60 61 61 60 60 60 60 60 60 60 61 62 62 62 62 61 60 60 59 59 59 59 58 57 58 58 58 57 56 55 56
51 51 52 54 56 57 57 58 59 59 60 60 60 60 61 61 61 61 61 61 61 62 61 62 62 63 62 60 60 60 60 60 59 58 56 56 57 59 58 56 54 52 53
49 50 53 55 55 55 56 56 57 58 59 60 60 60 60 60 60 61 62 62 62 62 61 62 62 62 61 61 60 60 59 58 57 57 57 56 56 57 57 57 56 54 49
52 53 55 56 56 55 55 57 58 58 59 59 60 62 62 62 62 62 61 62 63 63 62 61 61 61 60 60 59 58 57 56 55 56 56 53 53 55 55 54 54 53 51
54 54 55 55 55 54 55 55 56 56 56 57 58 58 58 59 60 60 60 60 61 60 60 60 59 59 59 58 57 56 56 56 54 54 54 53 54 53 53 53 52 52 51
53 53 52 52 52 52 53 53 54 54 55 56 56 56 57 57 57 58 59 60 59 58 58 57 57 56 56 56 56 55 55 55 53 53 51 51 51 50 51 49 48 48 48
51 50 50 50 50 51 52 53 52 53 53 54 53 54 54 54 54 55 56 57 57 57 57 56 55 55 55 55 56 56 54 53 52 51 50 50 49 48 47 47 47 46 47
48 49 48 46 47 48 50 51 51 52 52 52 51 51 52 53 53 54 54 54 54 54 55 56 56 56 56 55 55 54 53 52 50 50 50 50 50 48 47 46 45 46 44
47 47 46 44 44 45 46 48 48 49 50 50 50 50 51 51 51 52 52 52 52 52 53 54 54 55 54 53 52 52 51 51 49 47 48 48 48 49 49 47 44 43 43
45 45 45 44 43 41 44 46 46 47 48 47 47 49 50 50 50 50 49 49 50 50 50 53 53 52 53 52 51 52 50 50 49 47 45 44 46 48 51 50 49 47 43
42 42 41 41 41 42 44 42 44 45 45 45 47 48 49 49 48 48 48 47 47 47 47 49 51 52 52 51 51 51 50 47 46 46 44 43 44 44 44 48 48 48 49
40 40 39 40 41 42 42 43 44 43 43 43 44 45 46 46 47 47 46 46 46 46 46 47 48 49 50 50 51 50 47 46 45 45 44 43 42 41 41 40 37 38 40
41 41 41 42 40 42 43 42 42 43 43 43 43 44 44 44 44 44 44 44 44 46 45 45 46 46 48 49 50 49 46 44 44 45 45 44 41 44 45 38 35 35 36
42 42 41 41 39 39 41 40 40 40 41 42 43 43 43 42 41 42 43 44 45 45 47 45 45 47 46 47 49 49 46 43 42 43 42 45 43 46 45 38 36 33 33
41 40 38 37 37 38 39 38 40 41 43 42 41 41 42 41 41 41 44 43 42 44 45 45 47 44 47 45 49 49 46 45 42 41 39 41 45 46 46 42 37 35 34
39 39 36 35 36 37 41 40 38 40 41 41 41 41 40 40 41 41 42 42 42 44 43 44 45 46 47 47 48 49 48 48 43 41 42 42 45 45 45 43 43 43 39
37 38 35 34 35 38 40 37 38 40 39 39 38 38 38 39 40 40 41 42 43 44 45 45 45 45 45 45 48 48 48 47 43 43 42 43 44 44 44 44 44 44 34
36 35 34 32 32 35 39 39 40 40 38 37 36 36 36 37 39 40 43 42 42 43 45 45 44 45 43 44 45 46 46 47 44 42 40 41 43 43 41 41 42 34 34
35 35 33 33 33 35 34 35 37 39 36 35 34 35 36 36 36 38 39 40 43 45 44 45 45 43 42 43 45 45 44 44 43 40 38 37 37 36 35 36 33 32 33
35 33 33 32 33 34 33 35 36 38 35 33 33 33 34 35 35 35 35 40 41 43 45 45 46 46 48 47 45 45 46 46 44 39 36 35 35 34 34 33 32 32 34

GFSMW_sfc_temp_114.txt.gz
Temp
55 56 57 57 59 59 60 61 61 63 63 63 62 62 63 64 68 69 70 71 72 71 70 69 68 68 68 68 66 65 64 63 65 64 62 64 66 67 67 66 62 62 62
52 55 55 55 56 58 59 60 61 62 62 62 65 65 64 65 66 68 70 71 70 70 71 69 67 67 65 66 67 66 63 64 63 61 61 58 62 62 63 61 63 60 60
50 53 54 54 57 57 60 60 63 61 61 62 64 65 65 64 64 64 67 69 70 69 69 68 67 66 66 65 65 65 64 61 60 62 61 55 55 57 60 60 62 58 58
52 52 54 55 55 55 57 59 60 60 61 61 61 63 62 61 62 66 66 64 66 67 67 67 66 66 64 63 63 62 62 62 59 59 61 61 61 55 54 60 60 60 59
51 52 54 56 56 56 56 60 61 60 60 61 61 60 60 60 61 61 61 61 62 63 64 63 63 63 62 62 61 61 61 61 60 59 58 58 58 57 55 52 56 58 60
50 53 56 57 56 56 58 59 60 60 61 61 61 60 60 59 59 60 60 60 61 61 62 63 62 62 61 61 61 61 61 60 60 60 58 57 56 55 55 53 54 55 55
51 54 54 55 56 57 57 59 60 60 61 61 60 60 60 59 59 59 59 59 59 60 60 61 61 61 62 61 61 61 60 60 60 60 60 58 57 57 58 56 54 53 54
50 50 51 51 52 55 56 57 58 59 60 60 59 60 60 60 60 60 59 59 59 60 61 61 62 61 61 61 60 60 61 61 60 59 59 58 58 59 58 56 54 51 52
48 49 50 52 53 54 54 55 56 57 58 59 60 59 60 60 60 60 60 60 61 61 61 61 61 62 62 61 61 61 60 60 60 60 59 58 59 58 57 58 57 54 49
49 51 51 52 55 55 55 56 56 56 57 58 58 59 59 60 60 60 60 60 61 61 61 61 61 62 61 62 62 61 61 60 60 60 58 57 57 58 57 56 53 53 52
50 51 52 53 52 53 54 54 54 55 55 55 56 56 57 58 59 59 60 61 62 61 61 62 62 61 61 62 61 61 61 58 59 57 56 56 55 55 55 52 52 51 50
49 49 49 50 50 50 51 51 52 53 53 54 54 54 54 55 55 55 56 58 58 58 59 59 60 61 60 60 59 58 57 56 56 55 54 54 54 53 53 52 51 50 50
46 47 46 46 46 47 48 49 50 50 51 52 52 52 51 52 52 53 54 55 56 56 56 57 57 57 57 57 56 57 56 55 55 55 54 54 53 51 50 48 48 47 47
44 44 43 42 43 45 45 46 47 49 49 50 49 49 49 49 50 50 51 52 53 53 54 55 55 56 56 55 55 55 55 54 54 53 53 53 52 50 48 47 46 45 45
43 42 41 40 40 40 42 43 44 45 46 46 46 46 48 49 49 49 50 50 50 51 52 52 54 55 55 54 54 54 53 53 52 51 51 50 49 49 50 47 44 44 43
40 39 40 38 38 37 40 42 42 43 44 43 43 45 46 46 46 47 47 47 47 47 48 48 51 53 53 52 52 53 52 52 51 48 47 48 48 49 51 50 49 48 45
39 39 37 39 39 39 41 39 40 41 41 41 42 43 44 44 44 45 44 44 45 46 45 47 48 49 51 52 52 51 52 50 49 48 46 45 45 47 47 50 49 49 50
38 39 38 38 39 38 38 38 39 39 39 39 40 42 42 41 42 42 42 43 43 43 44 45 46 47 49 50 50 50 50 47 47 47 47 46 44 44 45 45 44 43 44
38 38 37 37 36 36 37 38 38 38 38 39 39 40 40 40 41 41 41 41 40 41 41 43 43 44 46 49 49 49 48 45 45 46 46 46 45 45 46 42 39 38 37
38 37 37 37 37 37 38 38 38 38 38 38 38 40 40 40 39 40 39 41 42 42 42 42 43 45 45 48 49 48 48 45 44 44 44 46 44 46 46 41 40 36 35
39 38 35 34 34 37 37 36 37 36 39 39 39 39 39 40 39 39 39 39 40 41 42 42 43 44 45 45 48 49 48 45 44 43 42 44 46 46 46 44 39 39 36
39 38 35 35 36 36 37 36 36 38 39 40 39 38 39 40 39 38 37 38 39 40 41 41 42 45 45 46 48 48 49 48 45 43 44 44 46 46 46 44 43 43 40
36 37 34 34 34 34 35 37 38 40 40 39 37 38 39 38 38 37 37 36 38 38 41 41 42 44 47 44 47 48 49 48 46 46 46 45 45 45 45 43 43 43 34
35 35 33 31 31 33 34 34 35 36 36 37 36 36 35 35 37 37 37 36 36 36 37 38 41 44 45 45 43 44 47 48 46 45 43 43 44 44 43 41 41 35 34
34 34 32 31 31 32 32 32 33 33 34 35 34 34 34 34 34 36 36 36 38 38 36 36 38 39 42 44 46 44 45 45 45 41 39 39 39 38 37 37 36 34 34
33 32 32 31 31 31 31 32 32 32 35 33 33 33 34 33 34 33 34 39 40 40 39 40 39 41 44 46 46 45 46 46 45 38 36 37 37 36 36 36 33 33 34

GFSMW_sfc_temp_117.txt.gz
Temp
51 52 54 56 57 58 58 58 59 60 61 61 61 62 61 63 64 67 70 69 69 68 67 68 68 67 65 65 65 64 62 63 62 62 61 63 64 65 64 64 65 64 63
47 51 53 55 56 56 57 58 59 60 61 62 63 63 64 65 64 67 69 68 67 66 66 68 67 65 65 65 66 66 61 63 63 61 59 57 60 60 61 61 62 61 61
46 49 53 54 54 55 56 61 61 61 61 61 62 62 64 64 63 64 65 67 68 67 66 66 67 65 65 64 64 65 63 60 60 61 60 54 54 56 58 58 59 58 57
47 50 52 53 54 54 55 57 60 60 60 59 61 59 62 61 63 63 64 65 65 65 65 65 66 66 65 63 63 62 62 61 59 59 60 59 58 54 53 57 56 57 57
46 50 52 54 54 55 55 56 59 59 58 58 61 59 61 62 62 62 62 63 64 65 65 65 65 64 64 64 62 61 60 60 59 59 59 59 58 56 53 51 53 55 56
47 50 52 53 55 57 58 58 58 60 58 59 60 59 59 59 59 60 59 60 60 60 61 61 61 63 63 61 61 61 60 60 60 60 59 58 57 57 55 51 51 54 55
49 50 51 52 53 54 54 56 58 59 58 60 60 59 59 59 59 59 59 59 59 59 60 61 61 60 61 60 61 60 60 60 59 60 59 60 60 58 57 54 52 53 54
50 50 50 50 51 51 52 52 59 59 60 60 60 60 60 59 59 59 59 58 59 59 60 60 60 60 61 61 60 60 60 60 60 60 60 61 61 58 57 56 54 50 51
47 47 48 48 49 50 51 52 53 54 55 56 58 59 60 59 59 59 59 59 59 60 59 60 60 60 60 60 60 60 60 60 60 61 61 60 61 60 59 59 59 58 50
45 46 47 49 51 51 51 52 53 53 53 54 55 57 59 60 59 59 59 59 60 60 60 60 60 60 60 61 61 61 61 60 60 61 60 60 61 59 58 58 58 58 54
46 47 48 49 49 50 50 51 51 52 52 53 54 55 54 56 57 58 58 59 60 60 60 61 60 60 60 61 61 61 61 60 60 61 60 60 60 59 59 57 57 55 53
45 46 45 46 46 46 47 47 48 49 49 51 51 51 52 53 54 54 54 55 56 58 59 60 60 60 60 61 61 61 60 59 59 59 58 58 57 56 57 55 55 55 52
43 41 41 42 42 43 44 45 46 46 48 48 48 48 48 49 49 50 51 52 52 53 55 56 57 58 58 58 59 60 59 59 59 59 58 57 57 54 54 54 53 52 49
41 41 40 38 38 41 42 43 43 44 44 45 45 45 45 46 47 47 48 48 49 49 51 52 54 55 56 56 56 56 56 56 56 56 56 56 55 55 53 52 51 50 49
40 39 38 37 37 37 39 40 41 42 43 42 42 42 43 44 44 45 45 46 46 47 48 48 50 51 53 55 54 54 54 54 54 54 54 54 53 52 53 51 48 48 47
38 38 38 37 36 34 37 38 39 39 41 40 40 42 42 43 42 42 42 43 43 43 44 45 46 47 50 52 52 52 53 52 52 51 51 51 49 50 51 51 50 50 47
36 36 36 36 36 36 37 36 37 39 38 38 40 40 41 40 40 41 41 40 40 41 41 42 43 44 46 50 51 51 51 51 51 50 49 48 48 49 50 51 50 50 51
36 36 36 35 36 37 36 36 36 36 37 37 37 38 38 38 41 41 41 41 41 40 40 40 41 41 44 48 49 50 49 49 49 49 48 48 47 48 48 47 45 45 46
37 36 36 35 34 34 34 35 35 35 35 35 36 37 37 37 39 38 38 39 39 39 40 41 40 40 41 45 47 47 47 48 47 47 47 47 46 47 48 45 43 41 40
37 36 35 35 33 32 33 33 33 34 35 36 36 37 37 36 37 38 38 38 38 38 39 40 42 44 41 45 46 47 45 47 46 45 45 46 46 47 47 44 42 40 39
35 34 32 32 32 33 34 34 34 34 37 38 38 38 37 36 36 38 38 37 37 38 37 39 41 44 45 44 46 47 45 46 46 44 43 44 47 47 47 45 42 42 38
35 35 33 33 33 34 35 34 33 36 38 38 37 37 37 38 38 36 36 37 37 36 36 37 39 43 45 45 46 47 47 47 46 44 45 44 46 46 46 44 44 43 41
35 35 33 32 33 33 33 32 34 35 36 36 34 37 38 37 37 36 35 35 36 35 35 35 36 37 41 44 47 48 47 48 46 47 46 45 45 45 45 45 44 43 35
34 33 32 31 30 31 32 31 32 36 33 30 34 36 35 34 34 35 36 35 34 34 34 34 35 36 38 39 41 45 44 46 46 46 45 45 44 45 45 42 42 36 35
33 32 31 31 31 31 30 31 31 32 29 31 33 33 34 33 33 35 35 35 36 36 35 34 34 34 34 37 41 42 43 44 45 45 40 39 40 40 39 37 37 34 34
32 31 31 30 30 30 30 31 31 30 28 31 32 32 33 33 33 33 33 38 38 39 39 40 39 37 39 40 41 42 43 44 46 39 38 37 39 38 38 36 34 33 34